     2.11           OBSERVATION DATA    G (GPS)             RINEX VERSION / TYPE
teqc 2010Oct21 OPUS Account 20111025 17:55:50UTC            PGM / RUN BY / DATE
AUSTIN CE                                                   MARKER NAME
3006                                                        MARKER NUMBER
CSMIDDLETON NGS                                             OBSERVER / AGENCY
0220390632 TRIMBLE R7 2.28                                  REC # / TYPE / VERS
60183425 TRM41249.00 NONE                                   ANT # / TYPE
  -742247.8343 -5462591.6155  3197288.2203                  APPROX POSITION XYZ
        2.0010        0.0000        0.0000                  ANTENNA: DELTA H/E/N
     1     1                                                WAVELENGTH FACT L1/2
     5    L1    L2    C1    P1    P2                        # / TYPES OF OBSERV
    15                                                      LEAP SECONDS
  2011     7    25     0     0   30.0000000     GPS         TIME OF FIRST OBS
                                                            END OF HEADER
 11  7 25  0  0 30.0000000  0  8G10G28G09G17G04G20G27G02
  -2691678.90657  -2081596.25854  24035534.2114                   24035536.3054
  -8111897.67257  -6295768.99255  21623811.0944                   21623808.9804
  -7909469.32057  -6155960.25055  22342842.5944                   22342842.0354
 -14801070.48058 -11517306.22356  21241852.9384                   21241850.6684
 -10466511.62958  -8138829.63356  20036003.0784                   20036001.4654
   -369898.39556   -389141.64853  24080501.4224                   24080499.3284
 -11392720.81657  -8865777.37555  22498298.1644                   22498297.1024
  -8980228.58257  -6981067.16855  22743146.2734                   22743143.6134
 11  7 25  0  1  0.0000000  0  8G10G28G09G17G04G20G27G02
  -2769132.29347  -2141949.31244  24020794.9534                   24020796.9344
  -8053076.50447  -6249934.34846  21635004.4384                   21635002.1294
  -7935284.85947  -6176076.26245  22337930.4224                   22337929.7424
 -14755547.91848 -11481834.12146  21250515.6954                   21250513.6294
 -10479134.66048  -8148665.75046  20033601.1564                   20033599.2424
   -331363.32446   -359114.36343  24087832.8284                   24087832.3364
 -11398125.82847  -8869989.05945  22497268.9844                   22497268.1094
  -9050242.72348  -7035623.57445  22729822.9844                   22729820.8524
 11  7 25  0  1 30.0000000  0  8G10G28G09G17G04G20G27G02
  -2846600.67647  -2202314.10943  24006052.8674                   24006054.9774
  -7993871.27748  -6203800.42245  21646270.6484                   21646268.2704
  -7960470.45747  -6195701.38745  22333137.5554                   22333138.3834
 -14709898.78548 -11446263.36346  21259202.3834                   21259200.0664
 -10491167.38348  -8158041.89546  20031311.3284                   20031309.4384
   -292305.39546   -328679.57843  24095264.9844                   24095265.4344
 -11403025.02348  -8873806.60945  22496336.6954                   22496336.0354
  -9119985.50047  -7089968.52745  22716551.3594                   22716549.1804
 11  7 25  0  2  0.0000000  0  8G10G28G09G17G04G20G27G02
  -2924084.84847  -2262691.21943  23991307.9614                   23991309.8164
  -7934285.49247  -6157369.95345  21657609.5784                   21657607.1954
  -7985029.19547  -6214838.04745  22328464.8524                   22328464.9964
 -14664127.65247 -11410597.53546  21267912.3204                   21267909.9264
 -10502613.42248  -8166960.87546  20029133.2034                   20029131.5314
   -252728.97746   -297840.75843  24102795.4534                   24102794.7504
 -11407421.76648  -8877232.63345  22495500.2664                   22495499.5394
  -9189459.28147  -7144103.86745  22703330.7974                   22703328.3594
 11  7 25  0  2 30.0000000  0  8G10G28G09G17G04G20G27G02
  -3001590.03146  -2323084.73043  23976558.6564                   23976561.3134
  -7874326.85547  -6110648.97745  21669018.7194                   21669017.5824
  -8008967.37547  -6233491.12545  22323909.3364                   22323908.6294
 -14618243.14848 -11374843.37546  21276644.1724                   21276641.9414
 -10513480.43048  -8175428.65246  20027065.2734                   20027063.6374
   -212641.87146   -266604.01243  24110424.9144                   24110422.5984
 -11411323.65248  -8880273.05145  22494757.7424                   22494756.2034
  -9258670.42647  -7198034.54745  22690160.3594                   22690157.9224
 11  7 25  0  3  0.0000000  0  8G10G28G09G17G04G20G27G02
  -3079112.80546  -2383491.86343  23961807.3204                   23961808.8324
  -7813994.23447  -6063636.58245  21680500.4774                   21680497.8874
  -8032283.30547  -6251659.33645  22319472.7344                   22319471.1024
 -14572245.45748 -11339001.02346  21285397.5004                   21285394.2464
 -10523767.64548  -8183444.63746  20025107.5704                   20025106.4844
   -172043.52046   -234968.92243  24118150.4844                   24118149.3914
 -11414729.83248  -8882927.19545  22494109.1884                   22494107.8984
  -9327617.05947  -7251759.09845  22677039.9454                   22677037.4454
 11  7 25  0  3 30.0000000  0  8G10G28G09G17G04G20G27G02
  -3156645.25446  -2443906.62943  23947052.6644                   23947054.3554
  -7753283.06647  -6016329.19945  21692053.3984                   21692050.9654
  -8054970.98447  -6269338.01645  22315154.9224                   22315153.5554
 -14526130.01648 -11303066.91046  21294172.6254                   21294170.8054
 -10533469.70348  -8191004.68046  20023261.1644                   20023260.1414
   -130929.53146   -202932.01643  24125974.1564                   24125973.3484
 -11417634.97748  -8885190.93445  22493556.4614                   22493554.9534
  -9396292.60247  -7305272.41845  22663970.8054                   22663969.0744
 11  7 25  0  4  0.0000000  0  8G10G28G09G17G04G20G27G02
  -3234191.97346  -2504332.43743  23932295.8594                   23932297.5004
  -7692200.28147  -5968732.23045  21703676.7274                   21703674.0514
  -8077036.79347  -6286532.13345  22310956.4304                   22310955.7424
 -14479904.88748 -11267047.33646  21302968.7274                   21302967.0824
 -10542594.36748  -8198114.77746  20021525.2424                   20021523.4264
    -89307.39846   -170499.21543  24133893.6564                   24133892.9494
 -11420046.16047  -8887069.77345  22493097.4774                   22493096.8014
  -9464703.12947  -7358579.27045  22650952.6094                   22650951.0044
 11  7 25  0  4 30.0000000  0  8G10G28G09G17G04G20G27G02
  -3311743.47746  -2564761.98843  23917538.5314                   23917539.8284
  -7630739.23847  -5920840.52345  21715372.3204                   21715370.0004
  -8098473.10947  -6303235.73045  22306876.5944                   22306876.7894
 -14433564.14548 -11230937.67646  21311787.8754                   21311786.1644
 -10551134.83648  -8204769.67246  20019899.9694                   20019897.8794
    -47170.95346   -137665.61743  24141912.6414                   24141910.2234
 -11421956.60948  -8888558.39145  22492733.8284                   22492734.2704
  -9532840.56647  -7411673.29745  22637986.7344                   22637984.4734
 11  7 25  0  5  0.0000000  0  8G10G28G09G17G04G20G27G02
  -3389294.28146  -2625191.02743  23902781.2344                   23902781.3754
  -7568897.02747  -5872651.79745  21727140.6724                   21727138.8554
  -8119276.28547  -6319445.95345  22302917.4774                   22302918.1884
 -14387105.92648 -11194736.46946  21320628.0164                   21320627.0234
 -10559088.34848  -8210967.18046  20018386.3594                   20018384.2304
     -4518.11746   -104429.57843  24150028.9774                   24150029.0474
 -11423363.77348  -8889654.85545  22492466.2194                   22492466.7814
  -9600701.07847  -7464551.53145  22625073.3054                   22625071.2974
 11  7 25  0  5 30.0000000  0  8G10G28G09G17G04G20G27G02
  -3466841.11746  -2685616.97743  23888023.9694                   23888025.9384
  -7506673.23047  -5824165.75445  21738981.1484                   21738979.8284
  -8139444.64547  -6335161.50845  22299079.6644                   22299079.5634
 -14340530.20348 -11158443.69946  21329490.8204                   21329488.8204
 -10566454.38348  -8216706.92246  20016984.4694                   20016982.6844
     38651.52046    -70790.85943  24158244.1954                   24158244.8754
 -11424266.72748  -8890358.43745  22492294.9384                   22492294.1884
  -9668282.60547  -7517212.37945  22612212.6884                   22612210.3014
 11  7 25  0  6  0.0000000  0  8G10G28G09G17G04G20G27G02
  -3544382.04346  -2746038.32443  23873269.1804                   23873270.1764
  -7444068.19147  -5775382.63745  21750894.8284                   21750892.9104
  -8158978.08647  -6350382.30945  22295362.4844                   22295361.5984
 -14293838.37948 -11122060.46946  21338375.5314                   21338374.1724
 -10573233.65648  -8221989.44946  20015694.7114                   20015692.9454
     82336.46946    -36750.70343  24166555.7584                   24166557.9144
 -11424666.39547  -8890669.82445  22492218.0234                   22492217.4694
  -9735584.55547  -7569655.40245  22599406.2034                   22599403.4884
 11  7 25  0  6 30.0000000  0  8G10G28G09G17G04G20G27G02
  -3621921.07446  -2806458.16443  23858513.1644                   23858514.4224
  -7381089.01647  -5726307.98845  21762879.5164                   21762877.6764
  -8177882.81247  -6365113.21945  22291765.6414                   22291763.9224
 -14247038.14848 -11085592.76246  21347281.9844                   21347279.7814
 -10579433.22748  -8226820.25046  20014514.9224                   20014513.2424
    126529.52046     -2314.54743  24174966.3594                   24174967.1054
 -11424569.49247  -8890594.30145  22492236.5864                   22492235.2464
  -9802612.75847  -7621885.11345  22586650.6804                   22586648.6604
 11  7 25  0  7  0.0000000  0  8G10G28G09G17G04G20G27G02
  -3699451.03946  -2866870.99243  23843759.8134                   23843761.2274
  -7317731.20748  -5676938.28146  21774936.0474                   21774933.8204
  -8196153.73447  -6379350.29345  22288288.7344                   22288286.4224
 -14200126.00848 -11049037.84446  21356209.2344                   21356206.5904
 -10585049.14848  -8231196.27346  20013446.2114                   20013444.7504
    171234.39146     32520.39543  24183473.9224                   24183473.2344
 -11423971.72347  -8890128.50045  22492350.2424                   22492349.0864
  -9869361.48847  -7673897.03545  22573948.8284                   22573947.0634
 11  7 25  0  7 30.0000000  0  8G10G28G09G17G04G20G27G02
  -3776964.71146  -2927271.06643  23829008.5234                   23829010.1054
  -7253990.52748  -5627270.25046  21787065.7734                   21787063.1844
  -8213785.58247  -6393089.37145  22284932.6334                   22284932.5274
 -14153098.26648 -11012392.85246  21365158.1254                   21365156.0514
 -10590076.95348  -8235114.01246  20012489.4304                   20012487.6454
    216454.85546     67757.14543  24192078.9924                   24192078.8554
 -11422868.69547  -8889268.96545  22492559.7424                   22492559.4494
  -9935825.10547  -7725686.78545  22561300.8134                   22561299.1054
 11  7 25  0  8  0.0000000  0  8G10G28G09G17G04G20G27G02
  -3854465.27346  -2987660.94944  23814260.2894                   23814262.3984
  -7189872.99647  -5577308.56245  21799266.5164                   21799264.5664
  -8230783.71547  -6406334.62945  22281698.8984                   22281698.3204
 -14105961.64548 -10975663.03546  21374127.7894                   21374125.9654
 -10594523.14148  -8238578.55146  20011643.0634                   20011641.4734
    262184.47346    103390.59843  24200780.1954                   24200781.2934
 -11421266.43447  -8888020.43745  22492865.3984                   22492864.2934
 -10002008.60247  -7777258.26645  22548707.3914                   22548704.9884
 11  7 25  0  8 30.0000000  0  8G10G28G09G17G04G20G27G02
  -3931947.73446  -3048036.70743  23799516.0084                   23799517.1174
  -7125376.42247  -5527051.52745  21811539.8914                   21811538.6174
  -8247145.02047  -6419083.72745  22278585.8284                   22278584.4924
 -14058714.43048 -10938847.03946  21383118.9454                   21383116.2774
 -10598385.32048  -8241588.03946  20010908.2894                   20010906.5824
    308425.00446    139422.20743  24209581.1954                   24209579.5084
 -11419162.70747  -8886381.17645  22493265.9304                   22493265.3674
 -10067908.27047  -7828608.59845  22536166.6334                   22536164.4414
 11  7 25  0  9  0.0000000  0  8G10G28G09G17G04G20G27G02
  -4009406.96546  -3108394.37944  23784776.8444                   23784777.6174
  -7060498.41047  -5476497.27345  21823886.0084                   21823884.0164
  -8262866.42247  -6431334.16445  22275593.5004                   22275593.6254
 -14011355.11348 -10901943.68746  21392130.8524                   21392129.2934
 -10601661.47348  -8244140.85546  20010284.5004                   20010283.1684
    355177.94546    175853.05943  24218477.5704                   24218475.8404
 -11416555.20747  -8884349.34445  22493761.5004                   22493761.5084
 -10133520.44548  -7879734.89845  22523681.0164                   22523678.5044
 11  7 25  0  9 30.0000000  0  8G10G28G09G17G04G20G27G02
  -4086845.06646  -3168735.59443  23770039.8284                   23770041.3874
  -6995243.75048  -5425649.50845  21836303.6094                   21836302.0664
  -8277951.89547  -6443089.07445  22272722.1254                   22272721.6454
 -13963888.68448 -10864956.87146  21401163.4384                   21401162.1604
 -10604356.52748  -8246240.88746  20009771.9694                   20009770.0434
    402438.04346    212679.16443  24227471.0944                   24227469.8094
 -11413448.59447  -8881928.61745  22494352.6414                   22494352.6414
 -10198848.57448  -7930639.84445  22511249.5554                   22511247.1024
 11  7 25  0 10  0.0000000  0  8G10G28G09G17G04G20G27G02
  -4164250.80946  -3229051.63344  23755310.3054                   23755310.6914
  -6929604.92247  -5374502.41045  21848794.4844                   21848792.0394
  -8292392.62547  -6454341.60245  22269974.5784                   22269972.7854
 -13916307.96948 -10827881.00446  21410218.2194                   21410216.7234
 -10606462.96548  -8247882.25846  20009370.8834                   20009369.5514
    450212.36346    249905.88743  24236561.5784                   24236561.4304
 -11409835.07048  -8879112.89145  22495041.0634                   22495040.2304
 -10263883.51248  -7981316.34045  22498873.4304                   22498871.5394
 11  7 25  0 10 30.0000000  0  8G10G28G09G17G04G20G27G02
  -4241614.80947  -3289335.12144  23740588.5704                   23740589.2194
  -6863575.21147  -5323050.73045  21861359.5554                   21861356.8014
  -8306182.00447  -6465086.57045  22267350.4384                   22267350.0314
 -13868607.74647 -10790711.99646  21419294.8134                   21419293.0204
 -10607974.59448  -8249060.13346  20009083.1884                   20009081.9734
    498506.92246    287537.96943  24245752.0784                   24245750.6604
 -11405708.53547  -8875897.41845  22495826.3594                   22495825.3014
 -10328617.84448  -8031758.59445  22486554.4224                   22486552.1214
 11  7 25  0 11  0.0000000  0  8G10G28G09G17G04G20G27G02
  -4318942.49647  -3349590.34044  23725873.7344                   23725873.2974
  -6797162.94147  -5271300.93745  21873997.0084                   21873995.1684
  -8319327.29347  -6475329.64145  22264849.2114                   22264848.8094
 -13820796.13347 -10753456.19146  21428392.8834                   21428391.3674
 -10608899.74248  -8249781.01646  20008907.3134                   20008905.7734
    547313.10946    325568.75843  24255039.6414                   24255037.9494
 -11401077.08647  -8872288.50445  22496707.0634                   22496705.9804
 -10393058.19948  -8081971.78945  22474292.0234                   22474289.1564
 11  7 25  0 11 30.0000000  0  8G10G28G09G17G04G20G27G02
  -4396234.05547  -3409817.37944  23711165.0554                   23711165.2624
  -6730371.35547  -5219255.56245  21886706.9304                   21886705.7664
  -8331831.32047  -6485073.03145  22262470.3914                   22262469.6684
 -13772876.96548 -10716116.57846  21437512.1484                   21437509.7154
 -10609241.89848  -8250047.62546  20008842.3524                   20008840.5984
    596626.68046    363994.92243  24264424.3284                   24264422.2384
 -11395943.99647  -8868288.71545  22497684.6724                   22497682.6604
 -10457206.67647  -8131957.53945  22462085.2584                   22462083.1254
 11  7 25  0 12  0.0000000  0  8G10G28G09G17G04G20G27G02
  -4473488.04747  -3470015.16844  23696464.5084                   23696464.2154
  -6663201.85947  -5166915.74645  21899488.8134                   21899487.0634
  -8343694.46547  -6494317.03545  22260212.9844                   22260212.1054
 -13724852.14548 -10678694.63746  21446650.9064                   21446648.3014
 -10609002.75048  -8249861.26646  20008887.8914                   20008886.0314
    646445.90246    402815.07843  24273903.8594                   24273903.1844
 -11390310.67647  -8863899.13345  22498756.3754                   22498755.5824
 -10521063.42248  -8181715.95345  22449933.6024                   22449931.7894
 11  7 25  0 12 30.0000000  0  8G10G28G09G17G04G20G27G02
  -4550693.98447  -3530175.51243  23681771.6254                   23681773.7304
  -6595646.64547  -5114275.35545  21912344.1254                   21912343.0984
  -8354908.58247  -6503055.28545  22258078.3284                   22258078.1334
 -13676714.59848 -10641184.85246  21455810.6334                   21455808.3484
 -10608175.08248  -8249216.30946  20009045.3204                   20009043.2584
    696777.50446    442034.48843  24283481.7424                   24283480.6334
 -11384169.59447  -8859113.87945  22499924.6644                   22499924.4694
 -10584619.39148  -8231239.98845  22437839.5084                   22437836.6764
 11  7 25  0 13  0.0000000  0  8G10G28G09G17G04G20G27G02
  -4627854.38747  -3590300.39144  23667088.9924                   23667090.4264
  -6527711.87147  -5061339.18445  21925271.8914                   21925270.1094
  -8365479.30147  -6511292.17245  22256066.2424                   22256065.2774
 -13628470.88347 -10603592.33646  21464991.0164                   21464989.6454
 -10606764.96548  -8248117.50847  20009313.3834                   20009312.0984
    747615.28946    481648.28543  24293154.9844                   24293155.1214
 -11377526.95347  -8853937.80145  22501188.2894                   22501188.2854
 -10647879.40247  -8280533.42245  22425801.4064                   22425798.5474
 11  7 25  0 13 30.0000000  0  8G10G28G09G17G04G20G27G02
  -4704963.32447  -3650385.15644  23652415.7814                   23652416.9304
  -6459394.52747  -5008104.91845  21938272.5784                   21938270.7624
  -8375402.67647  -6519024.68045  22254177.8444                   22254176.2234
 -13580118.22748 -10565914.93046  21474192.5784                   21474190.6454
 -10604769.73048  -8246562.77046  20009693.1644                   20009692.1994
    798961.41046    521658.19943  24302926.5704                   24302926.4654
 -11370379.61747  -8848368.48445  22502548.8524                   22502548.1414
 -10710838.77748  -8329592.59445  22413820.4064                   22413818.1134
 11  7 25  0 14  0.0000000  0  8G10G28G09G17G04G20G27G02
  -4782015.69947  -3710425.87144  23637752.8674                   23637753.8484
  -6390692.87547  -4954571.19145  21951346.0164                   21951344.6954
  -8384676.20347  -6526250.78945  22252413.7734                   22252413.0354
 -13531655.05948 -10528151.43046  21483415.0084                   21483412.3014
 -10602187.73448  -8244550.81646  20010184.5164                   20010183.6054
    850817.01246    562065.19143  24312794.4304                   24312793.8984
 -11362725.91447  -8842404.60945  22504005.6094                   22504004.5944
 -10773494.59848  -8378415.24645  22401897.3054                   22401894.7774
 11  7 25  0 14 30.0000000  0  8G10G28G09G17G04G20G27G02
  -4859009.25846  -3770420.74643  23623101.0394                   23623102.2304
  -6321607.41047  -4900738.40245  21964492.5474                   21964490.7304
  -8393299.95747  -6532970.57045  22250772.5944                   22250772.7704
 -13483082.70348 -10490302.84046  21492657.5704                   21492655.6334
 -10599020.06248  -8242082.49247  20010787.5004                   20010786.4264
    903180.69946    602868.05943  24322760.5004                   24322757.4694
 -11354566.74247  -8836046.80545  22505558.0784                   22505557.4734
 -10835846.10948  -8427000.78145  22390032.0084                   22390029.7814
 11  7 25  0 15  0.0000000  0  8G10G28G09G17G04G20G27G02
  -4935939.05546  -3830365.90243  23608462.3054                   23608462.6844
  -6252136.41847  -4846605.18445  21977712.4454                   21977710.7034
  -8401271.61747  -6539182.19145  22249255.8134                   22249255.9184
 -13434399.53148 -10452367.93046  21501921.7894                   21501920.2344
 -10595265.29348  -8239156.68446  20011501.7664                   20011500.0554
    956053.71546    644067.79343  24332819.6254                   24332817.8244
 -11345900.41847  -8829293.85545  22507207.3674                   22507205.5984
 -10897890.14548  -8475346.71945  22378225.4844                   22378222.8634
 11  7 25  0 15 30.0000000  0  8G10G28G09G17G04G20G27G02
  -5012811.46946  -3890266.36743  23593833.9454                   23593834.2034
  -6182289.34847  -4792178.92245  21991003.7504                   21991002.1994
  -8408600.15647  -6544892.69945  22247860.8284                   22247859.8914
 -13385615.37547 -10414354.29346  21511204.6804                   21511203.1804
 -10590933.03548  -8235780.88746  20012326.0394                   20012324.7624
   1009425.92246    685656.52343  24342977.3284                   24342975.3134
 -11336736.27347  -8822152.97345  22508951.1954                   22508949.5124
 -10959634.96148  -8523459.50845  22366476.0004                   22366472.6884
 11  7 25  0 16  0.0000000  0  8G10G28G09G17G04G20G27G02
  -5089619.00846  -3950116.27344  23579217.6414                   23579218.4414
  -6112062.23047  -4737456.51645  22004368.1484                   22004365.9264
  -8415280.91047  -6550098.48045  22246590.1484                   22246588.5124
 -13336726.72348 -10376259.25846  21520508.7974                   21520506.7154
 -10586019.55548  -8231952.19546  20013261.1954                   20013259.3714
   1063300.77046    727636.89143  24353229.2664                   24353227.8444
 -11327070.27747  -8814621.05145  22510790.4454                   22510789.2854
 -11021075.02048  -8571334.80945  22354784.0784                   22354781.2774
 11  7 25  0 16 30.0000000  0  8G10G28G09G17G04G20G27G02
  -5166356.21946  -4009911.40244  23564614.3674                   23564615.8714
  -6041452.50447  -4682435.96145  22017804.1884                   22017802.1844
  -8421310.97347  -6554797.24645  22245443.0314                   22245441.3204
 -13287730.93748 -10338080.72346  21529832.0314                   21529829.8594
 -10580522.64548  -8227668.88346  20014307.5784                   20014305.6294
   1117680.12546    770010.34843  24363576.5864                   24363575.9924
 -11316900.01647  -8806696.19145  22512725.5314                   22512724.9804
 -11082206.36748  -8618969.55945  22343150.9924                   22343148.1414
 11  7 25  0 17  0.0000000  0  8G10G28G09G17G04G20G27G02
  -5243013.77346  -4069644.44144  23550027.4144                   23550028.4494
  -5970453.67647  -4627112.23045  22031314.5634                   22031313.6454
  -8426683.40247  -6558983.53945  22244420.1954                   22244418.7074
 -13238621.94548 -10299813.98846  21539177.2584                   21539174.2234
 -10574436.48448  -8222926.40646  20015465.3594                   20015463.7234
   1172569.58646    812781.37143  24374021.2274                   24374021.1174
 -11306219.56247  -8798373.75845  22514757.7664                   22514757.5904
 -11143021.32448  -8666357.76246  22331578.5704                   22331575.4104
 11  7 25  0 17 30.0000000  0  8G10G28G09G17G04G20G27G02
  -5319601.14146  -4129322.77344  23535452.9454                   23535454.3954
  -5899079.16447  -4571495.75045  22044896.9304                   22044894.8094
  -8431410.85247  -6562667.26645  22243520.2424                   22243518.7344
 -13189413.78147 -10261469.99246  21548541.2344                   21548539.1994
 -10567774.51248  -8217735.25446  20016733.2274                   20016731.8524
   1227955.03946    855938.87543  24384561.5704                   24384560.5394
 -11295042.05547  -8789664.06245  22516885.1954                   22516884.6994
 -11203531.82448  -8713508.73845  22320063.8054                   22320061.1884
 11  7 25  0 18  0.0000000  0  8G10G28G09G17G04G20G27G02
  -5396103.13346  -4188934.61344  23520895.0554                   23520896.1294
  -5827317.03147  -4515577.25445  22058553.1724                   22058551.0664
  -8435480.99248  -6565838.80945  22242745.4304                   22242745.1684
 -13140094.30548 -10223039.25846  21557926.1564                   21557924.1254
 -10560525.22748  -8212086.44947  20018112.5784                   20018111.4804
   1283848.12946    899491.93843  24395198.9144                   24395196.3594
 -11283355.68447  -8780557.83645  22519109.2344                   22519109.1454
 -11263724.70348  -8760412.18445  22308609.2504                   22308606.8554
 11  7 25  0 18 30.0000000  0  8G10G28G09G17G04G20G27G02
  -5472524.00446  -4248483.25044  23506352.4064                   23506353.1764
  -5755174.98047  -4459362.67245  22072281.1884                   22072279.5944
  -8438901.01648  -6568503.75045  22242095.2734                   22242094.4064
 -13090671.12148 -10184527.69146  21567331.2814                   21567329.2194
 -10552696.42648  -8205986.08247  20019601.9924                   20019600.7704
   1340240.32446    943433.89543  24405929.2114                   24405928.0394
 -11271168.24247  -8771061.14545  22521428.3834                   22521427.0904
 -11323605.93448  -8807072.81246  22297214.2114                   22297211.5274
 11  7 25  0 19  0.0000000  0  8G10G28G09G17G04G20G27G02
  -5548859.05146  -4307965.00844  23491826.2894                   23491826.9494
  -5682650.94547  -4402850.48845  22086082.0944                   22086080.1994
  -8441668.60948  -6570660.32845  22241568.7274                   22241567.8714
 -13041143.02348 -10145934.40646  21576756.0164                   21576754.1724
 -10544287.04348  -8199433.30946  20021202.7734                   20021201.3754
   1397132.65646    987765.56343  24416756.5084                   24416754.1214
 -11258478.29347  -8761172.89545  22523843.6094                   22523842.1604
 -11383172.62548  -8853488.35246  22285879.1174                   22285876.1374
 11  7 25  0 19 30.0000000  0  8G10G28G09G17G04G20G27G02
  -5625100.15646  -4367373.54744  23477317.6724                   23477317.6524
  -5609740.63347  -4346037.28145  22099956.3444                   22099954.9494
  -8443778.62547  -6572304.48045  22241167.3444                   22241165.7624
 -12991505.20748 -10107255.59046  21586201.9144                   21586199.9534
 -10535292.57848  -8192424.64146  20022914.4534                   20022912.8634
   1454528.88746   1032489.86743  24427677.2814                   24427676.5514
 -11245281.23447  -8750889.47345  22526354.1804                   22526353.9574
 -11442418.94148  -8899654.25045  22274604.4844                   22274602.0234
 11  7 25  0 20  0.0000000  0  8G10G28G09G17G04G20G27G02
  -5701249.57846  -4426710.65244  23462827.9844                   23462826.8524
  -5536449.47747  -4288927.31245  22113903.5084                   22113900.9264
  -8445236.40647  -6573440.40645  22240889.3834                   22240889.1884
 -12941763.61348 -10068495.93446  21595667.6334                   21595666.3014
 -10525719.02048  -8184964.73446  20024736.3284                   20024734.3794
   1512422.78946   1077601.98843  24438694.5944                   24438693.1844
 -11231582.90247  -8740215.45345  22528961.4064                   22528960.0944
 -11501348.68748  -8945573.45745  22263390.7274                   22263387.9454
 11  7 25  0 20 30.0000000  0  8G10G28G09G17G04G20G27G02
  -5777303.42647  -4485973.28944  23448355.2114                   23448353.4184
  -5462776.94947  -4231520.18445  22127922.7194                   22127920.8754
  -8446040.95347  -6574067.34445  22240735.5634                   22240735.4064
 -12891917.97748 -10029655.18046  21605152.7274                   21605151.1804
 -10515566.37548  -8177053.56246  20026668.0704                   20026666.5004
   1570814.32846   1123101.84043  24449804.2504                   24449805.8094
 -11217383.04347  -8729150.65245  22531663.8284                   22531662.4224
 -11559959.73848  -8991244.31645  22252237.1254                   22252234.4884
 11  7 25  0 21  0.0000000  0  8G10G28G09G17G04G20G27G02
  -5853255.40646  -4545156.55544  23433901.2274                   23433901.2034
  -5388720.50047  -4173813.90645  22142015.3594                   22142013.0744
  -8446189.18447  -6574182.87145  22240707.9224                   22240707.9844
 -12841965.31648  -9990731.05546  21614658.6724                   21614656.6094
 -10504832.27048  -8168689.32446  20028710.7274                   20028709.0044
   1629705.48046   1168991.03543  24461013.4224                   24461012.0474
 -11202678.90647  -8717692.89145  22534461.5554                   22534461.1484
 -11618248.25448  -9036663.86746  22241145.4844                   22241142.6804
 11  7 25  0 21 30.0000000  0  8G10G28G09G17G04G20G27G02
  -5929107.39846  -4604261.89844  23419466.9064                   23419467.2304
  -5314285.23047  -4115812.43045  22156179.9304                   22156178.1454
  -8445685.86747  -6573790.68445  22240803.3524                   22240803.6294
 -12791911.39848  -9951728.00046  21624183.1644                   21624181.8594
 -10493522.37548  -8159876.41447  20030862.8594                   20030861.8714
   1689090.33646   1215264.96143  24472312.9064                   24472311.9024
 -11187475.86347  -8705846.39145  22537354.4304                   22537354.7274
 -11676218.52048  -9081835.43045  22230113.7734                   22230111.3594
 11  7 25  0 22  0.0000000  0  8G10G28G09G17G04G20G27G02
  -7580279.91846  -5890889.70744  23105259.4924                   23105259.6454
  -6814889.89147  -5285114.80145  21870624.0634                   21870622.5744
 -10019951.99247  -7800491.57845  21941231.8754                   21941229.9494
 -14317175.56647 -11140245.53546  21333934.9064                   21333932.8244
 -12057057.98448  -9378215.83646  19733331.7194                   19733330.5044
    173549.02346     34323.72343  24183913.9924                   24183913.9774
 -12747194.92247  -9921211.91445  22240550.2894                   22240550.2154
 -13309291.82047 -10354360.01245  21919350.1484                   21919347.5744
 11  7 25  0 22 30.0000000  0  8G10G28G09G17G04G20G27G02
  -7655918.63346  -5949828.87544  23090865.2424                   23090865.9384
  -6739693.62547  -5226520.34045  21884933.7504                   21884931.8404
 -10018141.28147  -7799080.66445  21941576.1644                   21941574.5704
 -14266915.07448 -11101081.53546  21343499.8524                   21343497.8364
 -12044594.43748  -9368503.97347  19735703.5084                   19735702.1054
    233922.23446     81367.75443  24195404.6254                   24195402.4264
 -12730991.37547  -9908585.78545  22243632.9454                   22243633.0784
 -13366617.00048 -10399028.93445  21908441.4774                   21908437.8364
 11  7 25  0 23  0.0000000  0  8G10G28G09G17G04G20G27G02
  -7731444.90246  -6008680.42644  23076493.5944                   23076493.7344
  -6664116.44947  -5167629.07045  21899315.2344                   21899314.2934
 -10015675.94147  -7797159.63345  21942045.3594                   21942044.0434
 -14216550.66448 -11061836.53146  21353083.7504                   21353081.0044
 -12031554.12548  -9358342.68447  19738185.0704                   19738183.7504
    294788.82446    128796.20743  24206985.8284                   24206985.5204
 -12714287.52347  -9895569.81645  22246811.9224                   22246810.8364
 -13423617.08248 -10443444.51645  21897594.3444                   21897591.9414
 11  7 25  0 23 30.0000000  0  8G10G28G09G17G04G20G27G02
  -7806857.41846  -6067443.34444  23062142.9454                   23062143.2464
  -6588160.66447  -5108442.77045  21913769.5394                   21913768.1844
 -10012557.82447  -7794729.94545  21942637.9774                   21942637.3244
 -14166084.66447 -11022512.37946  21362686.8914                   21362684.1374
 -12017939.91848  -9347734.19947  19740775.6564                   19740774.4494
    356146.05146    176607.05543  24218663.1484                   24218660.7074
 -12697085.71947  -9882165.84845  22250085.6024                   22250084.1094
 -13480293.14848 -10487607.63345  21886809.5084                   21886806.1884
 11  7 25  0 24  0.0000000  0  8G10G28G09G17G04G20G27G02
  -7882157.62546  -6126118.72744  23047813.2584                   23047814.5944
  -6511831.00047  -5048965.13745  21928294.4064                   21928293.1094
 -10008791.44147  -7791795.09845  21943354.1174                   21943354.6684
 -14115522.12947 -10983113.01646  21372308.6414                   21372306.6254
 -12003756.87548  -9336682.46946  19743474.7194                   19743472.9884
    417988.50846    224796.01643  24230429.1094                   24230428.0594
 -12679390.95747  -9868377.75445  22253452.6334                   22253451.1844
 -13536648.21148 -10531520.60546  21876085.7344                   21876082.7384
 11  7 25  0 24 30.0000000  0  9G10G28G12G09G17G04G20G27G02
  -7957339.21547  -6184701.68444  23033507.7344                   23033508.3874
  -6435124.61347  -4989193.96145  21942891.1174                   21942890.4024
  -1690718.22756  -1308876.77053  24516197.0394                   24516194.4264
 -10004373.85247  -7788352.84445  21944195.7114                   21944195.1334
 -14064860.10947 -10943636.11746  21381948.9064                   21381946.9454
 -11989002.89848  -9325185.85246  19746282.1884                   19746280.9924
    480317.78946    273364.24643  24242291.6334                   24242289.4804
 -12661200.69947  -9854203.54745  22256913.9304                   22256913.7384
 -13592678.23448 -10575180.30146  21865423.6954                   21865420.9024
 11  7 25  0 25  0.0000000  0  9G10G28G12G09G17G04G20G27G02
  -8032406.78547  -6243195.79344  23019222.1884                   23019223.6174
  -6358049.46147  -4929135.44145  21957558.0474                   21957556.5004
  -1770348.04346  -1370925.95743  24501043.1024                   24501042.0704
  -9999312.76647  -7784409.18445  21945158.8134                   21945157.9024
 -14014106.51247 -10904087.85946  21391607.5164                   21391605.3054
 -11973686.41048  -9313250.91446  19749196.9304                   19749195.1804
    543125.07045    322304.86342  24254241.7584                   24254241.7934
 -12642523.20747  -9839649.68745  22260468.3834                   22260468.3364
 -13648389.90647 -10618591.94546  21854821.4534                   21854819.3754
 11  7 25  0 25 30.0000000  0  9G10G28G12G09G17G04G20G27G02
  -8107361.72346  -6301602.13744  23004958.1484                   23004959.2234
  -6280610.93747  -4868793.75445  21972294.3054                   21972292.0164
  -1850003.18446  -1432994.94143  24485885.4924                   24485884.6644
  -9993612.84447  -7779967.72744  21946243.4454                   21946242.3714
 -13963266.08247 -10864471.94546  21401282.1484                   21401280.5164
 -11957812.76648  -9300881.82846  19752217.8984                   19752216.1644
    606404.70346    371613.78543  24266284.0314                   24266283.8554
 -12623363.66847  -9824720.19145  22264114.4064                   22264114.7154
 -13703786.73047 -10661758.25045  21844280.0084                   21844277.5204
 11  7 25  0 26  0.0000000  0  9G10G28G12G09G17G04G20G27G02
  -8182192.13347  -6359911.45744  22990718.7504                   22990719.6174
  -6202800.58647  -4808162.34045  21987101.4144                   21987099.6054
  -1929673.43046  -1495075.77343  24470725.1094                   24470725.0234
  -9987265.62547  -7775021.88345  21947451.6174                   21947449.9454
 -13912330.68047 -10824782.02346  21410974.4224                   21410972.9264
 -11941374.53948  -9288072.81246  19755345.7114                   19755343.8324
    670164.41046    421296.62543  24278418.3834                   24278416.9304
 -12603714.07047  -9809408.85545  22267853.5864                   22267853.2074
 -13758859.30548 -10704671.89846  21833800.3524                   21833797.1024
 11  7 25  0 26 30.0000000  0  9G10G28G12G09G17G04G20G27G02
  -8256895.45747  -6418121.74244  22976503.4304                   22976503.1914
  -6124619.41447  -4747241.99645  22001978.8134                   22001977.2704
  -2009358.19946  -1557167.85542  24455561.8444                   24455561.6454
  -9980272.01647  -7769572.33245  21948782.1334                   21948781.1334
 -13861301.06647 -10785018.69546  21420685.7274                   21420683.1564
 -11924373.18748  -9274825.00447  19758581.1174                   19758579.8134
    734402.06646    471351.93843  24290640.9384                   24290641.9884
 -12583575.61747  -9793716.58645  22271685.9384                   22271685.2664
 -13813606.86348 -10747332.27746  21823382.0554                   21823379.1334
 11  7 25  0 27  0.0000000  0  9G10G28G12G09G17G04G20G27G02
  -8331472.06647  -6476233.29344  22962311.9534                   22962311.0164
  -6046071.69547  -4686036.04745  22016925.7344                   22016924.6134
  -2089059.58646  -1619272.76642  24440394.6414                   24440395.9144
  -9972635.89547  -7763622.09845  21950234.2274                   21950234.3794
 -13810180.58647 -10745184.54746  21430413.4694                   21430411.2584
 -11906813.19148  -9261141.88347  19761922.8754                   19761920.7664
    799112.96946    521776.03143  24302956.1484                   24302955.3284
 -12562952.80947  -9777646.89545  22275610.6564                   22275609.1484
 -13868031.98448 -10789741.40646  21813025.3364                   21813022.2154
 11  7 25  0 27 30.0000000  0  9G10G28G12G09G17G04G20G27G02
  -8405915.04347  -6534240.72744  22948145.5704                   22948145.3914
  -5967154.20747  -4624541.94145  22031943.6094                   22031941.3444
  -2168772.02046  -1681386.28943  24425226.2034                   24425227.4104
  -9964354.14847  -7757168.78145  21951810.0864                   21951810.4344
 -13758966.66847 -10705277.60946  21440159.3054                   21440156.5704
 -11888691.94948  -9247021.42647  19765371.4774                   19765368.8874
    864299.19146    572570.43443  24315359.9614                   24315359.3444
 -12541842.82047  -9761197.57045  22279627.2814                   22279625.4304
 -13922130.18448 -10831895.79746  21802730.1884                   21802727.0784
 11  7 25  0 28  0.0000000  0  9G10G28G12G09G17G04G20G27G02
  -8480226.62147  -6592145.78144  22934004.7034                   22934004.2464
  -5887872.65647  -4562764.13745  22047030.0004                   22047028.6414
  -2248499.12146  -1743511.30543  24410054.6884                   24410053.9614
  -9955432.00447  -7750216.49645  21953508.2664                   21953507.9224
 -13707664.60247 -10665301.98846  21449921.1954                   21449919.3594
 -11870015.77348  -9232468.55147  19768925.1644                   19768923.1454
    929954.28946    623730.25843  24327854.7584                   24327853.0634
 -12520251.39847  -9744373.11345  22283736.1724                   22283734.3554
 -13975905.98848 -10873798.98446  21792497.2344                   21792494.1374
 11  7 25  0 28 30.0000000  0  9G10G28G12G09G17G04G20G27G02
  -8554400.26247  -6649943.34044  22919889.2344                   22919890.0514
  -5808223.93447  -4500700.25045  22062186.5084                   22062186.1844
  -2328235.83646  -1805643.74643  24394881.8364                   24394881.6454
  -9945866.31647  -7742762.74645  21955329.1174                   21955328.4414
 -13656271.05147 -10625255.06646  21459701.5004                   21459699.1914
 -11850781.95748  -9217481.14847  19772584.7584                   19772583.1414
    996080.85946    675257.38343  24340438.1174                   24340436.6334
 -12498175.98447  -9727171.52345  22287936.8674                   22287935.9344
 -14029354.67248 -10915447.24246  21782326.6414                   21782322.9104
 11  7 25  0 29  0.0000000  0  9G10G28G12G09G17G04G20G27G02
  -8628424.62547  -6707624.57044  22905803.1484                   22905803.0864
  -5728200.71947  -4438344.54345  22077415.0864                   22077413.0514
  -2407972.74647  -1867776.29344  24379707.5164                   24379709.1374
  -9935649.48447  -7734801.62545  21957274.3204                   21957273.0554
 -13604778.24247 -10585130.82446  21469500.2664                   21469498.3404
 -11830983.74248  -9202053.96147  19776352.5704                   19776350.8284
   1062685.18046    727156.90243  24353112.2274                   24353110.3554
 -12475609.31247  -9709587.12545  22292231.1484                   22292230.6564
 -14082467.37548 -10956833.70346  21772219.4384                   21772216.5514
 11  7 25  0 29 30.0000000  0  9G10G28G12G09G17G04G20G27G02
  -8702304.57047  -6765193.27344  22891744.7584                   22891744.4964
  -5647811.22347  -4375703.42245  22092712.1884                   22092710.6414
  -2487715.97346  -1929913.76244  24364533.6414                   24364534.0634
  -9924789.92647  -7726339.66845  21959340.8754                   21959339.2854
 -13553194.36747 -10544935.62146  21479316.5554                   21479314.3484
 -11810629.84848  -9186193.77746  19780225.5084                   19780224.2584
   1129758.53146    779421.84042  24365875.8364                   24365873.4184
 -12452559.95347  -9691626.60245  22296617.2034                   22296616.9734
 -14135251.23448 -10997963.92246  21762174.6804                   21762171.4384
 11  7 25  0 30  0.0000000  0  9G10G28G12G09G17G04G20G27G02
  -8776034.23847  -6822644.85544  22877713.4924                   22877714.3014
  -5567053.88747  -4312775.64545  22108079.7114                   22108078.1454
  -2567461.89147  -1992053.30944  24349358.6334                   24349358.1174
  -9913285.71947  -7717375.37145  21961529.3284                   21961528.7344
 -13501516.87947 -10504667.45746  21489150.5314                   21489149.1724
 -11789719.24248  -9169899.77747  19784204.7664                   19784203.2584
   1197301.14846    832052.50442  24378729.0234                   24378726.1724
 -12429026.46947  -9673288.82845  22301095.5554                   22301095.1884
 -14187702.37948 -11038834.89146  21752193.5394                   21752190.9654
 11  7 25  0 30 30.0000000  0  9G10G28G12G09G17G04G20G27G02
  -8849610.33647  -6879976.83244  22863712.3594                   22863712.5904
  -5485928.70347  -4249561.26645  22123517.4614                   22123515.8714
  -2647208.45747  -2054193.38744  24334182.3834                   24334182.2464
  -9901137.01647  -7707908.83645  21963840.4614                   21963840.5314
 -13449746.30147 -10464326.75046  21499001.8204                   21499000.3914
 -11768252.79748  -9153172.65646  19788289.8524                   19788287.5554
   1265312.29346    885048.18443  24391671.2814                   24391669.0204
 -12405009.54347  -9654574.34045  22305665.8444                   22305665.1294
 -14239820.09848 -11079446.05546  21742275.8524                   21742273.1484
 11  7 25  0 31  0.0000000  0  9G10G28G12G09G17G04G20G27G02
  -8923029.23847  -6937186.31244  22849741.4144                   22849742.0594
  -5404436.19947  -4186060.68045  22139025.2194                   22139023.7934
  -2726953.53546  -2116332.27044  24319007.1334                   24319007.3014
  -9888343.97747  -7697940.23045  21966274.5394                   21966275.0904
 -13397882.26247 -10423913.23046  21508871.2814                   21508869.5594
 -11746231.22748  -9136012.98047  19792480.2814                   19792478.1174
   1333791.11346    938408.29342  24404701.5864                   24404700.7074
 -12380509.49647  -9635483.40645  22310328.5314                   22310327.3554
 -14291603.18048 -11119796.47346  21732421.9534                   21732418.3014
 11  7 25  0 31 30.0000000  0  9G10G28G12G09G17G04G20G27G02
  -8996284.57447  -6994268.31244  22835800.8524                   22835801.3404
  -5322573.69947  -4122271.73445  22154603.3134                   22154601.1134
  -2806692.50846  -2178466.39843  24303832.2344                   24303833.5514
  -9874903.97347  -7687467.48445  21968832.7274                   21968832.1994
 -13345921.69948 -10383424.48846  21518758.9064                   21518757.1994
 -11723652.37148  -9118419.06247  19796776.9534                   19796775.0234
   1402739.17246    992134.01642  24417822.6024                   24417821.4384
 -12355524.12947  -9616014.26645  22315082.4774                   22315080.7344
 -14343047.80148 -11159883.12946  21722632.7734                   21722629.3874
 11  7 25  0 32  0.0000000  0  9G10G28G12G09G17G04G20G27G02
  -9069373.56247  -7051220.69944  22821892.4924                   22821892.6214
  -5240342.12147  -4058195.21145  22170250.7734                   22170249.5864
  -2886424.30946  -2240594.92243  24288660.1024                   24288659.8204
  -9860817.97347  -7676491.41845  21971513.7424                   21971513.0354
 -13293865.23047 -10342861.04346  21528664.9144                   21528664.1214
 -11700517.85248  -9100392.15247  19801179.3284                   19801177.6844
   1472154.73846   1046224.07443  24431032.1024                   24431031.0004
 -12330054.90647  -9596168.10945  22319929.2894                   22319928.3674
 -14394153.01248 -11199705.31246  21712907.3594                   21712904.9574
 11  7 25  0 32 30.0000000  0  9G10G28G12G09G17G04G20G27G02
  -9142296.35247  -7108043.59044  22808015.7584                   22808015.6134
  -5157745.52747  -3993834.26645  22185969.5554                   22185967.0314
  -2966150.38346  -2302718.99643  24273489.3914                   24273487.8164
  -9846089.66847  -7665014.83245  21974317.1094                   21974316.0274
 -13241716.32447 -10302225.53946  21538589.1254                   21538587.3244
 -11676832.18048  -9081935.76647  19805686.5554                   19805684.4574
   1542033.26646   1100674.77743  24444330.0164                   24444327.8284
 -12304105.80547  -9575948.01645  22324867.0084                   22324866.9574
 -14444921.03948 -11239264.74646  21703246.4454                   21703243.6604
 11  7 25  0 33  0.0000000  0  9G10G28G12G09G17G04G20G27G02
  -9215042.33247  -7164728.69144  22794173.1884                   22794173.0234
  -5074777.32447  -3929183.74645  22201757.3204                   22201756.3834
  -3045861.53946  -2364831.53543  24258319.6024                   24258318.3594
  -9830712.19147  -7653032.36745  21977242.4774                   21977242.1374
 -13189467.75448 -10261512.37946  21548531.0084                   21548529.1334
 -11652589.35248  -9063045.23447  19810299.8594                   19810297.3674
   1612380.34445   1155490.67243  24457714.1174                   24457714.8164
 -12277670.51647  -9555349.06645  22329896.9064                   22329897.5664
 -14495344.03148 -11278555.33246  21693650.9844                   21693648.4694
 11  7 25  0 33 30.0000000  0  9G10G28G12G09G17G04G20G27G02
  -9287612.35947  -7221276.66844  22780363.1884                   22780363.0394
  -4991441.80947  -3864247.01245  22217615.3204                   22217614.0124
  -3125560.35246  -2426934.38343  24243155.0394                   24243152.2854
  -9814690.50447  -7640547.90245  21980290.9614                   21980291.1724
 -13137123.84848 -10220724.92246  21558492.6094                   21558490.0274
 -11627794.40648  -9043724.49247  19815017.8524                   19815016.1724
   1683190.60546   1210667.50442  24471190.3524                   24471190.3554
 -12250753.98047  -9534375.15245  22335018.9924                   22335019.2274
 -14545425.27348 -11317579.63346  21684120.7504                   21684118.4774
 11  7 25  0 34  0.0000000  0  9G10G28G12G09G17G04G20G27G02
  -9360002.00847  -7277684.10244  22766587.4774                   22766586.5474
  -4907738.71947  -3799023.85945  22233544.0474                   22233541.0904
  -3205243.74246  -2489025.26243  24227990.2664                   24227990.1484
  -9798024.16447  -7627561.12945  21983462.9534                   21983461.8594
 -13084683.80948 -10179862.56246  21568470.8754                   21568469.1454
 -11602447.57848  -9023973.70747  19819841.0394                   19819839.6644
   1754463.62946   1266204.98042  24484751.5634                   24484752.9024
 -12223356.04347  -9513026.09845  22340233.1644                   22340233.4104
 -14595162.52748 -11356335.87546  21674656.2734                   21674653.1524
 11  7 25  0 34 30.0000000  0  9G10G28G12G09G17G04G20G27G02
  -9432204.95347  -7333946.07444  22752848.1564                   22752847.0234
  -4823665.54347  -3733512.32045  22249542.0164                   22249539.9844
  -3284907.41847  -2551100.78544  24212832.1414                   24212830.6994
  -9780710.70747  -7614070.11345  21986757.8834                   21986755.9024
 -13032144.40248 -10138922.78946  21578468.7344                   21578466.7814
 -11576547.02748  -9003791.45746  19824769.9384                   19824768.3444
   1826201.02346   1322104.23042  24498404.4614                   24498403.5634
 -12195474.78947  -9491300.43745  22345539.4534                   22345538.0274
 -14644552.00848 -11394821.14846  21665257.7974                   21665254.5394
 11  7 25  0 35  0.0000000  0  9G10G28G12G09G17G04G20G27G02
  -9504224.35247  -7390065.01244  22739142.8284                   22739142.4844
  -4739229.54347  -3667718.05545  22265610.0554                   22265608.1604
  -3364555.80547  -2613164.45344  24197675.2894                   24197673.9064
  -9762757.43747  -7600080.54745  21990173.9694                   21990172.5124
 -12979511.84447 -10097910.43746  21588484.5944                   21588482.7774
 -11550100.44948  -8983183.71547  19829802.5944                   19829800.7704
   1898394.80146   1378359.12143  24512142.6804                   24512141.9024
 -12167117.39847  -9469203.77345  22350935.2034                   22350934.7894
 -14693599.37948 -11433039.83246  21655924.5634                   21655920.6764
 11  7 25  0 35 30.0000000  0  8G10G28G12G09G17G04G27G02
  -9576061.21547  -7446041.73444  22725473.5944                   22725472.6764
  -4654435.75047  -3601644.98845  22281745.5784                   22281744.1884
  -3444191.55547  -2675218.25043  24182520.1804                   24182519.5204
  -9744169.42247  -7585596.35945  21993710.9534                   21993710.4264
 -12926791.11348 -10056829.37946  21598517.4384                   21598515.2814
 -11523113.48848  -8962154.90247  19834937.7034                   19834936.4414
 -12138289.57047  -9446740.53545  22356421.1564                   22356419.7194
 -14742308.10248 -11470994.61746  21646655.7194                   21646651.6994
 11  7 25  0 36  0.0000000  0  8G10G28G12G09G17G04G27G02
  -9647707.66847  -7501870.08244  22711839.3984                   22711838.5274
  -4569279.97347  -3535289.91045  22297950.9924                   22297948.8954
  -3523807.86747  -2737256.92244  24167370.1564                   24167368.0904
  -9724942.42647  -7570614.29745  21997369.5004                   21997369.4804
 -12873977.50848 -10015675.91846  21608567.5314                   21608564.6604
 -11495582.59048  -8940702.25047  19840176.9844                   19840175.4344
 -12108987.15247  -9423907.49645  22361997.1414                   22361996.2114
 -14790672.48048 -11508681.08246  21637451.6334                   21637448.3794
 11  7 25  0 36 30.0000000  0  8G10G28G12G09G17G04G27G02
  -9719157.14847  -7557544.92244  22698242.4534                   22698242.6484
  -4483759.73847  -3468650.80145  22314224.6174                   22314222.8794
  -3603399.68047  -2799276.49644  24152224.2344                   24152223.3594
  -9705074.29747  -7555132.66045  22001150.4614                   22001150.8164
 -12821067.71148  -9974447.52746  21618635.3834                   21618633.5824
 -11467505.75048  -8918824.19947  19845519.8284                   19845518.3014
 -12079208.21147  -9400703.13345  22367663.8364                   22367663.4534
 -14838688.69548 -11546096.25846  21628314.4924                   21628311.3984
 11  7 25  0 37  0.0000000  0  8G10G28G12G09G17G04G27G02
  -9790401.22347  -7613059.73844  22684685.1334                   22684685.5984
  -4397870.39147  -3401724.07445  22330568.6884                   22330566.6174
  -3682960.45346  -2861271.84444  24137083.9774                   24137083.3324
  -9684560.21147  -7539147.68745  22005053.9774                   22005053.8484
 -12768056.71548  -9933140.27346  21628723.0554                   21628721.5944
 -11438879.30948  -8896517.86347  19850967.3754                   19850965.2584
 -12048948.51247  -9377124.15245  22373422.3914                   22373421.2384
 -14886350.64148 -11583235.39846  21619244.5004                   21619241.6804
 11  7 25  0 37 30.0000000  0  8G10G28G12G09G17G04G27G02
  -9861437.37547  -7668412.53144  22671167.7584                   22671167.6524
  -4311613.61347  -3334511.03145  22346982.6644                   22346981.5984
  -3762488.93047  -2923242.03544  24121950.3364                   24121950.2854
  -9663402.46947  -7522661.14545  22009080.7584                   22009080.3444
 -12714945.34848  -9891754.79346  21638829.7194                   21638828.7154
 -11409705.35248  -8873784.90646  19856518.6254                   19856517.4924
 -12018210.34447  -9353172.33645  22379270.9384                   22379269.5274
 -14933658.34848 -11620098.48446  21610242.3444                   21610239.8054
 11  7 25  0 38  0.0000000  0  8G10G28G12G09G17G04G27G02
  -9932260.95347  -7723599.66445  22657690.0634                   22657690.2814
  -4224988.56647  -3267011.05944  22363466.9454                   22363465.8984
  -3841981.66847  -2985184.33644  24106823.1094                   24106823.1454
  -9641599.94547  -7505672.20345  22013229.4224                   22013228.4964
 -12661731.95748  -9850289.82046  21648955.9534                   21648954.3834
 -11379983.57048  -8850625.07847  19862174.9144                   19862173.3674
 -11986992.95747  -9328847.10245  22385211.7274                   22385210.8984
 -14980609.30148 -11656683.59846  21601307.7974                   21601305.0984
 11  7 25  0 38 30.0000000  0  8G10G28G12G09G17G04G27G02
 -10002872.81247  -7778621.85245  22644253.4534                   22644253.2814
  -4138000.12147  -3199227.89145  22380020.3914                   22380018.8014
  -3921441.09047  -3047100.71544  24091702.9924                   24091702.7814
  -9619157.86347  -7488184.85545  22017499.7344                   22017499.0084
 -12608420.68048  -9808748.59446  21659101.1174                   21659099.1484
 -11349719.74248  -8827042.87947  19867933.6334                   19867931.8874
 -11955301.72747  -9304152.66044  22391241.5554                   22391241.7114
 -15027207.12548 -11692993.53146  21592440.5784                   21592437.5234
 11  7 25  0 39  0.0000000  0  8G10G28G12G09G17G04G27G02
 -10073266.45747  -7833474.00044  22630857.4924                   22630857.4924
  -4050646.11347  -3131159.88745  22396643.6254                   22396641.8874
  -4000862.30947  -3108987.28544  24076588.7974                   24076588.7344
  -9596073.97747  -7470197.37945  22021892.6174                   22021891.5864
 -12555008.63348  -9767128.82446  21669265.4694                   21669264.2194
 -11318912.13348  -8803036.94947  19873796.3834                   19873794.2424
 -11923134.67247  -9279087.44145  22397363.6884                   22397362.8484
 -15073447.89548 -11729025.22346  21583641.0944                   21583638.0944
 11  7 25  0 39 30.0000000  0  8G10G28G12G09G17G04G27G02
 -10143442.15247  -7888156.29745  22617503.6174                   22617503.6994
  -3962930.93747  -3062810.44145  22413335.2584                   22413333.9654
  -4080247.15647  -3170845.49244  24061482.9844                   24061481.6844
  -9572352.90647  -7451713.43445  22026406.4534                   22026406.4264
 -12501499.79347  -9725433.64146  21679446.8594                   21679446.0354
 -11287565.72748  -8778611.18447  19879761.0474                   19879759.6914
 -11890496.70747  -9253655.29745  22403574.2814                   22403574.0744
 -15119334.81248 -11764781.21146  21574908.8444                   21574905.8524
 11  7 25  0 40  0.0000000  0  8G10G28G12G09G17G04G27G02
 -10213400.21947  -7942669.02745  22604191.1954                   22604191.2234
  -3874858.85947  -2994182.89544  22430094.7664                   22430093.6254
  -4159597.03547  -3232676.46544  24046383.0474                   24046381.5514
  -9547999.02347  -7432736.38344  22031040.8984                   22031041.3754
 -12447897.34047  -9683665.50846  21689647.4304                   21689645.3984
 -11255685.28148  -8753769.27047  19885827.7664                   19885826.1524
 -11857392.24647  -9227859.63345  22409873.8594                   22409872.8794
 -15164870.03948 -11800263.14146  21566243.5554                   21566240.9734
 11  7 25  0 40 30.0000000  0  8G10G28G12G09G17G04G27G02
 -10283138.77747  -7997010.69944  22590920.1884                   22590920.1724
  -3786432.03547  -2925278.91844  22446921.0704                   22446919.9694
  -4238911.97347  -3294480.24244  24031289.9384                   24031287.8204
  -9523015.18447  -7413268.44944  22035794.9384                   22035794.8244
 -12394202.93048  -9641825.71546  21699865.8524                   21699863.8834
 -11223273.90648  -8728513.64547  19891995.6024                   19891993.8094
 -11823824.26247  -9201702.82845  22416261.7274                   22416260.9844
 -15210054.85948 -11835472.05546  21557645.1724                   21557642.7814
 11  7 25  0 41  0.0000000  0  8G10G28G12G09G17G04G27G02
 -10352647.86747  -8051173.56645  22577692.6024                   22577693.5044
  -3697644.87547  -2856094.15245  22463817.6094                   22463816.1374
  -4318183.16046  -3356249.88343  24016205.1254                   24016203.8204
  -9497395.88747  -7393305.33244  22040670.3984                   22040669.7814
 -12340409.98848  -9599909.13746  21710101.5944                   21710100.1174
 -11190326.51648  -8702840.34447  19898265.2274                   19898263.8134
 -11789787.36747  -9175180.57044  22422738.3674                   22422737.6564
 -15254881.89548 -11870402.16046  21549115.1414                   21549112.5784
 11  7 25  0 41 30.0000000  0  8G10G28G12G09G17G04G27G02
 -10421933.10547  -8105162.00045  22564508.6024                   22564508.6484
  -3608506.96147  -2786636.09045  22480779.4534                   22480778.7234
  -4397417.46546  -3417990.80943  24001126.7894                   24001126.3484
  -9471150.36747  -7372854.27045  22045665.2974                   22045664.0664
 -12286527.11748  -9557922.50046  21720354.8444                   21720352.5594
 -11156853.16448  -8676757.21147  19904635.1724                   19904633.3954
 -11755291.24647  -9148300.52044  22429303.3364                   22429302.3554
 -15299358.87948 -11905059.48446  21540651.3674                   21540648.6564
 11  7 25  0 42  0.0000000  0  8G10G28G12G09G17G04G27G02
 -10490986.23047  -8158969.56245  22551367.9844                   22551367.7814
  -3519014.13747  -2716901.46544  22497809.5784                   22497807.9924
  -4476608.27747  -3479697.88343  23986057.3674                   23986055.5204
  -9444274.98047  -7351912.39144  22050778.7734                   22050778.6954
 -12232549.30148  -9515861.86346  21730626.7194                   21730624.8484
 -11122850.75448  -8650261.83247  19911105.3204                   19911103.9104
 -11720332.35947  -9121059.84845  22435955.6024                   22435955.2854
 -15343480.19948 -11939439.69546  21532255.0864                   21532252.2194
 11  7 25  0 42 30.0000000  0  8G10G28G12G09G17G04G27G02
 -10559800.57847  -8212591.06245  22538273.2344                   22538272.7894
  -3429163.94947  -2646888.37544  22514907.5554                   22514905.8754
  -4555750.33647  -3541366.96944  23970997.1644                   23970995.8444
  -9416767.87947  -7330478.28545  22056012.9694                   22056012.7704
 -12178473.26648  -9473724.71546  21740917.7274                   21740915.8524
 -11088317.21148  -8623352.57847  19917677.0394                   19917675.4614
 -11684908.82047  -9093457.11345  22442697.4384                   22442696.3554
 -15387242.29348 -11973539.98446  21523927.6644                   21523924.2664
 11  7 25  0 43  0.0000000  0  8G10G28G12G09G17G04G27G02
 -10628378.73047  -8266028.52345  22525222.8364                   22525222.4304
  -3338962.70347  -2576601.73444  22532072.5084                   22532070.9104
  -4634847.28547  -3603000.89144  23955945.6484                   23955944.0554
  -9388635.73447  -7308557.14844  22061366.7894                   22061366.7034
 -12124304.57848  -9431515.35546  21751225.1334                   21751223.8674
 -11053259.98848  -8596035.25847  19924348.2504                   19924346.9304
 -11649027.48047  -9065497.65245  22449524.4224                   22449523.9654
 -15430649.67248 -12007363.88746  21515667.5944                   21515664.1334
 11  7 25  0 43 30.0000000  0  8G10G28G12G09G17G04G27G02
 -10696711.02747  -8319274.39145  22512219.9304                   22512219.2274
  -3248405.29347  -2506037.56645  22549304.8914                   22549304.4734
  -4713890.88747  -3664593.25444  23940903.4614                   23940901.9384
  -9359873.33247  -7286144.90244  22066840.3524                   22066839.6684
 -12070036.93448  -9389228.89846  21761551.7424                   21761550.2624
 -11017673.89548  -8568305.83246  19931119.9614                   19931118.2074
 -11612683.16047  -9037177.43445  22456440.0704                   22456440.4924
 -15473695.51248 -12040906.08646  21507476.3524                   21507472.8984
 11  7 25  0 44  0.0000000  0  8G10G28G12G09G17G04G27G02
 -10764802.88747  -8372332.91445  22499262.0004                   22499261.6684
  -3157501.39147  -2435203.39145  22566603.8444                   22566602.5084
  -4792888.12147  -3726149.47744  23925870.8914                   23925869.9734
  -9330490.93747  -7263249.53544  22072431.5634                   22072430.4804
 -12015679.49248  -9346872.43746  21771895.7274                   21771894.1644
 -10981569.77048  -8540172.74247  19937990.1484                   19937988.5984
 -11575886.29347  -9008504.59445  22463442.9924                   22463442.6294
 -15516388.44548 -12074173.25446  21499351.8284                   21499348.5204
 11  7 25  0 44 30.0000000  0  8G10G28G12G09G17G04G27G02
 -10832646.91447  -8425198.31645  22486352.1954                   22486351.9494
  -3066247.75847  -2364096.72745  22583968.7274                   22583967.9144
  -4871832.54347  -3787664.55544  23910848.6414                   23910847.2934
  -9300485.51247  -7239868.68445  22078141.4614                   22078140.5204
 -11961227.75448  -9304442.51246  21782258.0474                   21782256.0514
 -10944944.84048  -8511633.84047  19944959.6804                   19944958.1334
 -11538634.08247  -8979476.93745  22470531.6564                   22470531.7934
 -15558723.30948 -12107161.43046  21491295.7974                   21491292.3674
 11  7 25  0 45  0.0000000  0  8G10G28G12G09G17G04G27G02
 -10900240.41447  -8477868.53545  22473489.4144                   22473488.6094
  -2974645.84047  -2292718.65244  22601400.1564                   22601398.8134
  -4950723.26247  -3849137.78544  23895836.1884                   23895835.2154
  -9269859.03947  -7216003.88745  22083968.9454                   22083968.7664
 -11906682.38747  -9261939.65246  21792637.5234                   21792635.2464
 -10907801.29348  -8482690.81247  19952028.0944                   19952026.9654
 -11500928.24647  -8950095.82445  22477707.5164                   22477706.3874
 -15600700.03948 -12139870.52346  21483307.7974                   21483304.6724
 11  7 25  0 45 30.0000000  0  8G10G28G12G09G17G04G27G02
 -10967580.07447  -8530340.93745  22460675.2504                   22460674.9384
  -2882696.88347  -2221070.18744  22618897.2734                   22618896.0744
  -5029558.27046  -3910567.59844  23880834.0164                   23880833.1294
  -9238613.19547  -7191656.46145  22089914.8914                   22089914.7814
 -11852043.33648  -9219363.80146  21803034.7504                   21803032.3984
 -10870141.02748  -8453345.14847  19959194.5084                   19959193.1524
 -11462770.55947  -8920362.59445  22484968.3284                   22484967.9144
 -15642318.35548 -12172300.35546  21475387.9064                   21475385.1024
 11  7 25  0 46  0.0000000  0  8G10G28G12G09G17G04G27G02
 -11034665.30147  -8582615.05544  22447909.3134                   22447909.0514
  -2790404.09047  -2149153.78944  22636460.1094                   22636459.0084
  -5108338.32047  -3971954.54344  23865842.8134                   23865842.1604
  -9206751.46947  -7166829.16845  22095977.6254                   22095977.0394
 -11797312.88748  -9176716.68446  21813449.4924                   21813447.8134
 -10831967.99648  -8423599.93047  19966458.5084                   19966456.8754
 -11424164.73847  -8890280.17645  22492314.9534                   22492314.1484
 -15683579.90248 -12204452.19546  21467536.5704                   21467532.9224
 11  7 25  0 46 30.0000000  0  8G10G28G12G09G17G04G27G02
 -11101483.51647  -8634681.12545  22435193.4924                   22435193.4964
  -2697759.59847  -2076963.34444  22654090.0084                   22654089.0514
  -5187052.19946  -4033289.96144  23850864.1254                   23850862.7934
  -9174266.14147  -7141515.90645  22102159.4534                   22102159.4614
 -11742482.31247  -9133991.55546  21823883.5084                   21823881.9654
 -10793274.94948  -8393449.50047  19973821.7194                   19973819.8204
 -11385103.34047  -8859842.79745  22499747.4924                   22499747.5044
 -15724475.17648 -12236318.63346  21459754.6564                   21459750.3364
 11  7 25  0 47  0.0000000  0  8G10G28G12G09G17G04G27G02
 -11168033.70747  -8686538.33645  22422529.1724                   22422529.0664
  -2604766.35247  -2004501.15244  22671785.6644                   22671784.2664
  -5265699.87946  -4094573.77344  23835897.4534                   23835896.0864
  -9141160.60947  -7115719.40645  22108460.3054                   22108459.3094
 -11687553.44148  -9091189.85946  21834336.3754                   21834334.2934
 -10754065.66848  -8362896.80947  19981282.7584                   19981280.5984
 -11345589.72347  -8829053.04345  22507267.6254                   22507267.1294
 -15765005.73848 -12267900.85946  21452041.9064                   21452038.5824
 11  7 25  0 47 30.0000000  0  8G10G28G12G09G17G04G27G02
 -11234318.08247  -8738188.45345  22409915.9454                   22409915.7704
  -2511430.91847  -1931772.32444  22689546.2734                   22689546.1644
  -5344284.67646  -4155808.60544  23820943.0634                   23820942.0664
  -9107442.12147  -7089445.27345  22114876.3984                   22114875.6414
 -11632531.51247  -9048315.65246  21844806.5004                   21844804.5984
 -10714346.98848  -8331947.19147  19988841.0394                   19988839.3054
 -11305630.68447  -8797916.19945  22514871.5634                   22514870.6524
 -15805176.35948 -12299202.62546  21444397.2584                   21444394.6804
 11  7 25  0 48  0.0000000  0  8G10G28G12G09G17G04G27G02
 -11300328.62947  -8789625.16845  22397354.4304                   22397354.1024
  -2417749.81647  -1858774.12944  22707373.6884                   22707372.9534
  -5422800.14546  -4216989.40244  23806002.2814                   23806000.7544
  -9073107.21147  -7062690.80144  22121409.8674                   22121409.2384
 -11577411.87547  -9005365.27746  21855295.3284                   21855293.1374
 -10674116.24248  -8300598.54347  19996496.7424                   19996495.1884
 -11265223.17247  -8766429.88345  22522560.5164                   22522559.4384
 -15844982.07448 -12330220.02746  21436822.2194                   21436819.4024
 11  7 25  0 48 30.0000000  0  8G10G28G12G09G17G04G27G02
 -11366063.99647  -8840847.46945  22384845.7734                   22384844.6564
  -2323725.71947  -1785508.66444  22725265.7664                   22725264.7664
  -5501246.20346  -4278116.12544  23791074.4844                   23791073.3714
  -9038159.43747  -7035458.76244  22128059.5554                   22128058.8204
 -11522196.39548  -8962340.23446  21865802.9144                   21865800.3364
 -10633377.07848  -8268853.73447  20004249.2504                   20004247.5124
 -11224370.60547  -8734596.77045  22530334.2034                   22530333.9224
 -15884424.31648 -12360954.21546  21429316.8204                   21429313.3794
 11  7 25  0 49  0.0000000  0  8G10G28G12G09G17G04G27G02
 -11431528.12947  -8891858.43045  22372388.2344                   22372387.8404
  -2229367.01647  -1711982.45744  22743222.3524                   22743221.2074
  -5579627.75446  -4339192.60544  23776159.2274                   23776157.7624
  -9002607.25847  -7007755.74244  22134826.0004                   22134823.9494
 -11466892.15248  -8919246.04746  21876326.8984                   21876324.6054
 -10592138.33248  -8236719.64147  20012096.8754                   20012095.0514
 -11183081.64547  -8702423.62945  22538191.3054                   22538191.9144
 -15923509.60948 -12391410.26246  21421879.1024                   21421875.4414
 11  7 25  0 49 30.0000000  0  8G10G28G12G09G17G04G27G02
 -11496709.60947  -8942649.11345  22359985.0314                   22359984.4804
  -2134666.58247  -1638189.99645  22761242.7894                   22761242.3524
  -5657935.29747  -4400211.41844  23761257.9924                   23761256.0904
  -8966444.37547  -6979576.86744  22141706.7194                   22141705.6484
 -11411490.86748  -8876076.22346  21886869.5084                   21886866.4614
 -10550393.84048  -8204191.46547  20020040.3204                   20020038.8714
 -11141350.12547  -8669905.62145  22546132.0554                   22546132.9454
 -15962229.42648 -12421581.51246  21414511.1094                   21414507.8914
 11  7 25  0 50  0.0000000  0  8G10G28G12G09G17G04G27G02
 -11561613.02747  -8993223.14845  22347634.2114                   22347633.8204
  -2039633.47747  -1564138.29345  22779327.7424                   22779326.4844
  -5736174.10947  -4461176.71144  23746370.0164                   23746366.6454
  -8929679.92647  -6950929.26644  22148703.0394                   22148701.3834
 -11356000.54748  -8832836.99645  21897428.9774                   21897426.0474
 -10508153.06248  -8171276.56646  20028078.4454                   20028076.9654
 -11099185.02347  -8637049.77745  22554156.6804                   22554156.7974
 -16000590.96148 -12451473.58646  21407211.0084                   21407208.0514
 11  7 25  0 50 30.0000000  0  8G10G28G12G09G17G04G27G02
 -11626222.96947  -9043568.48445  22335339.0004                   22335338.8524
  -1944256.21147  -1489818.41044  22797476.8444                   22797476.1484
  -5814330.01247  -4522077.40644  23731497.5704                   23731494.5744
  -8892303.49247  -6921804.82844  22155815.3444                   22155815.1684
 -11300408.49248  -8789518.51245  21908007.5784                   21908005.3714
 -10465405.34048  -8137966.63347  20036212.9844                   20036211.4144
 -11056575.65247  -8603847.74245  22562264.5314                   22562265.2624
 -16038581.35548 -12481076.45746  21399981.4844                   21399978.3164
 11  7 25  0 51  0.0000000  0  8G10G28G12G09G17G04G27G02
 -11690538.31247  -9093684.29345  22323099.8284                   22323099.3484
  -1848538.11347  -1415232.92644  22815691.4844                   22815691.0944
  -5892403.05547  -4582913.53544  23716640.7734                   23716637.6724
  -8854318.60947  -6892206.27744  22163043.8914                   22163044.0354
 -11244716.83248  -8746122.44146  21918605.5864                   21918603.0474
 -10422154.82048  -8104264.91847  20044443.1334                   20044442.0664
 -11013525.87547  -8570302.52745  22570457.8834                   22570456.8364
 -16076202.62548 -12510391.70346  21392822.2504                   21392819.3754
 11  7 25  0 51 30.0000000  0  8G10G28G12G09G17G04G27G02
 -11754561.70747  -9143572.60545  22310916.3524                   22310916.6054
  -1752486.32847  -1340387.44945  22833969.8364                   22833968.7734
  -5970397.05547  -4643688.04344  23701798.4384                   23701796.1174
  -8815732.86747  -6862139.48044  22170386.8754                   22170387.8164
 -11188931.05148  -8702653.02346  21929221.4774                   21929219.2624
 -10378409.22348  -8070177.44947  20052768.2734                   20052767.0274
 -10970043.09847  -8536419.88745  22578732.3914                   22578731.1884
 -16113460.11748 -12539423.48046  21385732.7274                   21385728.9924
 11  7 25  0 52  0.0000000  0  8G10G28G12G09G17G04G27G02
 -11818286.93747  -9193228.57845  22298790.0784                   22298789.8094
  -1656099.36347  -1265280.76244  22852311.2584                   22852310.1524
  -6048307.14147  -4704397.21544  23686972.6724                   23686969.3524
  -8776545.55947  -6831603.92244  22177844.4384                   22177842.3284
 -11133048.77048  -8659108.39546  21939855.3914                   21939853.1604
 -10334167.64548  -8035703.48846  20061186.7194                   20061185.0984
 -10926126.60947  -8502199.26645  22587088.2504                   22587087.8874
 -16150350.80948 -12568169.46146  21378712.1954                   21378709.1054
 11  7 25  0 52 30.0000000  0  8G10G28G12G09G17G04G27G02
 -11881719.64847  -9242656.62545  22286719.6884                   22286718.8674
  -1559387.05147  -1189920.56644  22870715.3674                   22870714.4654
  -6126140.05147  -4765046.21944  23672161.0784                   23672159.5124
  -8736766.93446  -6800607.59844  22185413.5704                   22185412.3554
 -11077078.37547  -8615495.13346  21950505.8054                   21950504.2234
 -10289440.71148  -8000851.32846  20069697.8674                   20069695.8404
 -10881786.41047  -8467648.45345  22595526.3134                   22595525.5864
 -16186882.71948 -12596635.83246  21371760.6414                   21371757.5744
 11  7 25  0 53  0.0000000  0  8G10G28G12G09G17G04G27G02
 -11944841.64547  -9291842.55145  22274708.0864                   22274706.6604
  -1462335.13747  -1114295.73444  22889183.7664                   22889182.7304
  -6203878.95747  -4825621.95744  23657367.5784                   23657366.6024
  -8696383.53546  -6769140.05144  22193097.5944                   22193097.5204
 -11021004.55947  -8571801.25046  21961176.3594                   21961174.5394
 -10244214.95348  -7965610.48047  20078304.1484                   20078302.3834
 -10837009.17247  -8432757.09444  22604046.8134                   22604046.4884
 -16223040.69948 -12624810.85246  21364879.9534                   21364876.9964
 11  7 25  0 53 30.0000000  0  8G10G28G12G09G17G04G27G02
 -12007664.52747  -9340795.39545  22262753.0084                   22262751.6954
  -1364960.21947  -1038419.21144  22907713.1414                   22907712.2464
  -6281536.14847  -4886134.04744  23642589.7034                   23642588.7934
  -8655411.99246  -6737214.24643  22200894.5394                   22200894.2544
 -10964842.37147  -8528038.52346  21971863.7424                   21971861.6054
 -10198507.50448  -7929994.28946  20087001.9454                   20087000.5274
 -10791811.62547  -8397538.25044  22612647.8204                   22612648.1094
 -16258839.23448 -12652705.77346  21358067.9694                   21358064.5004
 11  7 25  0 54  0.0000000  0  8G10G28G12G09G17G04G27G02
 -12070173.58647  -9389503.69145  22250857.8364                   22250855.9694
  -1267251.93047   -962282.91844  22926306.8444                   22926305.2274
  -6359098.37147  -4946572.16844  23627830.4304                   23627829.2854
  -8613842.77746  -6704822.70343  22208804.3524                   22208804.4264
 -10908579.82047  -8484197.59046  21982569.9774                   21982568.2424
 -10152308.69548  -7893995.22746  20095793.2034                   20095791.6294
 -10746183.93446  -8361984.25445  22621330.5634                   22621331.0514
 -16294266.19148 -12680311.14146  21351326.0314                   21351323.2934
 11  7 25  0 54 30.0000000  0  8G10G28G12G09G17G04G27G02
 -12132367.77047  -9437966.63345  22239022.2504                   22239020.5314
  -1169213.43047   -885889.31644  22944962.7664                   22944962.2304
  -6436565.43046  -5006936.12144  23613088.8444                   23613087.8954
  -8571679.92246  -6671968.57044  22216828.5944                   22216828.6564
 -10852219.22347  -8440280.24246  21993295.2894                   21993293.9144
 -10105622.57448  -7857616.42247  20104677.5944                   20104675.9344
 -10700130.02347  -8326098.11745  22630094.1254                   22630095.2774
 -16329323.48448 -12707628.46546  21344655.2664                   21344651.6414
 11  7 25  0 55  0.0000000  0  8G10G28G12G09G17G04G27G02
 -12194246.02047  -9486183.40245  22227247.4614                   22227245.7854
  -1070848.14147   -809241.09044  22963681.4774                   22963680.3404
  -6513937.43447  -5067225.98444  23598365.4144                   23598364.3054
  -8528927.58246  -6638655.08243  22224963.6564                   22224963.0634
 -10795762.78547  -8396288.22346  22004038.7114                   22004036.7034
 -10058453.23848  -7820861.11346  20113653.4534                   20113651.8094
 -10653653.94547  -8289882.98445  22638938.1724                   22638938.5784
 -16364013.18448 -12734659.35946  21338054.2034                   21338051.0164
 11  7 25  0 55 30.0000000  0  8G10G28G12G09G17G04G27G02
 -12255809.87147  -9534155.17245  22215531.9694                   22215531.4654
   -972161.97347   -732342.80544  22982460.9924                   22982459.8444
  -6591217.18447  -5127443.97745  23583659.9454                   23583658.9264
  -8485591.96946  -6604887.09043  22233210.0554                   22233209.4224
 -10739214.34447  -8352224.51246  22014799.2504                   22014797.6644
 -10010807.32848  -7783734.43046  20122719.8284                   20122718.5434
 -10606761.91847  -8253343.74245  22647862.0314                   22647861.2664
 -16398339.44548 -12761407.03946  21331521.7584                   21331518.0164
 11  7 25  0 56  0.0000000  0  8G10G28G12G09G17G04G27G02
 -12317052.35947  -9581876.55945  22203877.6334                   22203877.2664
   -873152.53147   -655192.66044  23001301.3674                   23001301.6524
  -6668398.68047  -5187585.39144  23568972.4774                   23568971.2894
  -8441671.10946  -6570663.13344  22241569.1094                   22241567.4454
 -10682570.45747  -8308086.43746  22025578.3834                   22025576.7344
  -9962682.89848  -7746234.88347  20131877.9694                   20131876.1564
 -10559452.18447  -8216479.02745  22656864.8054                   22656864.9774
 -16432297.99648 -12787868.19946  21325059.6024                   21325056.0704
 11  7 25  0 56 30.0000000  0  8G10G28G12G09G17G04G27G02
 -12377963.13347  -9629339.44945  22192286.9144                   22192286.5514
   -773814.00047   -577786.09044  23020204.9924                   23020205.3364
  -6745472.50447  -5247642.93044  23554306.5864                   23554304.4264
  -8397160.08646  -6535979.28144  22250038.8284                   22250037.5514
 -10625823.85948  -8263868.34046  22036377.0234                   22036374.6414
  -9914074.87548  -7708358.50846  20141127.8444                   20141125.9454
 -10511719.46947  -8179284.71945  22665947.9534                   22665947.9924
 -16465881.85948 -12814037.39546  21318668.4304                   21318665.1604
 11  7 25  0 57  0.0000000  0  8G10G28G12G09G17G04G27G02
 -12438545.41847  -9676546.37945  22180758.9384                   22180757.3914
   -674154.27747   -500129.20344  23039169.9454                   23039169.4064
  -6822443.28947  -5307620.14845  23539659.7034                   23539658.3834
  -8352067.35947  -6500842.18444  22258620.5944                   22258618.3444
 -10568980.82848  -8219575.08246  22047193.3914                   22047191.8444
  -9864992.09848  -7670112.19546  20150467.6884                   20150465.9454
 -10463571.94547  -8141767.16045  22675109.8284                   22675110.1764
 -16499097.23048 -12839919.45746  21312348.3364                   21312344.1134
 11  7 25  0 57 30.0000000  0  8G10G28G12G09G17G04G27G02
 -12498791.17247  -9723491.09045  22169294.4614                   22169293.1294
   -574169.44947   -422218.98044  23058196.2194                   23058195.6954
  -6899303.95347  -5367511.58244  23525032.9384                   23525031.9224
  -8306390.07047  -6465249.50844  22267311.7974                   22267311.0784
 -10512036.14147  -8175202.62546  22058029.7894                   22058028.6724
  -9815431.19548  -7631493.31646  20159898.7584                   20159897.2894
 -10415006.38747  -8103923.88345  22684351.8984                   22684351.1334
 -16531938.62548 -12865510.11346  21306098.8134                   21306095.0744
 11  7 25  0 58  0.0000000  0  8G10G28G12G09G17G04G27G02
 -12558701.25447  -9770174.21945  22157893.7814                   22157893.0234
   -473865.12947   -344059.81644  23077284.0944                   23077282.3094
  -6976056.25047  -5427318.54744  23510427.1564                   23510426.8014
  -8260134.23447  -6429206.04344  22276114.3834                   22276113.8204
 -10454993.64847  -8130753.94946  22068884.7274                   22068883.6294
  -9765398.34048  -7592506.68047  20169420.4924                   20169418.4734
 -10366028.79347  -8065759.54345  22693671.9614                   22693671.3054
 -16564409.83248 -12890812.31246  21299919.8204                   21299916.1134
 11  7 25  0 58 30.0000000  0  8G10G28G12G09G17G04G27G02
 -12618275.32847  -9816595.51645  22146556.9224                   22146556.3014
   -373245.30147   -265654.78144  23096431.5634                   23096430.1174
  -7052700.53147  -5487041.32444  23495842.5394                   23495840.8554
  -8213304.61747  -6392715.51644  22285024.9144                   22285025.3134
 -10397856.16847  -8086231.25446  22079757.9924                   22079755.8364
  -9714898.51648  -7553156.16447  20179029.7344                   20179028.6254
 -10316643.83247  -8027277.77045  22703069.6254                   22703069.1804
 -16596513.66048 -12915828.23046  21293810.2504                   21293807.3364
 11  7 25  0 59  0.0000000  0  8G10G28G12G09G17G04G27G02
 -12677506.21948  -9862749.42245  22135285.8834                   22135285.1604
   -272307.05947   -187001.65244  23115638.6024                   23115637.1954
  -7129230.26647  -5546674.87544  23481279.7894                   23481277.1764
  -8165898.87947  -6355776.02745  22294046.3364                   22294046.8794
 -10340618.82047  -8041630.75445  22090649.6024                   22090647.4144
  -9663929.18748  -7513439.80547  20188728.8914                   20188727.0394
 -10266849.10947  -7988476.69944  22712545.1884                   22712544.2664
 -16628245.50048 -12940554.30546  21287771.6414                   21287768.8754
 11  7 25  0 59 30.0000000  0  8G10G28G12G09G17G04G27G02
 -12736388.16047  -9908631.39845  22124080.5394                   22124080.4694
   -171049.36747   -108099.57844  23134907.8524                   23134905.9654
  -7205641.60547  -5606216.08644  23466738.6334                   23466736.0314
  -8117916.99247  -6318387.61345  22303176.8524                   22303176.6054
 -10283279.62147  -7996950.88345  22101560.4614                   22101559.3634
  -9612490.24648  -7473357.52346  20198517.2584                   20198515.7304
 -10216644.35247  -7949356.10945  22722098.9304                   22722097.8164
 -16659602.85248 -12964988.56246  21281804.3054                   21281801.0864
 11  7 25  1  0  0.0000000  0  8G10G28G12G09G17G04G27G02
 -12794924.42247  -9954244.03145  22112942.1334                   22112941.4844
    -69480.36747    -28954.96944  23154235.4844                   23154234.5084
  -7281938.71547  -5665668.29744  23452220.1024                   23452217.3984
  -8069367.78147  -6280557.10545  22312416.0474                   22312414.5904
 -10225844.68047  -7952196.40646  22112490.9064                   22112489.4654
  -9560590.34048  -7432916.04347  20208393.5234                   20208392.0944
 -10166038.17247  -7909922.73844  22731728.2814                   22731728.2304
 -16690592.12148 -12989136.00846  21275907.1334                   21275903.6374
 11  7 25  1  0 30.0000000  0  8G10G28G12G09G17G04G27G02
 -12853111.12547  -9999584.27345  22101868.9064                   22101868.7194
     32399.72747     50432.05944  23173622.7194                   23173621.0594
  -7358118.03547  -5725028.69144  23437723.3054                   23437720.2734
  -8020252.09847  -6242285.18045  22321762.1414                   22321761.9224
 -10168312.78147  -7907366.37946  22123438.2974                   22123437.5864
  -9508230.55148  -7392116.21547  20218357.6174                   20218355.7854
 -10115031.19147  -7870177.08645  22741435.4924                   22741434.6684
 -16721211.83648 -13012995.49246  21270080.8364                   21270077.1334
 11  7 25  1  1  0.0000000  0  8G10G28G12G09G17G04G27G02
 -12910942.59847 -10044647.69945  22090863.9774                   22090863.4104
    134592.02747    130062.34444  23193069.5864                   23193069.1094
  -7434175.55947  -5784294.19944  23423250.4774                   23423247.5664
  -7970569.79347  -6203571.72345  22331216.4224                   22331216.0744
 -10110681.40247  -7862458.85246  22134405.3204                   22134403.2704
  -9455410.73448  -7350957.90647  20228408.5554                   20228407.0354
 -10063623.15247  -7830118.91845  22751217.9534                   22751218.1764
 -16751459.69148 -13036565.21546  21264325.1024                   21264321.0354
 11  7 25  1  1 30.0000000  0  8G10G28G12G09G17G04G27G02
 -12968412.83247 -10089429.66445  22079928.0864                   22079927.1884
    237097.86347    209936.94544  23212576.3134                   23212576.2584
  -7510105.97347  -5843460.66044  23408800.7034                   23408799.5784
  -7920320.12547  -6164416.16845  22340778.7664                   22340778.8244
 -10052947.36348  -7817471.32045  22145392.1724                   22145389.7464
  -9402129.79348  -7309440.28946  20238547.5084                   20238546.1684
 -10011812.87947  -7789747.32045  22761077.2424                   22761077.7774
 -16781332.62548 -13059842.79746  21258640.3364                   21258636.8014
 11  7 25  1  2  0.0000000  0  8G10G28G12G09G17G04G27G02
 -13025527.88347 -10133934.83645  22069059.0704                   22069058.8524
    339906.78947    290047.72743  23232139.3594                   23232139.2854
  -7585916.16847  -5902533.43444  23394374.9694                   23394373.0314
  -7869514.50047  -6124827.39845  22350446.5944                   22350446.2774
  -9995119.58648  -7772410.72746  22156396.0084                   22156394.2114
  -9348398.85948  -7267572.03146  20248772.1414                   20248770.3204
  -9959611.80147  -7749071.17645  22771010.8674                   22771010.2974
 -16810839.30548 -13082834.98046  21253025.3284                   21253021.8834
 11  7 25  1  2 30.0000000  0  8G10G28G12G09G17G04G27G02
 -13082288.16048 -10178163.56645  22058257.7734                   22058257.0824
    443014.02747    370390.96944  23251760.6484                   23251759.7894
  -7661606.93747  -5961513.16445  23379971.3204                   23379969.9574
  -7818158.18747  -6084809.51245  22360220.2114                   22360219.4304
  -9937200.93448  -7727279.34446  22167418.1254                   22167415.6254
  -9294223.60548  -7225357.54746  20259081.5004                   20259080.2114
  -9907024.91447  -7708094.38345  22781017.2894                   22781017.6174
 -16839983.00448 -13105544.32446  21247478.9304                   21247476.1954
 11  7 25  1  3  0.0000000  0  8G10G28G12G09G17G04G27G02
 -13138684.99247 -10222109.10945  22047526.4064                   22047525.5084
    546423.36346    450969.61343  23271438.0944                   23271437.3674
  -7737171.23047  -6020394.34845  23365592.3914                   23365590.9304
  -7766248.34447  -6044360.29745  22370098.2894                   22370097.4304
  -9879186.07447  -7682072.98046  22178457.7584                   22178455.0784
  -9239600.94948  -7182794.44146  20269475.5394                   20269474.0944
  -9854049.10947  -7666814.57445  22791098.5234                   22791098.3164
 -16868758.55148 -13127966.78146  21242003.4774                   21241999.7734
 11  7 25  1  3 30.0000000  0  8G10G28G12G09G17G04G27G02
 -13194715.87548 -10265769.49245  22036863.3594                   22036863.4734
    650132.79746    531782.08643  23291173.2664                   23291172.7814
  -7812607.10947  -6079175.43045  23351236.1644                   23351235.9104
  -7713787.66847  -6003481.84045  22380080.9304                   22380080.1214
  -9821075.23848  -7636791.82445  22189515.6094                   22189513.8014
  -9184533.29748  -7139884.58246  20279954.8674                   20279953.2664
  -9800686.95747  -7625233.73445  22801253.0164                   22801253.2814
 -16897166.37148 -13150102.71946  21236597.3134                   21236593.9264
 11  7 25  1  4  0.0000000  0  8G10G28G12G09G17G04G27G02
 -13250375.45747 -10309140.55145  22026271.7734                   22026271.3054
    754143.23846    612829.15643  23310966.2424                   23310965.0634
  -7887909.84047  -6137852.79745  23336906.8284                   23336905.7234
  -7660776.45347  -5962174.42245  22390168.5704                   22390167.6174
  -9762866.17248  -7591434.10945  22200593.0554                   22200590.3984
  -9129020.61748  -7096627.95346  20290519.3054                   20290517.4184
  -9746938.12547  -7583351.60545  22811480.8444                   22811481.3954
 -16925203.89148 -13171950.11346  21231262.5554                   21231258.8134
 11  7 25  1  4 30.0000000  0  8G10G28G12G09G17G04G27G02
 -13305662.44947 -10352221.27345  22015750.6414                   22015750.7974
    858451.94947    694108.61343  23330815.5864                   23330814.7814
  -7963078.84847  -6196425.97345  23322602.6174                   23322601.7624
  -7607218.51647  -5920441.00845  22400360.2344                   22400358.7384
  -9704559.71148  -7546000.53145  22211688.3054                   22211686.3324
  -9073066.64148  -7053027.45346  20301166.0634                   20301164.6374
  -9692806.42247  -7541171.07845  22821782.6334                   22821782.3714
 -16952872.54748 -13193510.07046  21225997.3524                   21225993.4414
 11  7 25  1  5  0.0000000  0  8G10G28G12G09G17G04G27G02
 -13360564.01647 -10395001.65245  22005303.8364                   22005303.2074
    963066.51247    775626.43844  23350723.3134                   23350722.1724
  -8038102.32847  -6254885.77045  23308326.0944                   23308325.5824
  -7553106.50447  -5878275.84445  22410657.7894                   22410656.4884
  -9646146.45747  -7500483.71545  22222803.3754                   22222802.0984
  -9016664.03948  -7009077.38346  20311899.4304                   20311897.7274
  -9638284.27747  -7498686.33245  22832157.1724                   22832157.4654
 -16980162.99248 -13214775.31646  21220803.8524                   21220800.0634
 11  7 25  1  5 30.0000000  0  8G10G28G12G09G17G04G27G02
 -13415075.83248 -10437478.34845  21994930.5864                   21994929.6214
   1067986.45347    857382.19144  23370689.0634                   23370688.2194
  -8112977.10547  -6313229.69144  23294077.3364                   23294076.8834
  -7498441.89547  -5835680.09445  22421060.6414                   22421059.1684
  -9587625.13347  -7454882.67645  22233939.7344                   22233937.9224
  -8959814.11748  -6964778.73446  20322717.5164                   20322715.5704
  -9583372.78547  -7455898.17644  22842606.9924                   22842606.0084
 -17007073.82048 -13235744.75846  21215682.9304                   21215679.6604
 11  7 25  1  6  0.0000000  0  8G10G28G12G09G17G04G27G02
 -13469201.37947 -10479654.05945  21984630.3914                   21984629.4414
   1173204.18447    939370.00844  23390711.1334                   23390710.4184
  -8187707.46947  -6371461.07845  23279857.4304                   23279855.7774
  -7443233.39547  -5792660.50045  22431566.1024                   22431565.6954
  -9529001.70347  -7409202.07445  22245095.9694                   22245093.8634
  -8902524.89548  -6920137.78546  20333619.0394                   20333617.7304
  -9528080.30547  -7412813.17644  22853127.7974                   22853128.3674
 -17033611.49248 -13256423.43446  21210632.7034                   21210629.7234
 11  7 25  1  6 30.0000000  0  8G10G28G12G09G17G04G27G02
 -13522937.32047 -10521526.16045  21974404.8754                   21974404.3364
   1278718.28147   1021588.76644  23410789.8444                   23410788.5824
  -8262290.65247  -6429577.79345  23265663.8594                   23265663.7774
  -7387483.00447  -5749218.67245  22442174.0704                   22442174.5784
  -9470275.41847  -7363441.32446  22256271.1564                   22256268.9614
  -8844798.62548  -6875156.27746  20344604.2974                   20344602.7774
  -9472408.75047  -7369432.77044  22863722.5004                   22863722.9454
 -17059775.61348 -13276811.03546  21205653.6564                   21205650.6214
 11  7 25  1  7  0.0000000  0  8G10G28G12G09G17G04G27G02
 -13576282.69147 -10563093.94145  21964253.9844                   21964253.3794
   1384525.28947   1104035.74244  23430924.5704                   23430924.6334
  -8336726.40647  -6487579.63345  23251499.3674                   23251498.2894
  -7331195.17647  -5705358.03945  22452885.6954                   22452885.2544
  -9411448.05147  -7317601.83245  22267465.0634                   22267463.1214
  -8786639.39548  -6829837.39146  20355671.7034                   20355670.3444
  -9416362.14547  -7325760.11345  22874387.6954                   22874388.0984
 -17085568.26648 -13296909.18046  21200745.5554                   21200742.0204
 11  7 25  1  7 30.0000000  0  8G10G28G12G09G17G04G27G02
 -15204659.15647 -11831958.66045  21654383.5944                   21654383.2894
    -84795.78947    -40889.79744  23151322.1334                   23151321.7504
  -9986437.72747  -7773068.95745  22937569.8054                   22937568.7034
  -8849793.64147  -6888681.52344  22163906.3594                   22163905.7894
 -10927940.52747  -8499284.26645  21978885.9844                   21978883.7894
 -10303470.66448  -8011783.84446  20067028.6724                   20067026.7034
 -10935363.87547  -8509397.81245  22585331.7344                   22585330.9494
 -18686413.14848 -14544320.75846  20896114.7814                   20896111.4804
 11  7 25  1  8  0.0000000  0  8G10G28G12G09G17G04G27G02
 -15257214.71148 -11872910.99645  21644382.8594                   21644381.3954
     21592.18847     42009.87144  23171566.7034                   23171566.4964
 -10060571.63747  -7830835.61345  22923462.1024                   22923461.6644
  -8792438.76147  -6843989.44344  22174820.2194                   22174819.4224
 -10868910.81647  -8453287.09845  21990118.5704                   21990117.0394
 -10244452.68048  -7965795.81246  20078259.2584                   20078257.1914
 -10878574.07847  -8465146.03545  22596138.1334                   22596138.4774
 -18711463.03948 -14563840.13746  20891348.1884                   20891344.2424
 11  7 25  1  8 30.0000000  0  8G10G28G12G09G17G04G27G02
 -15309364.95348 -11913547.51245  21634458.4694                   21634457.2504
    128274.41847    125138.84844  23191868.5314                   23191868.0594
 -10134545.21947  -7888477.32845  22909385.8754                   22909385.9224
  -8734548.04747  -6798879.78544  22185837.1024                   22185835.6174
 -10809773.28947  -8407205.90245  22001372.8134                   22001371.8054
 -10185002.37548  -7919470.91846  20089571.6644                   20089570.1414
 -10821409.68047  -8420602.35545  22607015.9774                   22607016.6994
 -18736135.37948 -14583065.31646  20886653.2344                   20886649.3674
 11  7 25  1  9  0.0000000  0  8G10G28G12G09G17G04G27G02
 -15361104.32048 -11953863.85245  21624613.4384                   21624612.5744
    235251.48846    208497.55944  23212224.8674                   23212224.5704
 -10208354.16047  -7945990.77345  22895340.0394                   22895339.8324
  -8676121.57447  -6753352.69944  22196954.6174                   22196953.5514
 -10750525.46147  -8361038.77045  22012647.2344                   22012645.4804
 -10125120.09048  -7872809.39146  20100967.2734                   20100965.7034
 -10763870.80946  -8375766.93044  22617965.4924                   22617965.5984
 -18760428.22348 -14601994.79746  20882030.3834                   20882026.7974
 11  7 25  1  9 30.0000000  0  8G10G28G12G09G17G04G27G02
 -15412440.12948 -11993865.74645  21614844.4614                   21614842.9264
    342511.43046    292076.71543  23232635.3134                   23232635.6334
 -10282006.25447  -8003381.95745  22881324.5944                   22881324.4304
  -8617172.68047  -6707418.51245  22208172.1564                   22208171.5634
 -10691177.64147  -8314793.71545  22023940.5394                   22023938.8204
 -10064818.32848  -7825821.01246  20112442.4694                   20112440.8754
 -10705970.16846  -8330649.54345  22628983.5314                   22628984.5514
 -18784351.87548 -14620636.58246  20877478.1954                   20877474.3714
 11  7 25  1 10  0.0000000  0  8G10G28G12G09G17G04G27G02
 -15463362.77048 -12033545.68045  21605154.6804                   21605153.4654
    450059.28546    375880.21543  23253101.2734                   23253100.2154
 -10355492.22347  -8060643.74645  22867340.7114                   22867340.3754
  -8557696.66447  -6661073.58245  22219490.2734                   22219489.5204
 -10631722.28547  -8268464.86745  22035254.7114                   22035252.9694
 -10004092.22748  -7778501.98047  20123998.3134                   20123996.4344
 -10647702.87547  -8285246.48845  22640071.3444                   22640071.6174
 -18807899.20348 -14638985.12546  20872996.9224                   20872993.1684
 11  7 25  1 10 30.0000000  0  8G10G28G12G09G17G04G27G02
 -15513870.93448 -12072902.63745  21595542.7274                   21595541.5784
    557891.96146    459905.64543  23273621.6414                   23273619.9884
 -10428811.30147  -8117775.44945  22853388.7974                   22853388.0234
  -8497697.84847  -6614321.25845  22230908.1954                   22230907.7584
 -10572161.07447  -8222053.54745  22046589.0164                   22046586.4924
  -9942945.93448  -7730855.52046  20135633.8674                   20135632.6954
 -10589073.01647  -8239560.90245  22651228.8134                   22651228.4884
 -18831072.27748 -14657042.05146  20868587.0944                   20868583.8054
 11  7 25  1 11  0.0000000  0  8G10G28G12G09G17G04G27G02
 -15563961.09447 -12111933.88345  21586010.6094                   21586009.6254
    666008.44546    544152.25443  23294195.0084                   23294194.4414
 -10501960.79747  -8174775.01645  22839468.7584                   22839467.3484
  -8437178.27747  -6567163.18045  22242424.0634                   22242424.6564
 -10512493.16847  -8175559.08245  22057942.9304                   22057941.0634
  -9881381.30948  -7682883.09046  20147349.2274                   20147348.5434
 -10530082.36347  -8193594.18445  22662454.2734                   22662454.2664
 -18853870.54348 -14674806.90246  20864248.7584                   20864245.1174
 11  7 25  1 11 30.0000000  0  8G10G28G12G09G17G04G27G02
 -15613632.72748 -12150638.99645  21576558.0784                   21576557.4924
    774404.42646    628616.61343  23314822.6174                   23314821.2934
 -10574941.14547  -8231642.78945  22825581.5004                   22825579.9184
  -8376143.29747  -6519603.47745  22254038.5234                   22254038.5984
 -10452720.58647  -8128983.05145  22069317.8054                   22069315.3874
  -9819402.86348  -7634588.20746  20159143.1564                   20159141.8554
 -10470735.71947  -8147350.08245  22673747.6414                   22673747.7624
 -18876296.79348 -14692281.89546  20859981.5394                   20859977.8094
 11  7 25  1 12  0.0000000  0  8G10G28G12G09G17G04G27G02
 -15662882.21148 -12189015.16845  21567186.6414                   21567185.3054
    883079.33246    713298.36343  23335502.2664                   23335501.0354
 -10647748.62147  -8288375.82045  22811726.5474                   22811725.6024
  -8314594.32047  -6471643.26645  22265750.8134                   22265751.6524
 -10392842.05147  -8082324.48045  22080712.3524                   22080710.1054
  -9757012.04348  -7585972.00046  20171015.8284                   20171014.0044
 -10411034.02347  -8100829.30945  22685108.4384                   22685107.9844
 -18898349.96148 -14709466.17246  20855784.8284                   20855781.0634
 11  7 25  1 12 30.0000000  0  8G10G28G12G09G17G04G27G02
 -15711703.94147 -12227058.02745  21557896.4064                   21557894.6724
    992033.87147    798197.96143  23356235.6804                   23356235.4144
 -10720378.99247  -8344970.88345  22797905.0704                   22797903.4344
  -8252531.96947  -6423283.02045  22277561.0554                   22277561.0704
 -10332855.17247  -8035581.48045  22092127.3054                   22092125.6604
  -9694208.91048  -7537034.49246  20182967.0234                   20182964.8754
 -10350977.46547  -8054032.01645  22696536.3284                   22696537.3164
 -18920027.88748 -14726358.04746  20851659.5314                   20851655.7384
 11  7 25  1 13  0.0000000  0  8G10G28G12G09G17G04G27G02
 -15760092.96547 -12264763.71545  21548687.8524                   21548686.5984
   1101268.77746    883316.02744  23377023.1884                   23377022.3914
 -10792827.18047  -8401423.93745  22784119.3914                   22784117.4884
  -8189956.42647  -6374522.85545  22289468.8834                   22289468.2814
 -10272756.93747  -7988751.71145  22103563.6334                   22103562.1094
  -9630993.25448  -7487775.54746  20194996.2974                   20194994.7934
 -10290565.84447  -8006958.02345  22708032.4384                   22708032.8594
 -18941328.21148 -14742955.68746  20847606.1484                   20847602.7464
 11  7 25  1 13 30.0000000  0  8G10G28G12G09G17G04G27G02
 -15808052.00847 -12302134.35245  21539561.2274                   21539560.2424
   1210776.30546    968646.53943  23397860.9924                   23397862.0204
 -10865096.15647  -8457737.41845  22770366.2814                   22770365.1684
  -8126875.76247  -6325369.10245  22301473.0864                   22301471.3524
 -10212552.74247  -7941839.38345  22115020.2344                   22115018.2424
  -9567372.97348  -7438201.32046  20207103.1414                   20207101.8284
 -10229807.08647  -7959613.55944  22719595.0084                   22719595.5164
 -18962256.97348 -14759263.78146  20843623.4774                   20843620.3404
 11  7 25  1 14  0.0000000  0  8G10G28G12G09G17G04G27G02
 -15855575.82847 -12339165.84445  21530517.9774                   21530516.6764
   1320557.27746   1054190.15643  23418751.8834                   23418751.5434
 -10937182.01647  -8513908.12545  22756648.8134                   22756648.1954
  -8063290.58247  -6275822.19545  22313573.1564                   22313571.5904
 -10152240.04348  -7894842.51245  22126496.9924                   22126495.7624
  -9503348.15248  -7388311.87146  20219286.3984                   20219285.0084
 -10168701.39547  -7911998.75445  22731222.8444                   22731222.9844
 -18982811.99648 -14775280.65246  20839712.2034                   20839708.9734
 11  7 25  1 14 30.0000000  0  8G10G28G12G09G17G04G27G02
 -15902664.37947 -12375858.16445  21521557.0554                   21521556.7504
   1430607.67646   1139943.71543  23439694.1804                   23439694.2154
 -11009084.61747  -8569936.09045  22742966.6724                   22742964.4104
  -7999206.30547  -6225886.39845  22325767.0634                   22325766.5594
 -10091821.11348  -7847762.84445  22137994.8204                   22137992.5864
  -9438923.84448  -7338111.11746  20231545.8984                   20231544.6954
 -10107253.54747  -7864117.35244  22742915.6884                   22742915.8014
 -19002996.02048 -14791008.45346  20835871.3134                   20835868.1724
 11  7 25  1 15  0.0000000  0  8G10G28G12G09G17G04G27G02
 -15949317.61748 -12412211.27745  21512679.6884                   21512678.6954
   1540922.87546   1225903.63343  23460686.2814                   23460685.7734
 -11080804.35247  -8625821.52745  22729318.2974                   22729316.9064
  -7934628.33247  -6175565.90645  22338055.6174                   22338056.4534
 -10031298.40247  -7800602.32845  22149511.7664                   22149509.9534
  -9374105.00448  -7287602.93446  20243880.8524                   20243879.5164
 -10045468.73047  -7815973.40644  22754673.3594                   22754673.7544
 -19022811.97348 -14806449.43446  20832100.2034                   20832096.7774
 11  7 25  1 15 30.0000000  0  8G10G28G12G09G17G04G27G02
 -15995526.12148 -12448217.85545  21503886.2504                   21503885.5984
   1651507.33646   1312073.34443  23481729.2504                   23481729.0514
 -11152332.52047  -8681557.73445  22715707.0314                   22715704.5354
  -7869553.27747  -6124858.07045  22350439.4774                   22350440.0664
  -9970665.27047  -7753355.76645  22161049.7424                   22161048.2734
  -9308887.50048  -7236784.10946  20256291.6414                   20256289.9304
  -9983343.06247  -7767563.80545  22766495.6644                   22766495.8914
 -19042253.45748 -14821598.62946  20828400.5234                   20828396.9734
 11  7 25  1 16  0.0000000  0  8G10G28G12G09G17G04G27G02
 -16041284.73447 -12483873.86345  21495178.2584                   21495177.7664
   1762361.53146   1398453.24243  23502824.4384                   23502823.7854
 -11223664.35547  -8737140.94945  22702133.4064                   22702131.6804
  -7803981.49647  -6073763.16445  22362918.0474                   22362917.1884
  -9909919.10547  -7706021.11745  22172609.7034                   22172607.6414
  -9243271.53148  -7185654.78946  20268777.3444                   20268776.0864
  -9920876.50847  -7718888.61345  22778382.8204                   22778383.1724
 -19061318.61348 -14836454.57046  20824772.5704                   20824768.8524
 11  7 25  1 16 30.0000000  0  8G10G28G12G09G17G04G27G02
 -16086599.83648 -12519184.28145  21486555.2114                   21486554.1914
   1873474.68046   1485034.85943  23523968.8364                   23523968.2814
 -11294806.97747  -8792576.71945  22688594.7034                   22688593.7304
  -7737925.33647  -6022290.82045  22375487.5864                   22375487.9304
  -9849068.79347  -7658605.32045  22184188.8754                   22184187.6844
  -9177268.79348  -7134224.09846  20281337.7424                   20281335.5784
  -9858080.79347  -7669956.91844  22790332.2974                   22790332.4884
 -19080017.12548 -14851024.82046  20821214.4454                   20821210.7114
 11  7 25  1 17  0.0000000  0  8G10G28G12G09G17G04G27G02
 -16131460.43748 -12554140.54745  21478018.5314                   21478018.0434
   1984853.46546   1571823.50043  23545163.3444                   23545162.2734
 -11365749.16447  -8847856.28945  22675094.8284                   22675094.4884
  -7671379.03947  -5970436.54345  22388150.5394                   22388150.5984
  -9788105.34847  -7611101.35945  22195789.9064                   22195788.7034
  -9110873.05148  -7082487.15646  20293972.0864                   20293971.1804
  -9794949.56647  -7620763.80945  22802345.2894                   22802345.5044
 -19098340.44948 -14865302.70746  20817727.7034                   20817724.0784
 11  7 25  1 17 30.0000000  0  8G10G28G12G09G17G04G27G02
 -16175865.23047 -12588741.64145  21469568.5634                   21469567.3984
   2096494.16846   1658816.19543  23566407.6644                   23566407.0124
 -11436490.48847  -8902979.35545  22661633.4064                   22661632.0044
  -7604347.23047  -5918203.97345  22400906.2114                   22400906.6884
  -9727030.07447  -7563510.26245  22207411.8914                   22207410.7974
  -9044088.45748  -7030447.22746  20306680.8914                   20306679.1414
  -9731487.19947  -7571312.67244  22814421.6954                   22814421.8914
 -19116290.63748 -14879289.83646  20814311.7974                   20814308.5204
 11  7 25  1 18  0.0000000  0  8G10G28G12G09G17G04G27G02
 -16219808.27048 -12622982.92245  21461206.2274                   21461205.6414
   2208398.85247   1746014.65643  23587703.1334                   23587702.2504
 -11507024.87947  -8957941.19145  22648210.8284                   22648210.3914
  -7536829.01247  -5865592.36745  22413755.0634                   22413755.6844
  -9665839.41447  -7515829.24245  22219056.6884                   22219054.9304
  -8976913.70348  -6978103.26646  20319463.9144                   20319462.0944
  -9667692.60247  -7521602.64844  22826561.6484                   22826562.2274
 -19133864.30548 -14892983.57446  20810967.4384                   20810964.1804
 11  7 25  1 18 30.0000000  0  8G10G28G12G09G17G04G27G02
 -16263290.68747 -12656865.28145  21452931.9454                   21452930.8634
   2320561.27047   1833413.90243  23609046.0634                   23609045.6564
 -11577354.30147  -9012743.30545  22634827.9224                   22634826.9184
  -7468831.46947  -5812607.28945  22426694.3204                   22426694.5664
  -9604536.88747  -7468061.04745  22230721.4144                   22230721.0124
  -8909355.25048  -6925460.31246  20332319.5784                   20332318.1214
  -9603572.35947  -7471638.87144  22838763.1884                   22838763.8954
 -19151066.07048 -14906387.51646  20807694.3204                   20807690.7544
 11  7 25  1 19  0.0000000  0  8G10G28G12G09G17G04G27G02
 -16306307.04347 -12690384.48445  21444746.2034                   21444744.2114
   2432982.53146   1921014.87943  23630439.4534                   23630439.1524
 -11647473.62147  -9067381.66845  22621484.4144                   22621483.0944
  -7400354.90247  -5759248.94545  22439724.9454                   22439724.6484
  -9543119.77747  -7420203.57446  22242408.9384                   22242408.6174
  -8841412.87148  -6872518.19546  20345248.9064                   20345247.4224
  -9539126.26247  -7421421.19144  22851026.9144                   22851027.3404
 -19167893.50448 -14919499.78946  20804491.8754                   20804488.3754
 11  7 25  1 19 30.0000000  0  8G10G28G12G09G17G04G27G02
 -16348859.96547 -12723542.57045  21436648.9844                   21436647.4064
   2545655.96947   2008812.36343  23651880.5784                   23651879.6524
 -11717385.52047  -9121858.42245  22608180.5554                   22608178.6524
  -7331407.13347  -5705523.43445  22452845.6564                   22452845.0234
  -9481592.66848  -7372260.38746  22254117.9144                   22254116.3794
  -8773094.21148  -6819282.87146  20358249.0864                   20358248.5004
  -9474361.62947  -7370955.32044  22863351.1334                   22863351.1294
 -19184352.02748 -14932324.58246  20801360.1484                   20801356.2814
 11  7 25  1 20  0.0000000  0  8G10G28G12G09G17G04G27G02
 -16390946.65247 -12756337.35945  21428640.3134                   21428638.4344
   2658579.11747   2096804.40643  23673368.5944                   23673368.4574
 -11787087.36747  -9176171.52045  22594917.0004                   22594914.7344
  -7261991.14847  -5651433.06245  22466054.6484                   22466054.8284
  -9419955.34047  -7324231.33246  22265847.0004                   22265845.7114
  -8704401.43448  -6765756.02746  20371321.2194                   20371319.9184
  -9409281.15647  -7320243.34044  22875736.0704                   22875735.3874
 -19200441.88348 -14944862.10946  20798298.2504                   20798294.3014
 11  7 25  1 20 30.0000000  0  8G10G28G12G09G17G04G27G02
 -16432564.98847 -12788767.19545  21420720.3364                   21420718.8984
   2771749.82046   2184989.38743  23694904.4304                   23694903.3794
 -11856577.29747  -9230319.49245  22581693.9774                   22581691.2894
  -7192110.57447  -5596980.68445  22479353.4224                   22479352.1644
  -9358207.69548  -7276116.29345  22277596.8834                   22277595.5044
  -8635337.49648  -6711939.97346  20384463.1884                   20384461.8284
  -9343887.77347  -7269287.51244  22888180.0234                   22888179.1374
 -19216164.03948 -14957113.10946  20795306.6174                   20795302.4064
 11  7 25  1 21  0.0000000  0  8G10G28G12G09G17G04G27G02
 -16473706.43747 -12820825.43445  21412891.0084                   21412890.4384
   2885171.88746   2273370.23043  23716488.1804                   23716486.3754
 -11925847.45347  -9284296.22745  22568511.7974                   22568509.5594
  -7121762.59047  -5542164.07445  22492739.6024                   22492739.0514
  -9296343.63747  -7227910.54345  22289369.6094                   22289367.9924
  -8565899.22348  -6657832.23846  20397676.8594                   20397675.6644
  -9278178.07447  -7218085.21544  22900684.5004                   22900683.9304
 -19231513.17248 -14969073.44946  20792385.2424                   20792381.8284
 11  7 25  1 21 30.0000000  0  8G10G28G12G09G17G04G27G02
 -16514365.75847 -12852507.95745  21405154.2274                   21405152.8014
   2998846.34446   2361947.73043  23738119.8284                   23738118.7704
 -11994892.68747  -9338097.68045  22555372.6644                   22555369.9104
  -7050947.60247  -5486983.58645  22506214.8444                   22506215.1994
  -9234360.57447  -7179612.05945  22301164.2504                   22301162.6724
  -8496086.48048  -6603432.68746  20410962.1334                   20410960.3524
  -9212152.07847  -7166636.44544  22913249.0474                   22913248.2854
 -19246486.79348 -14980741.17246  20789536.0314                   20789532.9344
 11  7 25  1 22  0.0000000  0  8G10G28G12G09G17G04G27G02
 -16554541.32447 -12883813.54745  21397508.8134                   21397507.4344
   3112770.32046   2450719.61743  23759798.6174                   23759797.6804
 -12063711.16047  -9391722.45345  22542276.7974                   22542274.5004
  -6979669.73447  -5431442.42645  22519779.1804                   22519778.2384
  -9172258.62147  -7131220.94145  22312981.3914                   22312979.9884
  -8425902.25048  -6548743.68046  20424317.5234                   20424315.9574
  -9145813.24647  -7114943.90244  22925873.1414                   22925872.9264
 -19261085.97748 -14992117.13346  20786757.9534                   20786754.9884
 11  7 25  1 22 30.0000000  0  8G10G28G12G09G17G04G27G02
 -16594231.57847 -12914740.97345  21389956.0314                   21389954.1604
   3226941.43846   2539684.03143  23781525.0634                   23781523.7504
 -12132301.78147  -9445169.67645  22529224.2894                   22529222.4184
  -6907932.80947  -5375543.56245  22533429.7584                   22533430.0394
  -9110038.57047  -7082737.76645  22324821.5314                   22324820.8444
  -8355349.98848  -6493767.87946  20437743.6884                   20437742.2074
  -9079164.96947  -7063010.22344  22938555.3054                   22938554.8244
 -19275312.29748 -15003202.55546  20784050.7194                   20784047.2424
 11  7 25  1 23  0.0000000  0  8G10G28G12G09G17G04G27G02
 -16633441.42247 -12945294.05945  21382494.3524                   21382492.7854
   3341349.02746   2628832.72743  23803296.4924                   23803295.4694
 -12200670.13747  -9498443.67245  22516214.2504                   22516212.4924
  -6835747.75847  -5319295.51645  22547166.5864                   22547166.3094
  -9047708.09047  -7034168.55945  22336682.8984                   22336681.5204
  -8284440.26248  -6438513.54746  20451236.7114                   20451235.5124
  -9012217.85947  -7010843.69544  22951294.8834                   22951295.2624
 -19289174.43748 -15014004.19546  20781412.8834                   20781409.1414
 11  7 25  1 23 30.0000000  0  8G10G28G12G09G17G04G27G02
 -16672159.53547 -12975463.97345  21375126.4614                   21375125.3244
   3456000.58246   2718171.46943  23825114.8594                   23825113.7504
 -12268804.39847  -9551535.30545  22503248.7974                   22503247.0904
  -6763108.34847  -5262693.39545  22560989.4694                   22560988.9024
  -8985257.61747  -6985505.85545  22348566.7664                   22348564.3714
  -8213166.05148  -6382975.19146  20464799.9694                   20464798.2584
  -8944965.30547  -6958439.18044  22964092.3834                   22964092.6764
 -19302663.42648 -15024515.07446  20778845.9224                   20778841.8794
 11  7 25  1 24  0.0000000  0  8G10G28G12G09G17G04G27G02
 -16710385.84047 -13005250.66445  21367852.0554                   21367851.0004
   3570891.69546   2807696.94143  23846976.2894                   23846977.6254
 -12336704.61747  -9604444.56645  22490327.9774                   22490326.4614
  -6690020.05147  -5205741.49645  22574897.5704                   22574896.8674
  -8922689.17648  -6936751.22745  22360473.2114                   22360471.5594
  -8141532.34848  -6327156.73046  20478431.5164                   20478430.0944
  -8877412.39847  -6905800.59044  22976947.1254                   22976948.5904
 -19315782.02748 -15034737.33246  20776349.4774                   20776345.4774
 11  7 25  1 24 30.0000000  0  8G10G28G12G09G17G04G27G02
 -16748123.02748 -13034656.21146  21360671.4844                   21360670.6054
   3686015.34846   2897403.58643  23868883.7664                   23868884.4304
 -12404373.67647  -9657173.67645  22477451.5394                   22477449.2234
  -6616491.41447  -5148446.48445  22588889.3364                   22588889.0234
  -8860007.68447  -6887908.51245  22372400.9774                   22372400.0864
  -8069546.98448  -6271064.25446  20492129.8134                   20492128.4574
  -8809566.87547  -6852934.03144  22989857.9774                   22989859.5514
 -19328535.92248 -15044675.41446  20773922.4454                   20773918.3594
 11  7 25  1 25  0.0000000  0  8G10G28G12G09G17G04G27G02
 -16785367.82048 -13063678.07046  21353583.8754                   21353583.1334
   3801370.64547   2987290.76643  23890835.6804                   23890836.1524
 -12471808.12947  -9709719.98045  22464619.0474                   22464617.2424
  -6542524.72347  -5090810.18045  22602965.3364                   22602963.8244
  -8797211.68747  -6838976.55145  22384350.8524                   22384349.4304
  -7997211.26648  -6214698.75846  20505894.2894                   20505893.4574
  -8741430.28547  -6799840.65644  23002823.9454                   23002826.1564
 -19340924.55948 -15054328.87946  20771565.6174                   20771562.0554
 11  7 25  1 25 30.0000000  0  8G10G28G12G09G17G04G27G02
 -16822115.13348 -13092312.28146  21346591.1884                   21346589.8594
   3916958.11347   3077358.85943  23912831.1334                   23912831.8094
 -12539003.28547  -9762079.79745  22451831.2734                   22451830.0824
  -6468120.33247  -5032832.75044  22617123.5474                   22617122.3984
  -8734298.39848  -6789953.23045  22396322.7114                   22396321.6024
  -7924525.14848  -6158060.23046  20519726.6484                   20519725.2584
  -8673002.80947  -6746520.64144  23015845.7504                   23015846.1024
 -19352946.02348 -15063696.22346  20769277.4924                   20769274.2194
 11  7 25  1 26  0.0000000  0  8G10G28G12G09G17G04G27G02
 -16858360.20748 -13120555.14546  21339693.7734                   21339692.5314
   4032778.15247   3167608.19943  23934871.6564                   23934871.8674
 -12605954.33247  -9814249.41445  22439090.7424                   22439089.4024
  -6393279.13347  -4974514.98045  22631365.5474                   22631365.0044
  -8671265.41847  -6740836.64145  22408317.3364                   22408315.4384
  -7851488.80148  -6101148.79346  20533624.6334                   20533623.6804
  -8604284.72347  -6692974.13744  23028922.7504                   23028922.5864
 -19364598.51248 -15072776.06646  20767060.0474                   20767056.0354
 11  7 25  1 26 30.0000000  0  8G10G28G12G09G17G04G27G02
 -16894103.29348 -13148406.87146  21332891.6884                   21332890.8484
   4148825.81646   3258034.87543  23956953.6644                   23956954.5594
 -12672661.23847  -9866228.78545  22426397.5704                   22426395.5744
  -6318006.93447  -4915861.36745  22645689.6804                   22645688.7974
  -8608114.69547  -6691628.28945  22420334.2664                   22420332.7304
  -7778107.40248  -6043968.48846  20547589.0634                   20547587.5314
  -8535281.23847  -6639205.24244  23042054.0784                   23042053.8324
 -19375885.27348 -15081570.94546  20764912.3524                   20764908.2974
 11  7 25  1 27  0.0000000  0  8G10G28G12G09G17G04G27G02
 -16929338.06648 -13175862.50045  21326186.9534                   21326185.1294
   4265102.74646   3348640.29343  23979080.8914                   23979080.9144
 -12739118.03147  -9918013.27045  22413751.4224                   22413748.7114
  -6242303.55947  -4856871.76245  22660095.6884                   22660095.4264
  -8544842.46947  -6642325.28145  22432375.5634                   22432373.4924
  -7704379.78148  -5986518.39146  20561618.6954                   20561617.6994
  -8465991.55547  -6585213.34445  23055239.1254                   23055238.9144
 -19386802.97348 -15090078.21546  20762834.8984                   20762830.4734
 11  7 25  1 27 30.0000000  0  8G10G28G12G09G17G04G27G02
 -16964062.66848 -13202920.58646  21319579.0394                   21319578.0164
   4381606.86746   3439422.66043  24001251.1024                   24001251.0434
 -12805322.77347  -9969601.35545  22401153.0004                   22401150.8444
  -6166172.33647  -4797548.82445  22674582.7274                   22674583.0864
  -8481448.59047  -6592927.47745  22444438.3204                   22444436.9144
  -7630308.67648  -5928800.64146  20575714.0234                   20575713.0824
  -8396418.59447  -6531000.71545  23068478.6254                   23068478.0784
 -19397352.42648 -15098298.53946  20760827.1094                   20760822.4614
 11  7 25  1 28  0.0000000  0  8G10G28G12G09G17G04G27G02
 -16998273.23848 -13229578.13746  21313069.1564                   21313068.5164
   4498337.31646   3530381.43043  24023463.8284                   24023464.3524
 -12871271.47347 -10020989.92245  22388603.3594                   22388600.6644
  -6089614.93046  -4737893.76244  22689150.9924                   22689151.6334
  -8417931.30947  -6543433.50445  22456525.3674                   22456523.5664
  -7555895.03948  -5870815.99246  20589874.6644                   20589873.4064
  -8326563.40647  -6476568.16444  23081771.4774                   23081771.5944
 -19407532.91048 -15106231.36746  20758889.6884                   20758885.9224
 11  7 25  1 28 30.0000000  0  8G10G28G12G09G17G04G27G02
 -17031967.98848 -13255833.73446  21306657.7344                   21306656.1564
   4615291.94146   3621514.88343  24045719.7034                   24045720.0594
 -12936962.20347 -10072177.46145  22376102.8444                   22376100.1644
  -6012635.38746  -4677909.72745  22703799.5784                   22703801.1844
  -8354290.84847  -6493843.55945  22468635.8364                   22468633.9144
  -7481141.90248  -5812566.79346  20604099.5394                   20604098.0004
  -8256429.26247  -6421918.20344  23095117.5704                   23095117.3554
 -19417345.44148 -15113877.47746  20757022.3204                   20757019.1054
 11  7 25  1 29  0.0000000  0  8G10G28G12G09G17G04G27G02
 -17065147.66048 -13281687.97746  21300343.3444                   21300341.9574
   4732465.32046   3712818.78143  24068017.0394                   24068016.7114
 -13002395.97748 -10123164.78546  22363650.9924                   22363649.5984
  -5935239.73447  -4617601.45345  22718528.2734                   22718528.2504
  -8290529.57848  -6444159.48045  22480769.7664                   22480767.8914
  -7406054.94148  -5754057.48046  20618388.1024                   20618386.4574
  -8186022.26647  -6367055.68444  23108515.4774                   23108515.3914
 -19426793.86348 -15121239.87546  20755224.6024                   20755220.9104
 11  7 25  1 29 30.0000000  0  8G10G28G12G09G17G04G27G02
 -17097809.14148 -13307138.44146  21294127.9224                   21294126.2584
   4849856.44146   3804292.39143  24090356.1024                   24090355.7034
 -13067569.27747 -10173949.10945  22351248.7194                   22351247.6604
  -5857430.35247  -4556970.82445  22733335.0944                   22733335.0824
  -8226647.07047  -6394380.91045  22492926.1954                   22492923.6214
  -7330635.73848  -5695289.26646  20632739.7504                   20632738.5234
  -8115343.90247  -6311981.67244  23121965.3054                   23121965.5434
 -19435877.77348 -15128318.22746  20753495.7974                   20753492.3134
 11  7 25  1 30  0.0000000  0  8G10G28G12G09G17G04G27G02
 -17129951.84048 -13332184.66046  21288011.4064                   21288009.5004
   4967461.21546   3895932.50843  24112735.3984                   24112734.8244
 -13132481.36748 -10224529.89146  22338896.8984                   22338894.7464
  -5779212.53547  -4496021.92645  22748219.0164                   22748218.3984
  -8162644.31647  -6344508.66045  22505105.0474                   22505102.9884
  -7254888.70348  -5636265.58646  20647154.3204                   20647152.1454
  -8044398.79747  -6256699.80544  23135465.9064                   23135465.1524
 -19444599.61348 -15135114.43746  20751836.2114                   20751832.2384
 11  7 25  1 30 30.0000000  0  8G10G28G12G09G17G04G27G02
 -17161574.43748 -13356825.59046  21281993.9694                   21281992.2734
   5085276.89846   3987736.96543  24135154.9614                   24135154.4304
 -13197130.86347 -10274906.09045  22326594.3204                   22326592.1804
  -5700589.94946  -4434757.62944  22763179.8984                   22763179.9654
  -8098521.60947  -6294542.93445  22517307.4384                   22517306.1294
  -7178816.93048  -5576988.87546  20661630.3134                   20661628.1414
  -7973190.46146  -6201212.87943  23149015.8674                   23149015.4614
 -19452960.71148 -15141629.55546  20750244.8594                   20750241.0784
 11  7 25  1 31  0.0000000  0  8G10G28G12G09G17G04G27G02
 -17192673.96948 -13381058.95346  21276075.9694                   21276074.0704
   5203302.07845   4079704.70742  24157614.2894                   24157613.5124
 -13261514.60548 -10325075.19945  22314342.5394                   22314339.9964
  -5621565.60547  -4373180.23445  22778218.2894                   22778217.5004
  -8034278.13747  -6244483.09045  22529532.1644                   22529531.0274
  -7102422.35548  -5517460.62146  20676167.2974                   20676166.4774
  -7901720.94146  -6145522.39843  23162615.5784                   23162616.1604
 -19460961.12548 -15147863.62146  20748722.6884                   20748718.6374
 11  7 25  1 31 30.0000000  0  8G10G28G12G09G17G04G27G02
 -17223244.54348 -13404880.14146  21270258.2504                   21270257.3984
   5321538.20346   4171836.71942  24180113.1954                   24180113.2234
 -13325626.65247 -10375032.58645  22302141.4224                   22302140.1134
  -5542139.37947  -4311289.66845  22793332.8674                   22793332.4304
  -7969910.00847  -6194326.10245  22541781.5084                   22541779.1994
  -7025704.00448  -5457680.09046  20690766.7584                   20690765.2974
  -7829989.29746  -6089627.67644  23176265.9844                   23176265.6604
 -19468597.71548 -15153814.18746  20747269.3444                   20747265.6214
 11  7 25  1 32  0.0000000  0  8G10G28G12G09G17G04G27G02
 -17253285.59448 -13428288.71146  21264541.4924                   21264540.0864
   5439981.53945   4264130.18442  24202652.1334                   24202652.0554
 -13389466.23847 -10424777.66045  22289993.0784                   22289991.7774
  -5462316.01647  -4249089.73445  22808522.6724                   22808522.2344
  -7905418.28547  -6144072.83645  22554053.8364                   22554052.3484
  -6948665.78548  -5397650.30146  20705426.7504                   20705425.1094
  -7758000.16447  -6033532.32044  23189965.4694                   23189965.2234
 -19475872.88348 -15159483.14146  20745885.0314                   20745881.5124
 11  7 25  1 32 30.0000000  0  8G10G28G12G09G17G04G27G02
 -17282792.72348 -13451281.25446  21258926.9064                   21258925.7544
   5558632.34446   4356585.23842  24225230.2034                   24225230.1374
 -13453028.79747 -10474306.89145  22277898.1724                   22277896.1524
  -5382096.66047  -4186581.21145  22823787.9614                   22823786.3914
  -7840800.81247  -6093721.56245  22566349.9304                   22566348.7854
  -6871308.07048  -5337371.55146  20720147.0704                   20720145.8284
  -7685753.77747  -5977236.50444  23203713.8364                   23203713.5314
 -19482785.16848 -15164869.30946  20744569.6484                   20744565.9104
 11  7 25  1 33  0.0000000  0  8G10G28G12G09G17G04G27G02
 -17311761.49648 -13473854.28146  21253414.0784                   21253412.1024
   5677491.03146   4449202.40643  24247849.0314                   24247848.6604
 -13516309.05548 -10523616.16845  22265856.1254                   22265854.4964
  -5301481.98447  -4123764.61744  22839128.3984                   22839126.7664
  -7776054.00847  -6043269.50045  22578671.0084                   22578669.1914
  -6793630.69948  -5276843.72346  20734928.2734                   20734927.6024
  -7613250.32847  -5920740.36744  23217510.7344                   23217510.5984
 -19489332.43048 -15169971.03946  20743323.7344                   20743319.9924
 11  7 25  1 33 30.0000000  0  8G10G28G12G09G17G04G27G02
 -17340191.81248 -13496007.73846  21248003.7424                   21248001.8674
   5796553.07446   4541978.00043  24270506.3834                   24270505.3014
 -13579306.86347 -10572705.34046  22253867.9614                   22253865.9574
  -5220477.68447  -4060644.46545  22854542.9454                   22854542.2274
  -7711180.78147  -5992718.92645  22591016.2344                   22591013.7664
  -6715638.74648  -5216070.77346  20749770.0474                   20749769.0704
  -7540495.04347  -5864047.98044  23231355.8134                   23231356.6644
 -19495518.14548 -15174791.03546  20742146.6564                   20742143.0824
 11  7 25  1 34  0.0000000  0  8G10G28G12G09G17G04G27G02
 -17368083.55948 -13517741.51646  21242695.8914                   21242694.3914
   5915814.08246   4634908.63743  24293201.2344                   24293200.3444
 -13642022.24648 -10621574.43745  22241933.6804                   22241932.2504
  -5139089.10947  -3997224.86744  22870030.7584                   22870030.0044
  -7646182.15247  -5942070.65245  22603384.3914                   22603383.1644
  -6637336.28548  -5155055.88746  20764670.7504                   20764669.1094
  -7467492.62147  -5807162.98844  23245247.3674                   23245248.2344
 -19501344.52348 -15179331.04346  20741037.7584                   20741034.0274
 11  7 25  1 34 30.0000000  0  8G10G28G12G09G17G04G27G02
 -17395430.98048 -13539051.15646  21237492.0164                   21237490.2734
   6035276.03546   4727995.86743  24315933.6804                   24315932.5704
 -13704449.07448 -10670218.67646  22230054.5394                   22230052.5554
  -5057316.19947  -3933505.75044  22885591.2194                   22885591.5004
  -7581054.13747  -5891321.57845  22615777.8284                   22615776.3594
  -6558722.65648  -5093798.51246  20779629.8594                   20779628.3524
  -7394242.18747  -5750084.75844  23259186.6414                   23259187.2544
 -19506808.59848 -15183588.74646  20739998.2424                   20739994.4264
 11  7 25  1 35  0.0000000  0  8G10G28G12G09G17G04G27G02
 -17422239.34448 -13559940.75046  21232390.4844                   21232388.7154
   6154929.19146   4821232.06343  24338702.8054                   24338701.6914
 -13766591.71947 -10718641.49646  22218229.2114                   22218227.3014
  -4975169.39846  -3869495.30544  22901223.1644                   22901223.6604
  -7515803.76247  -5840477.12545  22628195.0004                   22628192.7814
  -6479807.46948  -5032306.16046  20794647.3054                   20794645.2074
  -7320753.92646  -5692821.19944  23273170.5704                   23273171.1054
 -19511918.64148 -15187570.56646  20739025.4774                   20739021.6914
 11  7 25  1 35 30.0000000  0  8G10G28G12G09G17G04G27G02
 -17448506.39548 -13580408.53946  21227392.0164                   21227390.8984
   6274771.64546   4914615.80543  24361509.2894                   24361506.9844
 -13828448.24248 -10766841.36746  22206458.4384                   22206456.4694
  -4892651.84047  -3805195.95745  22916926.1414                   22916926.7734
  -7450430.27747  -5789536.71945  22640635.0084                   22640634.3874
  -6400592.87948  -4970580.53946  20809721.1644                   20809719.9774
  -7247030.36747  -5635374.32043  23287200.3364                   23287200.1484
 -19516675.19948 -15191276.94946  20738120.2814                   20738116.6134
 11  7 25  1 36  0.0000000  0  7G10G12G09G17G04G27G02
 -17474221.22748 -13600446.05146  21222498.8204                   21222497.2504
 -13890006.70348 -10814808.97346  22194743.8984                   22194741.9064
  -4809757.92647  -3740603.34444  22932700.4844                   22932700.2384
  -7384924.53947  -5738493.29345  22653100.2114                   22653100.1024
  -6321072.25048  -4908616.43446  20824853.2194                   20824852.0784
  -7173065.18447  -5577739.16844  23301275.1414                   23301276.5164
 -19521069.83248 -15194701.30546  20737284.7504                   20737280.9844
 11  7 25  1 36 30.0000000  0  7G10G12G09G17G04G27G02
 -17499379.28148 -13620049.68746  21217710.8444                   21217709.7234
 -13951262.34448 -10862540.60245  22183086.9614                   22183085.3054
  -4726488.78947  -3675718.33644  22948546.3364                   22948546.5864
  -7319283.71147  -5687344.59045  22665591.2584                   22665590.7974
  -6241245.79748  -4846414.02746  20840044.1804                   20840042.5124
  -7098858.75846  -5519916.02043  23315396.5474                   23315397.0434
 -19525100.71148 -15197842.21146  20736517.0784                   20736513.4104
 11  7 25  1 37  0.0000000  0  7G10G12G09G17G04G27G02
 -17523979.03148 -13639218.27746  21213030.1254                   21213028.2934
 -14012213.06248 -10910034.62146  22171488.6024                   22171486.9654
  -4642847.75447  -3610543.57444  22964462.5164                   22964462.6294
  -7253507.53547  -5636090.42245  22678107.8754                   22678106.6054
  -6161116.12148  -4783975.33646  20855292.2114                   20855290.6524
  -7024414.25446  -5461907.32443  23329562.2344                   23329563.4774
 -19528768.98448 -15200700.58246  20735818.7034                   20735815.3714
 11  7 25  1 37 30.0000000  0  7G10G12G09G17G04G27G02
 -17548019.02048 -13657950.69546  21208455.4844                   21208453.3524
 -14072857.04347 -10957289.60945  22159947.7194                   22159946.4224
  -4558839.06646  -3545082.30544  22980448.1094                   22980448.4224
  -7187596.43047  -5584731.10245  22690650.8674                   22690649.2194
  -6080686.65648  -4721303.05546  20870597.5944                   20870596.0784
  -6949735.10946  -5403715.80943  23343773.4694                   23343774.0594
 -19532076.32448 -15203277.71146  20735189.8594                   20735185.3754
 11  7 25  1 38  0.0000000  0  7G10G12G09G17G04G27G02
 -17571495.91448 -13676244.33246  21203987.5864                   21203986.3364
 -14133190.89147 -11004302.93745  22148467.0474                   22148464.6414
  -4474465.01246  -3479336.35544  22996504.0864                   22996504.9924
  -7121548.97347  -5533265.55945  22703218.9224                   22703217.0944
  -5999958.43048  -4658397.95746  20885959.5704                   20885958.2194
  -6874822.92246  -5345342.77043  23358029.6724                   23358028.3674
 -19535021.88348 -15205572.93046  20734629.2504                   20734624.7304
 11  7 25  1 38 30.0000000  0  7G10G12G09G17G04G27G02
 -17594416.85548 -13694104.77046  21199625.8594                   21199624.7424
 -14193221.05148 -11051079.64545  22137044.4064                   22137041.3244
  -4389738.05546  -3413315.41844  23012627.2734                   23012628.4414
  -7055373.78547  -5481700.48845  22715811.7194                   22715810.0984
  -5918943.06248  -4595269.10946  20901376.1724                   20901375.0044
  -6799689.66046  -5286797.47342  23372325.2734                   23372326.3284
 -19537615.62948 -15207594.00846  20734135.8204                   20734131.2624
 11  7 25  1 39  0.0000000  0  7G10G12G09G17G04G27G02
 -17616774.31648 -13711526.13746  21195371.2194                   21195369.7974
 -14252939.30947 -11097613.33645  22125679.8204                   22125677.8014
  -4304656.14147  -3347017.86744  23028818.1564                   23028819.0164
  -6989064.65247  -5430031.03145  22728429.5634                   22728427.9304
  -5837637.46148  -4531914.11746  20916848.3674                   20916847.3164
  -6724332.40246  -5228077.51242  23386665.7814                   23386667.9964
 -19539852.81648 -15209337.25846  20733709.9454                   20733705.9734
 11  7 25  1 39 30.0000000  0  7G10G12G09G17G04G27G02
 -17638564.91448 -13728505.78146  21191224.7894                   21191223.4804
 -14312341.59047 -11143900.80545  22114375.7344                   22114373.5124
  -4219220.95347  -3280444.98444  23045076.2584                   23045076.5004
  -6922619.50447  -5378255.62145  22741073.6024                   22741071.2814
  -5756042.28148  -4468333.46946  20932374.8524                   20932373.8794
  -6648752.13346  -5169183.91843  23401050.0394                   23401051.3874
 -19541732.69948 -15210802.07447  20733352.0474                   20733348.9024
 11  7 25  1 40  0.0000000  0  7G10G12G09G17G04G27G02
 -17659786.35948 -13745041.96146  21187186.4304                   21187184.7774
 -14371425.44547 -11189940.12145  22103132.3054                   22103131.1334
  -4133435.66847  -3213599.30144  23061400.6564                   23061399.1724
  -6856037.86747  -5326373.82445  22753744.1484                   22753742.0164
  -5674159.76248  -4404528.91446  20947957.1024                   20947955.3484
  -6572951.58646  -5110118.61743  23415474.1094                   23415475.1024
 -19543255.23048 -15211988.44546  20733062.1334                   20733058.3444
 11  7 25  1 40 30.0000000  0  7G10G12G09G17G04G27G02
 -17680444.41448 -13761139.11346  21183255.1954                   21183253.9344
 -14430195.78547 -11235735.13746  22091948.5004                   22091946.6994
  -4047311.39547  -3146489.51244  23077788.9144                   23077789.4144
  -6789326.80947  -5274391.18445  22766438.7584                   22766437.1054
  -5591999.80548  -4340508.16846  20963591.8594                   20963589.6804
  -6496941.10945  -5050889.74642  23429937.7194                   23429940.2384
 -19544429.07048 -15212903.09446  20732839.0944                   20732835.0434
 11  7 25  1 41  0.0000000  0  7G10G12G09G17G04G27G02
 -17700537.99648 -13776796.42246  21179431.8524                   21179429.9614
 -14488650.82448 -11281284.48045  22080825.1024                   22080822.9414
  -3960852.12146  -3079118.74244  23094241.9614                   23094242.4104
  -6722486.94147  -5222308.17245  22779157.9614                   22779156.6294
  -5509565.76648  -4276273.85246  20979278.4304                   20979276.6294
  -6420724.37145  -4991500.12542  23444441.7894                   23444442.9344
 -19545255.76248 -15213547.25846  20732681.4924                   20732677.6484
 11  7 25  1 41 30.0000000  0  7G10G12G09G17G04G27G02
 -17720056.53148 -13792005.62946  21175717.1884                   21175715.8984
 -14546779.14147 -11326579.25846  22069763.5634                   22069761.2734
  -3874052.36747  -3011482.63745  23110759.8134                   23110760.2814
  -6655508.53547  -5170117.25445  22791903.3364                   22791901.5164
  -5426850.80948  -4211820.65246  20995018.2894                   20995016.7734
  -6344294.91846  -4931944.80942  23458985.8284                   23458986.7624
 -19545726.79748 -15213914.28546  20732592.4144                   20732588.0704
 11  7 25  1 42  0.0000000  0  7G10G12G09G17G04G27G02
 -17739002.42648 -13806768.62946  21172111.7274                   21172110.9224
 -14604583.03147 -11371621.20746  22058764.0164                   22058762.1024
  -3786919.99647  -2943587.31644  23127341.1024                   23127341.2734
  -6588395.76247  -5117821.63745  22804675.1414                   22804673.1564
  -5343862.37948  -4147154.35246  21010810.7194                   21010809.3324
  -6267660.28945  -4872229.58242  23473567.9224                   23473570.8554
 -19545848.16448 -15214008.84046  20732569.0944                   20732564.9264
 11  7 25  1 42 30.0000000  0  7G10G12G09G17G04G27G02
 -17757378.15648 -13821087.34046  21168614.8444                   21168613.9494
 -14662064.04348 -11416411.55546  22047825.7584                   22047824.0664
  -3699462.68047  -2875438.73844  23143983.1174                   23143982.5084
  -6521152.40647  -5065424.22745  22817471.3914                   22817468.9454
  -5260606.48048  -4082279.62146  21026653.7734                   21026652.5434
  -6190827.24645  -4812359.75042  23488189.4144                   23488191.5434
 -19545624.39848 -15213834.46146  20732611.0634                   20732607.6884
 11  7 25  1 43  0.0000000  0  7G10G12G09G17G04G27G02
 -17775179.35948 -13834958.38746  21165227.8754                   21165226.4064
 -14719217.41048 -11460946.59846  22036949.7344                   22036947.3484
  -3611681.28947  -2807037.66444  23160686.9844                   23160686.6094
  -6453775.69947  -5012922.93745  22830292.6484                   22830290.8364
  -5177083.29348  -4017196.62146  21042547.5704                   21042546.1724
  -6113796.406 6                  23502849.484
 -19545054.19948 -15213390.13346  20732719.3134                   20732716.2504
 11  7 25  1 43 30.0000000  0  7G10G12G09G17G04G27G02
 -17792399.58248 -13848376.71146  21161951.2034                   21161949.1024
 -14776035.77048 -11505220.59446  22026137.7814                   22026135.6294
  -3523574.41846  -2738382.99244  23177453.0634                   23177453.4454
  -6386260.21147  -4960313.49245  22843140.2974                   22843138.4454
  -5093290.44148  -3951903.50446  21058492.8834                   21058491.1334
  -6036565.582 5                  23517544.484
 -19544132.99248 -15212672.28547  20732895.4924                   20732891.7234
 11  7 25  1 44  0.0000000  0  7G10G12G09G17G04G27G02
 -17809040.89148 -13861343.92246  21158784.1174                   21158782.4574
 -14832520.28147 -11549234.46946  22015388.5554                   22015386.5744
  -3435149.37547  -2669480.42644  23194280.1884                   23194280.5124
  -6318609.18747  -4907598.42645  22856013.3754                   22856012.2384
  -5009234.12948  -3886405.10246  21074488.1254                   21074485.8754
  -5959141.129 5                  23532277.969
 -19542865.48448 -15211684.59446  20733136.4694                   20733132.1024
 11  7 25  1 44 30.0000000  0  7G10G12G09G17G04G27G02
 -17825102.37948 -13873859.32446  21155727.5554                   21155725.7854
 -14888669.23847 -11592986.85546  22004704.1954                   22004702.1644
  -3346410.29347  -2600333.16444  23211167.2274                   23211166.8524
  -6250823.19547  -4854778.18445  22868912.8914                   22868911.4024
  -4924917.32048  -3820703.71546  21090533.1414                   21090531.5394
  -5881527.137 4                  23547047.813
 -19541253.52748 -15210428.50047  20733443.2114                   20733438.6804
 11  7 25  1 45  0.0000000  0  7G10G12G09G17G04G27G02
 -17840582.04748 -13885921.35546  21152781.4694                   21152780.3094
 -14944480.21148 -11636475.88746  21994083.3984                   21994081.7814
  -3257360.15247  -2530943.50844  23228112.4924                   23228112.2074
  -6182901.16047  -4801851.92645  22881838.0474                   22881834.9734
  -4840342.03948  -3754800.89546  21106627.3134                   21106625.4144
  -5803725.69915                  23561853.977
 -19539297.28148 -15208904.13747  20733815.8204                   20733811.6094
 11  7 25  1 45 30.0000000  0  7G10G12G09G17G04G27G02
 -17855475.61748 -13897526.69546  21149947.5554                   21149946.7974
 -14999947.69148 -11679697.26246  21983528.4534                   21983526.8834
  -3168000.13747  -2461312.36344  23245117.1484                   23245117.1134
  -6114840.24647  -4748817.44945  22894789.3134                   22894787.2194
  -4755508.38748  -3688696.75446  21122770.6024                   21122768.9304
  -5725737.219 5                  23576694.125
 -19536995.39848 -15207110.45347  20734253.6334                   20734249.8444
 11  7 25  1 46  0.0000000  0  7G10G12G09G17G04G27G02
 -17869780.65648 -13908673.42646  21147225.0234                   21147223.7974
 -15055068.47347 -11722648.48046  21973039.0084                   21973037.6954
  -3078332.66847  -2391441.68045  23262180.4694                   23262180.9224
  -6046639.16447  -4695673.75445  22907767.5554                   22907766.4414
  -4670417.51648  -3622392.19146  21138962.7344                   21138961.6564
  -5647563.711 5                  23591570.383
 -19534347.61748 -15205047.22747  20734757.0634                   20734753.4964
 11  7 25  1 46 30.0000000  0  7G10G12G09G17G04G27G02
 -17883499.06648 -13919363.05946  21144614.7504                   21144613.2934
 -15109843.75048 -11765330.47346  21962615.9844                   21962613.7234
  -2988365.09047  -2321337.14545  23279300.3674                   23279301.5554
  -5978300.99247  -4642423.22345  22920772.0234                   22920769.9774
  -4585075.56248  -3555891.97346  21155202.7274                   21155201.5354
  -5569211.51615                  23606481.109
 -19531358.40248 -15202717.96147  20735326.2664                   20735322.2664
 11  7 25  1 47  0.0000000  0  7G10G12G09G17G04G27G02
 -17896623.46147 -13929589.81646  21142117.4224                   21142115.6884
 -15164265.48047 -11807736.98046  21952259.7814                   21952257.5514
  -2898094.89546  -2250996.78945  23296478.4304                   23296479.0944
  -5909819.64847  -4589061.16445  22933803.6644                   22933802.5004
  -4499479.12148  -3489193.44546  21171491.3524                   21171489.4494
                                  23621426.344
 -19528022.95748 -15200118.90247  20735960.7194                   20735956.1484
 11  7 25  1 47 30.0000000  0  7G10G12G09G17G04G27G02
 -17909159.44548 -13939358.07446  21139731.9924                   21139729.9064
 -15218338.21948 -11849871.53946  21941970.4144                   21941967.1994
  -2807532.80547  -2180428.95345  23313711.5864                   23313712.9064
  -5841201.29747  -4535592.30945  22946861.0164                   22946860.4024
  -4413637.53948  -3422303.91446  21187827.0314                   21187825.1174
  -5411972.19915                  23636400.797
 -19524349.21548 -15197256.23446  20736660.2114                   20736655.3404
 11  7 25  1 48  0.0000000  0  7G10G12G09G17G04G27G02
 -17921095.00847 -13948658.46946  21137460.3444                   21137459.5904
 -15272049.08247 -11891724.13346  21931749.4844                   21931746.4454
  -2716671.64847  -2109628.11745  23331002.2344                   23331003.1764
  -5772435.76247  -4482008.78545  22959946.6174                   22959945.0744
  -4327542.69148  -3355217.03146  21204209.6254                   21204209.0474
  -5333087.020 5                  23651413.805
 -19520327.38748 -15194122.33647  20737424.9144                   20737420.8484
 11  7 25  1 48 30.0000000  0  7G10G12G09G17G04G27G02
 -17932434.51648 -13957494.39546  21135302.4614                   21135301.1414
 -15325400.69948 -11933296.80946  21921596.6564                   21921594.0744
  -2625520.29347  -2038601.16044  23348348.6564                   23348347.9884
  -5703528.11347  -4428314.52345  22973059.4064                   22973057.6414
  -4241202.66048  -3287939.06646  21220639.8134                   21220638.2934
  -5254030.75814                  23666458.352
 -19515964.18448 -15190722.41847  20738255.5474                   20738251.4534
 11  7 25  1 49  0.0000000  0  6G10G12G09G17G04G02
 -17943179.96948 -13965867.44146  21133257.6174                   21133256.5704
 -15378394.50848 -11974590.64546  21911512.1414                   21911510.0784
  -2534085.81646  -1967353.63743  23365747.3284                   23365747.4534
  -5634481.19947  -4374511.72745  22986198.6414                   22986197.2034
  -4154623.25048  -3220474.58246  21237115.2664                   21237113.7774
 -19511263.90648 -15187059.85547  20739149.6954                   20739146.1644
 11  7 25  1 49 30.0000000  0  8G10G12G09G17G05G04G27G02
 -17953329.15248 -13973775.85546  21131326.2424                   21131324.6564
 -15431027.98048 -12015603.68746  21901496.4614                   21901494.5744
  -2442371.41846  -1895887.92243  23383199.8914                   23383200.4224
  -5565294.08647  -4320599.68445  22999365.2664                   22999363.5824
  -3384345.54715                  22878440.719
  -4067806.24648  -3152824.95346  21253636.0944                   21253634.2464
  -5095425.80915                  23696641.336
 -19506227.03948 -15183135.01247  20740108.4454                   20740104.4024
 11  7 25  1 50  0.0000000  0  8G10G12G09G17G05G04G27G02
 -17962878.68748 -13981217.02046  21129509.4454                   21129507.7074
 -15483296.03547 -12056332.01246  21891549.7734                   21891547.9924
  -2350378.61346  -1824205.26243  23400706.3204                   23400705.7234
  -5495964.29747  -4266576.48845  23012557.5634                   23012556.3984
  -3466782.660 5                  22862753.172
  -3980751.87548  -3084990.36746  21270202.0164                   21270200.4654
  -5015881.12114                  23711774.008
 -19500852.44148 -15178947.00447  20741131.4614                   20741126.9534
 11  7 25  1 50 30.0000000  0  8G10G12G09G17G05G04G27G02
 -17971830.20348 -13988192.18446  21127805.9304                   21127804.4734
 -15535199.77348 -12096776.43746  21881672.9844                   21881670.8524
  -2258113.78546  -1752310.63343  23418263.9144                   23418262.9024
  -5426494.68747  -4212444.34045  23025777.1564                   23025775.6174
  -3549030.219 5                  22847101.758
  -3893465.64548  -3016975.10546  21286812.2114                   21286810.5084
                                  23726941.516
 -19495143.98048 -15174498.84847  20742217.3204                   20742213.0664
 11  7 25  1 51  0.0000000  0  8G10G12G09G17G05G04G27G02
 -17980185.16848 -13994702.51246  21126216.0704                   21126214.3954
 -15586739.59447 -12136937.30546  21871865.2974                   21871863.2894
  -2165583.49646  -1680209.21543  23435872.3524                   23435870.8444
  -5356887.55947  -4158205.01245  23039022.9614                   23039021.8444
  -3631088.738 5                  22831486.641
  -3805953.03548  -2948783.44946  21303465.4614                   21303463.9064
  -4856330.836 4                  23742136.875
 -19489105.57848 -15169793.58247  20743366.7274                   20743362.8164
 11  7 25  1 51 30.0000000  0  9G10G25G12G09G17G05G04G27G02
 -19563351.11748 -15228338.28546  20824949.3914                   20824947.1134
  -4830012.76615                  24505812.102
 -17213323.17648 -13404405.00046  21562336.9224                   21562334.4804
  -3648196.80946  -2835492.39143  23153739.2114                   23153739.8134
  -6862548.66047  -5331447.43045  22752505.4844                   22752504.5164
  -5288366.375 5                  22516116.008
  -5293621.68448  -4108005.77046  21020371.3754                   21020369.3164
  -6351739.85515                  23457570.664
 -21058146.50048 -16392422.87147  20444788.2194                   20444784.4344
 11  7 25  1 52  0.0000000  0  9G10G25G12G09G17G05G04G27G02
 -19570494.03548 -15233904.16846  20823590.1024                   20823588.8714
  -4915405.523 5                  24489563.164
 -17264112.12548 -13443980.75846  21552672.2344                   21552669.4734
                  -3555130.50445
  -2762973.27742                  23171449.3364                   23171448.8324
  -6792649.69547  -5276980.72345  22765806.6254                   22765805.7274
                  -5370022.063 5  22500577.086
  -5205647.35548  -4039454.33646  21037112.0394   21037110.6214   23472824.164
 -21051435.74648 -16387193.71147  20446064.7274                   20446061.3014
 11  7 25  1 52 30.0000000  0  9G10G25G12G09G17G05G04G27G02
 -19577033.43448 -15238999.78146  20822345.9304                   20822344.1374
  -5000690.066 6                  24473333.000
 -17314526.50848 -13483264.66446  21543078.0864                   21543076.1134

  -3461806.14515                  23189208.227
  -6722608.73447  -5222403.33645  22779135.3914                   22779133.7704
  -5451476.36746  -4216865.24253  22485077.2974                   22485077.4654
  -5117449.90248  -3970729.05546  21053895.4064   21053893.5554   23488100.461
 -21044394.52348 -16381707.03146  20447404.6954                   20447400.7854
 11  7 25  1 53  0.0000000  0  9G10G25G12G09G17G05G04G27G02
 -19582976.96948 -15243631.07846  20821214.6334                   20821212.7584
  -5085873.094 5                  24457123.242
 -17364573.08648 -13522261.93746  21533554.4534                   21533552.8984
                                  23207016.477
  -6652434.04747  -5167721.79745  22792488.9924                   22792488.0394
  -5532735.40646  -4280183.87943  22469614.5474                   22469614.2854
  -5029040.66048  -3901838.71946  21070719.0704                   21070716.9104
  -6110848.54714                                                  23503411.773
 -21037032.56648 -16375970.43447  20448805.4534                   20448802.0984
 11  7 25  1 53 30.0000000  0  9G10G25G12G09G17G05G04G27G02
 -19588318.21948 -15247793.06246  20820198.5394                   20820196.5124
  -5170947.176 6                  24440934.648
 -17414244.05948 -13560966.53946  21524102.5394                   21524099.7704
                                  23224869.047
  -6582120.35947  -5112931.91845  22805868.6564                   22805868.2154
  -5613790.98046  -4343343.99243  22454190.0704                   22454188.7894
  -4940417.03548  -3832781.35246  21087583.9454                   21087581.7074
                                                                  23518740.719
 -21029346.31648 -16369981.13747  20450268.2424                   20450264.7814
 11  7 25  1 54  0.0000000  0  7G10G25G12G17G05G04G02
 -19593048.40248 -15251478.90246  20819298.5004                   20819295.8164
  -5255902.398 5                  24424766.969
 -17463529.64848 -13599370.85546  21514723.6484                   21514721.8284
  -6511659.41847  -5058027.29345  22819277.9534                   22819275.9414
  -5694632.98446  -4406337.64543  22438805.9774                   22438804.6054
  -4851573.67248  -3763552.76246  21104489.8984                   21104488.4494
 -21021328.71948 -16363733.64147  20451794.1334                   20451790.1214
 11  7 25  1 54 30.0000000  0  8G10G25G12G09G17G05G04G02
 -19597167.62148 -15254688.63346  20818514.1024                   20818512.0004
  -5340737.43846  -4142588.88753  24408624.5864                   24408626.2194
 -17512428.71148 -13637473.96546  21505418.4924                   21505416.3284
  -4642507.30115                  23260717.656
  -6441052.03547  -5003008.56645  22832714.0314                   22832712.5984
  -5775259.40646  -4469163.33244  22423463.2974                   22423461.6564
  -4762513.71948  -3694155.41046  21121437.3834                   21121436.5984
 -21012981.72748 -16357229.46947  20453382.7274                   20453378.4494
 11  7 25  1 55  0.0000000  0  8G10G25G12G09G17G05G04G02
 -19600679.55948 -15257425.17246  20817846.0314                   20817843.9184
  -5425454.77046  -4208602.23843  24392503.1644                   24392505.8874
 -17560943.44547 -13675277.61746  21496186.3444                   21496184.3164
                                  23278710.164
  -6370302.55147  -4947879.10245  22846176.3524                   22846175.7854
  -5855672.06646  -4531822.46144  22408160.9454                   22408159.6804
  -4673244.44948  -3624594.93446  21138425.4064                   21138423.8134
 -21004311.27348 -16350473.25446  20455032.2664                   20455028.6294
 11  7 25  1 55 30.0000000  0  8G10G25G12G09G17G05G04G02
 -19603584.53548 -15259688.76246  20817293.1724                   20817291.0704
  -5510053.49646  -4274523.21543  24376404.8594                   24376407.0784
 -17609073.13348 -13712781.22346  21487028.0164                   21487025.9184
  -4453163.063 5                  23296749.258
  -6299412.51247  -4892640.12945  22859666.9304                   22859664.7504
  -5935869.85947  -4594314.15645  22392899.7194                   22392898.4534
  -4583769.82848  -3554874.48046  21155451.4534                   21155450.2774
 -20995320.12148 -16343467.14846  20456743.3054                   20456738.8094
 11  7 25  1 56  0.0000000  0  7G10G25G12G17G05G04G02
 -19605875.65248 -15261474.02346  20816857.0554                   20816855.4264
  -5594525.33246  -4340345.29744  24360329.6804                   24360332.5864
 -17656809.35948 -13749978.23846  21477943.9534                   21477941.3714
  -6228375.03547  -4837286.24245  22873184.3834                   22873183.2774
  -6015843.94947  -4656631.54345  22377680.9304                   22377680.0274
  -4494086.19148  -3484991.14546  21172517.3594                   21172516.3244
 -20986003.27048 -16336207.24247  20458516.4384                   20458511.9694
 11  7 25  1 56 30.0000000  0  7G10G25G12G17G05G04G02
 -19607550.27748 -15262778.89546  20816538.8134                   20816536.5434
  -5678866.31346  -4406065.45344  24344280.0164                   24344282.5904
 -17704148.10948 -13786865.53546  21468935.4224                   21468932.8404
  -6157188.55547  -4781816.22345  22886731.1484                   22886729.6844
  -6095589.95347  -4718771.19145  22362506.4774                   22362505.1374
  -4404194.09848  -3414945.38346  21189623.3674                   21189622.3094
 -20976360.02748 -16328693.00447  20460351.2894                   20460347.0704
 11  7 25  1 57  0.0000000  0  7G10G25G12G17G05G04G02
 -19608602.32448 -15263598.63346  20816338.1954                   20816336.5514
  -5763068.76646  -4471677.68044  24328256.9774                   24328259.5274
 -17751082.13348 -13823437.46946  21460004.5084                   21460001.9964
  -6085847.08246  -4726225.46145  22900306.5554                   22900305.1174
  -6175099.53947  -4780726.65245  22347376.0084                   22347375.0394
  -4314090.69547  -3344734.96546  21206769.8674                   21206768.5744
 -20966386.33248 -16320921.26247  20462249.0554                   20462245.0554
 11  7 25  1 57 30.0000000  0  7G10G25G12G17G05G04G02
 -19609041.31648 -15263940.65646  20816254.8364                   20816252.7624
  -5847141.17246  -4537188.55544  24312258.8674                   24312261.2344
 -17797620.01648 -13859700.73846  21451148.3134                   21451145.5514
  -6014361.26247  -4670522.19944  22913909.7814                   22913908.0594
  -6254380.89847  -4842504.25845  22332288.7344                   22332288.3594
  -4223788.93448  -3274369.98446  21223953.4534                   21223951.9454
 -20956094.09848 -16312901.30147  20464207.6954                   20464203.6644
 11  7 25  1 58  0.0000000  0  7G10G25G12G17G05G04G02
 -19608854.53548 -15263795.06646  20816290.2814                   20816288.0944
  -5931069.25446  -4602587.10544  24296288.3364                   24296290.5514
 -17843747.34848 -13895644.08646  21442370.7814                   21442367.8204
  -5942718.77347  -4614696.88344  22927543.3444                   22927541.5234
  -6333419.14847  -4904092.43746  22317248.4144                   22317248.2814
  -4133279.13348  -3203842.88346  21241177.1804                   21241175.2154
 -20945472.27748 -16304624.52047  20466228.9534                   20466224.9734
 11  7 25  1 58 30.0000000  0  7G10G25G12G17G05G04G02
 -19608046.28948 -15263165.22346  20816443.4924                   20816441.7584
  -6014855.79746  -4667875.39144  24280344.1024                   24280346.4344
 -17889467.09847 -13931269.84846  21433669.9844                   21433667.5704
  -5870924.46147  -4558753.26644  22941205.3134                   22941203.1134
  -6412216.53947  -4965492.92646  22302253.5394                   22302253.5824
  -4042569.05548  -3133159.71946  21258438.4224                   21258436.6294
 -20934527.32448 -16296095.94547  20468311.9844                   20468307.7114
 11  7 25  1 59  0.0000000  0  8G10G25G12G17G05G04G27G02
 -19606618.73448 -15262052.79746  20816715.6094                   20816713.7664
  -6098501.52746  -4733053.99244  24264427.1414                   24264428.9024
 -17934780.11348 -13966578.68046  21425048.0864                   21425045.4884
  -5798981.03547  -4502693.42244  22954895.0784                   22954892.8284
  -6490773.68447  -5026706.19546  22287304.9454                   22287304.0634
  -3951664.02348  -3062324.63746  21275737.2504                   21275735.4734
  -4666190.73015                  23689006.453
 -20923263.34448 -16287318.78147  20470455.2194                   20470451.0514
 11  7 25  1 59 30.0000000  0  8G10G25G12G17G05G04G27G02
 -19604574.19947 -15260459.61746  20817104.7274                   20817102.4104
  -6182007.27346  -4798123.55144  24248535.9844                   24248538.4024
 -17979687.17248 -14001571.18746  21416502.3134                   21416499.8404
  -5726891.20347  -4446519.50444  22968613.7504                   22968611.1684
  -6569090.68047  -5087732.35546  22272401.3754                   22272400.2154
  -3860569.35547  -2991341.79346  21293071.6954                   21293070.4734
  -4584150.602 5                  23704620.086
 -20911684.21948 -16278296.05547  20472658.4384                   20472654.7344
 11  7 25  2  0  0.0000000  0  8G10G25G12G17G05G04G27G02
 -19601911.35948 -15258384.64546  20817611.4694                   20817609.8324
  -6265369.75846  -4863081.49644  24232672.8054                   24232675.2774
 -18024185.64548 -14036245.33646  21408034.4384                   21408031.2194
  -5654654.25047  -4390230.95744  22982359.4304                   22982357.5784
  -6647164.10547  -5148568.70746  22257544.6804                   22257543.3954
  -3769286.75047  -2920212.53546  21310442.4774                   21310442.1684
  -4502009.426 5                  23720247.141
 -20899791.15648 -16269028.69147  20474921.7584                   20474917.4184
 11  7 25  2  0 30.0000000  0  8G10G25G12G17G05G04G27G02
 -19598621.64548 -15255821.19146  20818237.2584                   20818235.1334
  -6348579.03946  -4927920.03543  24216839.7814                   24216840.5124
 -18068265.54748 -14070593.31246  21399646.1174                   21399643.7114
  -5582262.09447  -4333821.46145  22996135.9304                   22996134.4144
  -6724983.42247  -5209207.03945  22242735.7584                   22242734.1484
  -3677810.83248  -2848932.61746  21327849.8284                   21327848.3134
  -4419763.03514                  23735899.023
 -20887577.44148 -16259511.48447  20477245.9064                   20477241.8324
 11  7 25  2  1  0.0000000  0  7G10G25G12G17G05G04G02
 -19594709.13348 -15252772.44146  20818982.2974                   20818980.2034
  -6431637.12946  -4992640.73043  24201033.8754                   24201034.8554
 -18111928.98848 -14104616.77046  21391337.2274                   21391335.6644
  -5509718.78547  -4277294.20344  23009939.8754                   23009939.3094
  -6802550.52747  -5269648.85945  22227975.6414                   22227973.7384
  -3586148.33648  -2777507.30946  21345292.4774                   21345291.1954
 -20875048.39148 -16249748.55947  20479629.8754                   20479626.0824
 11  7 25  2  1 30.0000000  0  7G10G25G12G17G05G04G02
 -19590176.20348 -15249240.27346  20819844.3284                   20819842.6844
  -6514544.79746  -5057244.19143  24185256.6884                   24185257.9844
 -18155177.19148 -14138316.66846  21383107.4064                   21383105.5084
  -5437027.07847  -4220651.34044  23023772.7424                   23023770.2934
  -6879865.72347  -5329894.39145  22213263.0784                   22213260.8554
  -3494304.60248  -2705940.78946  21362769.9144                   21362768.8134
 -20862208.42248 -16239743.35547  20482073.1644                   20482068.8324
 11  7 25  2  2  0.0000000  0  7G10G25G12G17G05G04G02
 -19585019.30148 -15245221.86746  20820825.6724                   20820823.7774
  -6597296.85247  -5121726.33644  24169509.4844                   24169511.6524
 -18198005.07448 -14171689.05946  21374957.6804                   21374955.5864
  -5364184.18046  -4163890.63744  23037634.3054                   23037632.6914
  -6956923.47347  -5389939.31245  22198599.1334                   22198597.0634
  -3402279.40648  -2634232.82046  21380281.8204                   21380280.9804
 -20849055.81648 -16229494.54747  20484576.0314                   20484572.0864
 11  7 25  2  2 30.0000000  0  7G10G25G12G17G05G04G02
 -19579234.00448 -15240713.82846  20821926.5704                   20821924.6054
  -6679887.10246  -5186082.39843  24153793.5084                   24153794.5004
 -18240406.45348 -14204729.09846  21366889.1954                   21366887.0164
  -5291185.91447  -4107008.84844  23051525.3984                   23051524.0944
  -7033717.09447  -5449778.44945  22183985.4144                   22183983.5004
  -3310070.98448  -2562382.09446  21397828.6334                   21397827.5354
 -20835588.14148 -16219000.24247  20487138.8984                   20487134.8484
 11  7 25  2  3  0.0000000  0  8G10G25G12G17G05G04G27G02
 -19572821.01248 -15235716.67246  20823147.2424                   20823145.0664
  -6762314.43846  -5250311.54344  24138107.3674                   24138109.7544
 -18282380.66048 -14237436.27346  21358901.5084                   21358899.1524
  -5218033.16847  -4050006.71145  23065446.6954                   23065444.9534
  -7110245.10947  -5509410.59445  22169423.1334                   22169420.9264
  -3217682.80948  -2490391.29345  21415409.0634                   21415407.9734
  -4659565.45715                  23814421.547
 -20821807.66848 -16208262.19947  20489761.0554                   20489757.3914
 11  7 25  2  3 30.0000000  0  8G10G25G12G17G05G04G27G02
 -19565783.07048 -15230232.53546  20824486.0784                   20824483.9924
  -6844579.84046  -5314414.42244  24122453.5084                   24122455.0704
 -18323928.56648 -14269811.24646  21350995.0784                   21350992.6294
  -5144729.16046  -3992886.69945  23079395.1484                   23079395.1564
  -7186508.39847  -5568836.44945  22154910.3674                   22154908.6684
  -3125120.81348  -2418265.05146  21433023.3834                   21433022.6884
  -4576774.539 5                  23830176.250
 -20807719.05548 -16197284.03947  20492442.0004                   20492438.8914
 11  7 25  2  4  0.0000000  0  8G10G25G12G17G05G04G27G02
 -19558114.87548 -15224257.29746  20825945.3754                   20825943.4924
  -6926675.85246  -5378385.28143  24106831.1414                   24106833.0864
 -18365043.59048 -14301848.90646  21343171.2814                   21343169.0634
  -5071268.15646  -3935644.35944  23093373.9454                   23093373.6804
  -7262499.32447  -5628050.04745  22140449.8054                   22140448.1454
  -3032381.96948  -2346001.00846  21450671.2114                   21450670.2034
  -4493899.586 5                  23845947.234
 -20793318.50848 -16186062.82447  20495182.4534                   20495178.6844
 11  7 25  2  4 30.0000000  0  8G10G25G12G17G05G04G27G02
 -19549816.48848 -15217791.00446  20827524.5784                   20827522.2194
  -7008601.03046  -5442222.99744  24091240.9224                   24091241.8094
 -18405724.38348 -14333548.21146  21335430.3524                   21335427.5004
  -4997651.05146  -3878280.39144  23107382.9144                   23107382.7274
  -7338215.39147  -5687049.48045  22126041.1484                   22126039.7704
  -2939469.55548  -2273601.69546  21468351.5864                   21468350.4104
  -4410944.465 5                  23861732.906
 -20778608.03948 -16174600.10947  20497981.8984                   20497978.1214
 11  7 25  2  5  0.0000000  0  8G10G25G12G17G05G04G27G02
 -19540891.65248 -15210836.55946  20829222.9384                   20829220.8404
  -7090356.93446  -5505928.82043  24075683.1174                   24075684.2704
 -18445972.76648 -14364910.55946  21327770.6724                   21327768.7034
  -4923881.74646  -3820797.79744  23121420.8754                   23121419.8954
  -7413657.99647  -5745835.83646  22111684.6724                   22111683.8794
  -2846389.74648  -2201071.97346  21486064.0554                   21486062.8204
  -4327916.086 5                  23877532.898
 -20763592.84448 -16162899.94547  20500839.2344                   20500835.0984
 11  7 25  2  5 30.0000000  0  8G10G25G12G17G05G04G27G02
 -19531337.52347 -15203391.76246  20831041.0164                   20831038.4534
  -7171938.80946  -5569498.98444  24060158.2424                   24060159.9844
 -18485783.96548 -14395932.23046  21320195.3444                   21320192.8554
  -4849957.49647  -3763194.52745  23135488.7504                   23135487.8324
  -7488822.39847  -5804405.42246  22097381.3834                   22097380.2544
  -2753142.50448  -2128411.76245  21503808.1644                   21503807.0904
  -4244814.902 5                  23893347.000
 -20748271.68048 -16150961.36747  20503754.4224                   20503750.5664
 11  7 25  2  6  0.0000000  0  9G10G25G12G09G17G05G04G27G02
 -19521151.62947 -15195454.67246  20832978.6094                   20832977.0394
  -7253342.43046  -5632930.27044  24044667.2894                   24044669.9884
 -18525154.25048 -14426610.32846  21312703.0394                   21312701.1484
                                  23684921.695
  -4775876.23847  -3705468.85245  23149585.6644                   23149585.1294
  -7563703.78947  -5862754.51246  22083132.2424                   22083130.6454
  -2659728.18048  -2055621.34445  21521584.2664                   21521583.2114
  -4161642.25445  -3919175.82842  23909173.6724                   23909173.9734
 -20732644.14848 -16138784.07447  20506728.4454                   20506724.2894
 11  7 25  2  6 30.0000000  0  9G10G25G12G09G17G05G04G27G02
 -19510329.62947 -15187021.92246  20835038.5234                   20835036.7274
  -7334561.06346  -5696217.41444  24029211.6334                   24029214.1374
 -18564077.32848 -14456939.96546  21305296.5234                   21305294.2504
                                  23703796.477
  -4701633.04747  -3647617.01245  23163714.0394                   23163713.7704
  -7638295.33647  -5920877.73045  22068938.0004                   22068936.5084
  -2566144.70748  -1982699.14145  21539392.5084                   21539390.9064
  -4078396.64846  -3854309.27042  23925014.0554                   23925015.5434
 -20716707.06248 -16126365.56246  20509761.3054                   20509756.7304
 11  7 25  2  7  0.0000000  0  9G10G25G12G09G17G05G04G27G02
 -19498876.23047 -15178097.16846  20837218.1484                   20837216.1334
  -7415597.18447  -5759362.33644  24013792.1334                   24013793.2814
 -18602555.98048 -14486923.28546  21297973.6724                   21297971.7464
                                  23722700.242
  -4627232.99647  -3589642.93844  23177871.7344                   23177870.4844
  -7712599.34047  -5978776.86745  22054798.4924                   22054796.7664
  -2472399.21148  -1909650.69145  21557231.9614                   21557229.4024
  -3995086.09446  -3789392.02043  23940867.9614                   23940870.5784
 -20700466.45348 -16113710.53547  20512851.4694                   20512847.7854
 11  7 25  2  7 30.0000000  0  8G10G25G12G17G05G04G27G02
 -19486790.67647 -15168679.82046  20839517.8914                   20839515.1884
  -7496448.55947  -5822363.29744  23998406.4064                   23998407.4344
 -18640588.20348 -14516558.73846  21290736.7034                   21290733.9264
  -4552675.77747  -3531546.38744  23192060.0004                   23192058.0084
  -7786612.66847  -6036449.50846  22040713.6414                   22040712.3554
  -2378494.05548  -1836477.81345  21575101.4844                   21575100.6054
  -3911713.30946  -3724426.33643  23956733.7734                   23956734.8754
 -20683923.77048 -16100820.11747  20515999.5474                   20515996.1134
 11  7 25  2  8  0.0000000  0  8G10G25G12G17G05G04G27G02
 -19474065.32048 -15158763.92646  20841939.3054                   20841937.3094
  -7577105.00047  -5885212.35943  23983057.9144                   23983057.9024
 -18678164.55148 -14545838.95746  21283586.1564                   21283583.4694
  -4477953.17246  -3473320.96144  23206278.4774                   23206277.1604
  -7860325.25847  -6093887.82846  22026686.6254                   22026684.7664
  -2284423.77748  -1763176.30145  21593002.6724                   21593000.1804
  -3828273.84446  -3659408.63743  23972611.7194                   23972613.1994
 -20667072.61348 -16087689.33647  20519206.2424                   20519202.5394
 11  7 25  2  8 30.0000000  0  8G10G25G12G17G05G04G27G02
 -19460707.21948 -15148355.00446  20844481.4924                   20844479.1414
  -7657571.49647  -5947913.45743  23967745.2114                   23967745.5124
 -18715290.14148 -14574767.94546  21276521.4144                   21276519.2074
  -4403072.68846  -3414972.54344  23220527.8054                   23220526.2464
  -7933741.93047  -6151095.56245  22012715.8754                   22012714.5824
  -2190197.94948  -1689753.59045  21610932.6564                   21610932.0044
  -3744778.03146  -3594347.04743  23988500.6334                   23988502.8404
 -20649921.35948 -16074324.71547  20522470.2504                   20522466.2424
 11  7 25  2  9  0.0000000  0  8G10G25G12G17G05G04G27G02
 -19446716.39147 -15137453.02046  20847143.4614                   20847142.0164
  -7737845.68847  -6010464.65243  23952469.7344                   23952470.9614
 -18751963.02348 -14603344.17246  21269543.0084                   21269540.2974
  -4328034.01246  -3356500.84844  23234807.3674                   23234806.3364
  -8006859.89147  -6208070.53145  21998801.8364                   21998800.3444
  -2095818.69148  -1616211.30546  21628893.1254                   21628892.8054
  -3661228.73446  -3529243.78143  24004399.3054                   24004400.5084
 -20632471.41848 -16060727.34846  20525790.7584                   20525786.7154
 11  7 25  2  9 30.0000000  0  8G10G25G12G17G05G04G27G02
 -19432090.38347 -15126056.11346  20849926.7894                   20849924.4494
  -7817923.27347  -6072862.72344  23937231.1884                   23937231.6334
 -18788179.01248 -14631564.38746  21262651.0944                   21262648.7154
  -4252834.96946  -3297904.17644  23249116.9614                   23249115.9144
  -8079674.68847  -6264809.27746  21984945.9534                   21984944.3324
  -2001286.39848  -1542549.80545  21646881.8984                   21646878.6524
  -3577626.93447  -3464099.59443  24020308.4774                   24020309.4024
 -20614722.24648 -16046896.80147  20529168.5004                   20529164.1884
 11  7 25  2 10  0.0000000  0  8G10G25G12G17G05G04G27G02
 -19416824.32047 -15114160.45346  20852832.0234                   20852829.9534
  -7897796.87547  -6135101.87144  23922032.2974                   23922031.7194
 -18823931.82048 -14659423.67246  21255847.5474                   21255845.1094
  -4177470.44946  -3239178.56644  23263459.1024                   23263456.8594
  -8152178.66847  -6321305.81246  21971148.4534                   21971146.5984
  -1906598.29748  -1468766.93445  21664900.8984                   21664900.0744
  -3493970.88346  -3398913.12944  24036227.6724                   24036228.9964
 -20596670.40248 -16032830.40646  20532603.4224                   20532599.1294
 11  7 25  2 10 30.0000000  0  8G10G25G12G17G05G04G27G02
 -19400922.39547 -15101769.31646  20855857.9694                   20855855.6414
  -7977468.14547  -6197183.35944  23906871.1094                   23906871.3134
 -18859223.40648 -14686923.58646  21249131.7504                   21249128.8834
  -4101944.12146  -3180326.89144  23277831.2894                   23277829.6764
  -8224373.22347  -6377561.24645  21957410.0084                   21957408.7114
  -1811760.78547  -1394867.55145  21682946.6254                   21682945.0984
  -3410267.43446  -3333689.75844  24052156.1174                   24052157.4414
 -20578320.76648 -16018531.96146  20536095.0554                   20536090.7894
 11  7 25  2 11  0.0000000  0  8G10G25G12G17G05G04G27G02
 -19384382.48047 -15088881.04746  20859005.3594                   20859003.1454
  -8056932.69147  -6259103.76643  23891748.1954                   23891749.3714
 -18894049.25448 -14714060.57446  21242504.2504                   21242501.5394
  -4026254.32046  -3121347.78544  23292234.0314                   23292233.2154
  -8296253.69147  -6433571.92645  21943732.1954                   21943729.8594
  -1716773.85947  -1320851.78545  21701022.3284                   21701020.6134
  -3326517.63346  -3268430.25443  24068092.7034                   24068094.8204
 -20559672.84848 -16004001.08647  20539643.6174                   20539639.9384
 11  7 25  2 11 30.0000000  0  8G10G25G12G17G05G04G27G02
 -19367207.33247 -15075497.78546  20862273.4844                   20862271.6374
  -8136191.03947  -6320863.53944  23876666.2034                   23876667.8444
 -18928411.03948 -14740835.94946  21235965.1564                   21235963.1294
  -3950403.31646  -3062243.12544  23306667.9064                   23306666.1294
  -8367820.19947  -6489337.97746  21930113.1174                   21930111.0354
  -1621642.82848  -1246723.74246  21719125.4614                   21719125.6254
  -3242727.40646  -3203139.25043  24084038.0234                   24084039.5124
 -20540730.91048 -15989241.10946  20543248.0314                   20543244.3324
 11  7 25  2 12  0.0000000  0  8G10G25G12G17G05G04G27G02
 -19349393.50847 -15061616.85546  20865663.3834                   20865661.4734
  -8215237.49247  -6382458.18044  23861624.2504                   23861626.2974
 -18962303.38348 -14767245.53146  21229516.1094                   21229512.6644
  -3874387.77346  -3003010.24644  23321132.9454                   23321132.6054
  -8439067.14547  -6544854.98846  21916555.2034                   21916553.1484
  -1526366.46948  -1172482.46545  21737256.1254                   21737252.7074
  -3158896.45346  -3137816.51243  24099989.7504                   24099992.2344
 -20521493.12948 -15974250.59446  20546909.0634                   20546905.1374
 11  7 25  2 12 30.0000000  0  8G10G25G12G17G05G04G27G02
 -19330948.23047 -15047243.90646  20869173.4144                   20869170.9534
  -8294076.48447  -6443891.14844  23846622.3914                   23846623.7664
 -18995731.15648 -14793293.13346  21223154.7664                   21223151.9184
  -3798214.30546  -2943654.28144  23335628.7814                   23335627.8834
  -8509998.82447  -6600126.35946  21903057.3204                   21903055.4964
  -1430953.72347  -1098134.90645  21755412.3754                   21755412.8284
  -3075034.53546  -3072469.68443  24115949.0634                   24115951.0984
 -20501967.43448 -15959035.73047  20550624.7274                   20550620.7074
 11  7 25  2 13  0.0000000  0  8G10G25G12G17G05G04G27G02
 -19311867.97347 -15032376.16446  20872804.1804                   20872802.0704
  -8372702.56346  -6505158.18444  23831659.8914                   23831660.9414
 -19028689.40248 -14818974.85246  21216882.8054                   21216881.4064
  -3721879.77846  -2884172.85244  23350154.3134                   23350153.0984
  -8580609.49647  -6655147.60946  21889620.2814                   21889619.1764
  -1335403.94548  -1023680.49645  21773594.7504                   21773592.7814
  -2991141.58246  -3007098.61343  24131913.7504                   24131915.2194
 -20482152.09848 -15943595.18447  20554395.2894                   20554390.8874
 11  7 25  2 13 30.0000000  0  8G10G25G12G17G05G04G27G02
 -19292156.18748 -15017016.32446  20876555.6334                   20876553.2934
  -8451115.96946  -6566259.51644  23816738.3134                   23816740.0784
 -19061179.03548 -14844291.41846  21210700.4064                   21210698.2074
  -3645386.52046  -2824567.69544  23364710.3204                   23364708.8324
  -8650899.14147  -6709918.69546  21876245.0164                   21876243.6524
  -1239721.68048   -949122.96545  21791803.2664                   21791801.3984
  -2907223.17246  -2941707.73043  24147880.6484                   24147884.8594
 -20462050.94548 -15927931.91447  20558220.5474                   20558216.3244
 11  7 25  2 14  0.0000000  0  8G10G25G12G17G05G04G27G02
 -19271807.21548 -15001159.96546  20880427.5864                   20880425.6054
  -8529308.91046  -6627189.05944  23801858.8204                   23801861.2194
 -19093192.86348 -14869237.24246  21204608.6094                   21204605.8914
  -3568729.32447  -2764834.78944  23379298.5164                   23379296.8794
  -8720860.03147  -6764433.59846  21862931.8594                   21862930.2424
  -1143903.80148   -874459.68045  21810037.0784                   21810035.2774
  -2823276.84846  -2876295.14143  24163857.3364                   24163859.0394
 -20441660.29748 -15912043.05546  20562100.4534                   20562096.7934
 11  7 25  2 14 30.0000000  0  8G10G25G12G17G05G04G27G02
 -19250821.13347 -14984807.15246  20884420.8364                   20884419.3094
  -8607278.61347  -6687944.66844  23787021.5394                   23787023.3164
 -19124728.80548 -14893810.68746  21198607.3134                   21198604.8554
  -3491907.62146  -2704973.70744  23393917.1884                   23393915.1884
  -8790489.16447  -6818690.00446  21849681.8594                   21849680.3444
  -1047952.29748   -799692.27745  21828294.7034                   21828292.8094
  -2739305.45746  -2810862.94143  24179835.6334                   24179838.1844
 -20420981.34048 -15895929.55547  20566036.0944                   20566031.9734
 11  7 25  2 15  0.0000000  0  8G10G25G12G17G05G04G27G02
 -19229196.30147 -14967956.60946  20888536.2344                   20888534.1334
  -8685020.87547  -6748523.04344  23772228.2034                   23772229.8444
 -19155783.09448 -14918008.80146  21192697.6024                   21192695.3054
  -3414919.24647  -2644982.75044  23408567.5004                   23408565.2034
  -8859781.80947  -6872684.21146  21836495.7894                   21836494.0824
   -951867.52748   -724821.00445  21846579.0314                   21846580.3054
  -2655310.16046  -2745412.14543  24195819.5394                   24195821.7974
 -20400013.32048 -15879590.80147  20570025.5554                   20570021.9264
 11  7 25  2 15 30.0000000  0  8G10G25G12G17G05G04G27G02
 -19206935.67247 -14950610.66446  20892772.2504                   20892770.2894
  -8762536.18747  -6808924.57844  23757476.8524                   23757478.5984
 -19186356.79748 -14941832.44146  21186879.9844                   21186877.6454
  -3337767.03546  -2584864.14544  23423249.8984                   23423247.9304
  -8928738.72747  -6926416.78946  21823373.6724                   21823372.2114
   -855654.26648   -649849.61745  21864888.7344                   21864885.2584
  -2571296.84046  -2679947.27743  24211807.2894                   24211809.2544
 -20378760.54348 -15863030.14847  20574069.9774                   20574065.6884
 11  7 25  2 16  0.0000000  0  8G10G25G12G17G05G04G27G02
 -19184042.04347 -14932771.45346  20897128.6724                   20897127.0514
  -8839824.60547  -6869149.28944  23742769.1484                   23742771.1764
 -19216450.77048 -14965282.27746  21181153.2974                   21181150.4884
  -3260453.24246  -2524619.64144  23437961.2974                   23437959.4574
  -8997359.82447  -6979887.70746  21810315.5394                   21810313.8914
   -759317.31648   -574781.88745  21883220.8134                   21883220.3674
  -2487270.82045  -2614472.50043  24227796.2894                   24227798.8714
 -20357226.64148 -15846250.45347  20578167.6804                   20578163.1214
 11  7 25  2 16 30.0000000  0  8G10G25G12G17G05G04G27G02
 -19160513.54348 -14914437.54346  20901605.7894                   20901604.1174
  -8916881.80147  -6929193.80544  23728106.0704                   23728107.2934
 -19246061.19148 -14988355.32446  21175518.6094                   21175515.6994
  -3182975.90647  -2464247.69145  23452704.8134                   23452702.8484
  -9065640.64847  -7033093.47746  21797321.4064                   21797320.4104
   -662856.94547   -499617.90645  21901575.6884                   21901574.6844
  -2403233.30545  -2548988.76643  24243789.1094                   24243791.4844
 -20335411.14848 -15829251.33246  20582318.9694                   20582314.6254
 11  7 25  2 17  0.0000000  0  8G10G25G12G17G05G04G27G02
 -19136348.96147 -14895607.98046  20906204.4384                   20906202.1844
  -8993703.65647  -6989054.99644  23713487.9924                   23713487.4304
 -19275184.78148 -15011049.01646  21169976.3524                   21169974.4344
  -3105333.27746  -2403746.90644  23467479.7504                   23467478.0824
  -9133576.88747  -7086030.75046  21784394.2114                   21784392.3524
   -566273.49648   -424358.09045  21919955.9064                   21919953.9454
  -2319185.35545  -2483496.96142  24259782.3524                   24259784.5634
 -20313313.81248 -15812032.60547  20586523.6254                   20586519.5204
 11  7 25  2 17 30.0000000  0  8G10G25G12G17G05G04G27G02
 -19111551.77048 -14876285.48446  20910923.4224                   20910921.2034
  -9070290.63347  -7048733.10944  23698913.9774                   23698913.4304
 -19303822.62948 -15033364.20746  21164527.2034                   21164524.4774
  -3027528.12147  -2343119.53544  23482285.4844                   23482283.7934
  -9201169.02347  -7138699.87546  21771531.2344                   21771529.9454
   -469571.71148   -349006.03945  21938357.9304                   21938356.6294
  -2235132.75445  -2418001.53542  24275776.6484                   24275778.8404
 -20290938.91048 -15794597.59847  20590781.7194                   20590777.3914
 11  7 25  2 18  0.0000000  0  8G10G25G12G17G05G04G27G02
 -19086115.79348 -14856465.23046  20915763.7664                   20915761.2584
  -9146633.95747  -7108221.34844  23684385.7114                   23684386.8714
 -19331966.34448 -15055294.36346  21159171.4304                   21159169.5394
  -2949554.05946  -2282360.50044  23497123.1804                   23497121.9924
  -9268408.14147  -7191093.93446  21758736.2734                   21758734.7934
   -372747.54347   -273558.64845  21956781.8834                   21956779.4964
  -2151072.16846  -2352499.92243  24291773.8204                   24291774.8054
 -20268281.50848 -15776942.43747  20595093.3674                   20595089.2344
 11  7 25  2 18 30.0000000  0  8G10G25G12G17G05G04G27G02
 -19060048.93448 -14836153.37546  20920723.6954                   20920721.8634
  -9222738.56647  -7167523.54344  23669903.0004                   23669903.5514
 -19359622.03948 -15076844.22746  21153908.7424                   21153906.3714
  -2871417.95847  -2221475.23444  23511992.3444                   23511990.9104
  -9335298.94547  -7243216.57446  21746007.1024                   21746005.8054
   -275810.51648   -198023.25045  21975228.6174                   21975228.0274
  -2067013.94146  -2287000.03143  24307769.9304                   24307771.2814
 -20245349.96948 -15759073.68747  20599456.9534                   20599452.7704
 11  7 25  2 19  0.0000000  0  8G10G25G12G17G05G04G27G02
 -19033346.34848 -14815346.15246  20925804.6644                   20925803.4654
  -9298596.91047  -7226633.78943  23655468.1254                   23655468.9614
 -19386782.71948 -15098008.38346  21148740.2894                   21148737.5164
  -2793114.83647  -2160459.81344  23526893.1024                   23526891.3794
  -9401833.92647  -7295061.93446  21733346.3594                   21733345.0824
   -178757.44548   -122397.46145  21993697.5164                   21993694.4734
  -1982955.88346  -2221500.37143  24323765.7974                   24323767.7934
 -20222140.96148 -15740988.71147  20603873.4454                   20603869.5044
 11  7 25  2 19 30.0000000  0  8G10G25G12G17G05G04G27G02
 -19006006.25448 -14794042.16846  20931007.6954                   20931006.0354
  -9374204.26647  -7285548.50044  23641079.8984                   23641081.0044
 -19413444.17248 -15118783.52746  21143666.8054                   21143664.0744
  -2714642.30946  -2099312.41844  23541825.6024                   23541824.1094
  -9468008.40248  -7346626.41446  21720753.5084                   21720751.5664
    -81588.17647    -46681.10545  22012188.0784                   22012188.3284
  -1898898.90246  -2156001.49643  24339759.9064                   24339763.4224
 -20198653.26648 -15722686.59047  20608343.2814                   20608339.1564
 11  7 25  2 20  0.0000000  0  8G10G25G12G17G05G04G27G02
 -18978030.16048 -14772242.59446  20936331.5084                   20936329.6054
  -9449559.27347  -7344266.54344  23626739.9774                   23626742.1644
 -19439605.74248 -15139169.14146  21138688.5234                   21138685.8054
  -2636001.14546  -2038033.58244  23556790.1884                   23556789.0314
  -9533820.90647  -7397908.81646  21708229.7894                   21708227.7664
     15694.11747     29123.30545  22030699.6334                   22030698.2304
  -1814846.74246  -2090506.36743  24355755.3754                   24355757.3484
 -20174889.48848 -15704169.34846  20612865.4064                   20612861.0514
 11  7 25  2 20 30.0000000  0  8G10G25G12G17G05G04G27G02
 -18949415.34048 -14749945.30946  20941776.5164                   20941775.0824
  -9524656.37147  -7402783.62944  23612449.7504                   23612451.0204
 -19465263.10248 -15159161.85946  21133805.7734                   21133803.2774
  -2557188.30146  -1976620.98844  23571789.0944                   23571786.8714
  -9599265.89547  -7448904.85946  21695776.1484                   21695774.3164
    113090.65248    105016.71545  22049234.7664                   22049234.0394
  -1730798.99246  -2025014.67643  24371749.1414                   24371750.8954
 -20150847.76248 -15685435.52347  20617440.1724                   20617435.7424
 11  7 25  2 21  0.0000000  0  8G10G25G12G17G05G04G27G02
 -18920166.25848 -14727153.81246  20947342.5474                   20947340.7934
  -9599496.77047  -7461100.66844  23598207.9064                   23598209.2584
 -19490418.09448 -15178763.11346  21129018.8444                   21129016.5084
  -2478207.23446  -1915077.25044  23586817.2034                   23586815.4184
  -9664344.50847  -7499615.42246  21683391.7584                   21683390.0234
    210595.84047    180994.79745  22067789.2034                   22067787.3444
  -1646762.40246  -1959531.76243  24387741.8674                   24387743.2544
 -20126533.27048 -15666489.14147  20622067.1174                   20622063.1524
 11  7 25  2 21 30.0000000  0  8G10G25G12G17G05G04G27G02
 -18890280.32848 -14703866.06246  20953029.4454                   20953027.6644
  -9674074.99247  -7519213.44544  23584015.8444                   23584017.4144
 -19515065.89848 -15197969.14846  21124328.2664                   21124325.4924
  -2399054.78146  -1853400.02344  23601879.2114                   23601877.8324
  -9729051.23047  -7550036.18446  21671078.6564                   21671076.8404
    308210.52047    257058.19145  22086364.5004                   22086363.5164
  -1562736.96946  -1894057.48843  24403730.3834                   24403732.5664
 -20101944.20748 -15647328.80947  20626745.9454                   20626741.7584
 11  7 25  2 22  0.0000000  0  8G10G25G12G17G05G04G27G02
 -18859760.93448 -14680084.70746  20958836.9774                   20958834.7664
  -9748391.49647  -7577122.29344  23569874.0474                   23569875.8014
 -19539208.20348 -15216781.28946  21119734.2504                   21119731.7154
  -2319733.77046  -1791591.46544  23616974.1174                   23616971.8444
  -9793386.38747  -7600167.42646  21658836.0004                   21658834.1564
    405929.79747    333203.11345  22104960.1334                   22104957.8524
  -1478728.31646  -1828596.27743  24419717.6954                   24419719.0274
 -20077084.91048 -15627957.91846  20631476.7194                   20631472.0984
 11  7 25  2 22 30.0000000  0  8G10G25G12G17G05G04G27G02
 -18828607.99648 -14655809.67246  20964765.5394                   20964763.1564
  -9822443.20747  -7634824.79744  23555782.3204                   23555784.7504
 -19562842.44948 -15235197.54346  21115236.8284                   21115234.8444
  -2240243.27746  -1729650.84844  23632100.9614                   23632098.5394
  -9857347.02347  -7650006.83246  21646664.6094                   21646662.2504
    503752.68447    409428.73045  22123575.0164                   22123574.2774
  -1394738.63746  -1763149.88343  24435699.4844                   24435702.6844
 -20051955.97348 -15608376.92646  20636258.6174                   20636254.1764
 11  7 25  2 23  0.0000000  0  8G10G25G12G17G05G04G27G02
 -18796822.86348 -14631041.99246  20970814.0314                   20970812.3834
  -9896228.39847  -7692319.60545  23541741.3914                   23541743.7934
 -19585967.93048 -15253217.34046  21110835.9924                   21110833.7074
  -2160584.35946  -1667578.89544  23647259.2274                   23647257.9654
  -9920931.39547  -7699553.05546  21634564.8204                   21634562.7894
    601675.77747    485732.47745  22142208.3134                   22142206.9614
  -1310771.77345  -1697721.25843  24451678.1414                   24451681.0044
 -20026559.10548 -15588587.14846  20641091.0554                   20641086.7344
 11  7 25  2 23 30.0000000  0  8G10G25G12G17G05G04G27G02
 -18764399.76248 -14605777.21146  20976983.4694                   20976981.1454
  -9969738.06647  -7749599.75044  23527753.4694                   23527754.0004
 -19608576.32448 -15270834.22346  21106533.7814                   21106532.0594
  -2080749.93846  -1605370.22344  23662451.1414                   23662448.8134
  -9984130.46547  -7748799.03946  21622538.3834                   21622536.3954
    699704.34047    562118.38345  22160863.3204                   22160861.8914
  -1226823.75445  -1632307.30942  24467652.4614                   24467655.0664
 -20000889.80548 -15568585.07446  20645976.0004                   20645971.9024
 11  7 25  2 24  0.0000000  0  8G10G25G12G17G05G04G27G02
 -18731346.73048 -14580021.58246  20983273.4774                   20983271.2194
 -10042977.05947  -7806668.97345  23513815.3444                   23513817.1414
 -19630673.33248 -15288052.62946  21102329.0634                   21102326.2974
  -2000747.21546  -1543030.41843  23677674.6884                   23677672.7074
 -10046949.02347  -7797748.50846  21610584.5784                   21610582.5904
    797828.78148    638579.00045  22179535.3984                   22179533.8444
  -1142904.72346  -1566916.02043  24483623.1094                   24483623.8834
 -19974956.43048 -15548377.22747  20650910.9774                   20650906.6134
 11  7 25  2 24 30.0000000  0  8G10G25G12G17G05G04G27G02
 -18697664.24248 -14553775.46946  20989683.0704                   20989680.5784
 -10115942.60247  -7863525.15244  23499930.8984                   23499932.6764
 -19652256.87948 -15304870.93046  21098221.5784                   21098218.8444
  -1920575.91446  -1480559.28143  23692930.0234                   23692928.8134
 -10109384.60947  -7846399.57046  21598703.4844                   21598701.1684
    896047.59047    715113.12145  22198226.3134                   22198225.1764
  -1059017.62946  -1501549.54343  24499585.4064                   24499587.6884
 -19948760.22748 -15527964.58646  20655896.0634                   20655891.5704
 11  7 25  2 25  0.0000000  0  8G10G25G12G17G05G04G27G02
 -18663346.19948 -14527034.12146  20996213.6024                   20996211.1954
 -10188625.73047  -7920161.26245  23486100.6094                   23486101.2704
 -19673319.80148 -15321283.54346  21094213.6954                   21094210.8594
  -1840229.83246  -1417951.96543  23708220.3444                   23708218.4924
 -10171428.29747  -7894745.24646  21586896.9064                   21586895.3554
    994365.15647    791724.23045  22216935.0394                   22216932.8834
   -975158.67246  -1436204.95743  24515542.7894                   24515546.9454
 -19922295.86748 -15507342.98847  20660931.9844                   20660927.6604
 11  7 25  2 25 30.0000000  0  8G10G25G12G17G05G04G27G02
 -18628400.34848 -14499803.57046  21002863.5314                   21002861.6604
 -10261030.43047  -7976580.43445  23472322.1254                   23472322.4534
 -19693866.54348 -15337293.95746  21090303.4454                   21090300.6764
  -1759715.10946  -1355213.16043  23723542.0394                   23723539.3284
 -10233084.28147  -7942788.82446  21575163.5944                   21575162.7584
   1092773.36347    868405.91845  22235661.8364                   22235661.4774
   -891337.00046  -1370889.48043  24531494.8444                   24531497.2624
 -19895571.06648 -15486518.46547  20666017.2034                   20666013.4184
 11  7 25  2 26  0.0000000  0  8G10G25G12G17G05G04G27G02
 -18592820.83248 -14472079.25446  21009633.8984                   21009631.7734
 -10333147.96947  -8032775.84444  23458598.3914                   23458599.1844
 -19713889.27348 -15352896.05946  21086493.1254                   21086490.8714
  -1679024.97746  -1292337.69943  23738896.8134                   23738895.9144
 -10294343.07848  -7990522.90246  21563506.7894                   21563505.3134
   1191276.26247    945161.44145  22254406.0944                   22254403.8204
   -807549.32446  -1305600.48442  24547438.9064                   24547440.5594
 -19868580.89548 -15465487.14147  20671153.4454                   20671149.0594
 11  7 25  2 26 30.0000000  0  8G10G25G12G17G05G04G27G02
 -18556617.37548 -14443868.75846  21016523.4384                   21016521.1644
 -10404984.58647  -8088752.34844  23444927.6644                   23444928.3364
 -19733395.12548 -15368095.39546  21082781.4144                   21082778.9024
  -1598168.21946  -1229332.39543  23754283.2344                   23754280.6724
 -10355211.58248  -8037952.85246  21551924.0554                   21551922.0784
   1289863.60947   1021982.74245  22273167.0314                   22273166.1724
   -723807.09846  -1240346.86743  24563374.5554                   24563377.0744
 -19841335.51648 -15444256.96147  20676338.2034                   20676334.2734
 11  7 25  2 27  0.0000000  0  8G10G25G12G17G05G04G27G02
 -18519781.50448 -14415165.44546  21023532.4304                   21023530.5594
 -10476528.47347  -8144500.77344  23431313.6564                   23431314.8834
 -19752373.36748 -15382883.60246  21079169.9534                   21079167.0354
  -1517135.72346  -1166190.17643  23769702.6804                   23769700.9104
 -10415678.17248  -8085069.63746  21540417.6094                   21540415.2774
   1388542.65647   1098875.52745  22291944.7584                   22291942.7974
   -640103.58246  -1175123.51243  24579303.3054                   24579305.5234
 -19813826.93748 -15422821.69546  20681572.6484                   20681568.7154
 11  7 25  2 27 30.0000000  0  7G10G25G12G17G05G04G02
 -18482316.96548 -14385972.26646  21030662.1094                   21030659.9774
 -10547780.26247  -8200021.61744  23417754.4534                   23417755.9344
 -19770825.88748 -15397262.16046  21075658.9534                   21075655.4304
  -1435930.28146  -1102913.20344  23785155.7424                   23785154.5554
 -10475743.52748  -8131873.76246  21528987.5864                   21528985.4534
   1487308.43747   1175835.87945  22310739.3674                   22310738.2544
 -19786059.70748 -15401184.86347  20686856.8054                   20686852.7504
 11  7 25  2 28  0.0000000  0  7G10G25G12G17G05G04G02
 -18444222.09048 -14356287.91846  21037911.3914                   21037909.9384
 -10618734.78547  -8255310.83244  23404252.5864                   23404253.5434
 -19788748.38748 -15411227.71146  21072248.0004                   21072245.4104
  -1354549.37946  -1039499.50043  23800642.2974                   23800639.9384
 -10535402.64548  -8178361.34446  21517634.4224                   21517632.9454
   1586161.96947   1252864.56245  22329550.0474                   22329548.6254
 -19758032.39548 -15379345.37946  20692189.9454                   20692186.2664
 11  7 25  2 28 30.0000000  0  7G10G25G12G17G05G04G02
 -18405493.96948 -14326110.14546  21045280.6254                   21045278.9774
 -10689385.67647  -8310363.41044  23390807.9224                   23390808.8714
 -19806135.04348 -15424775.72746  21068939.6174                   21068937.2074
  -1272988.75047   -975945.77743  23816163.1644                   23816159.2934
 -10594649.03948  -8224527.31646  21506360.2734                   21506358.1094
   1685105.09047   1329963.12545  22348378.8594                   22348377.6294
 -19729742.36348 -15357301.17647  20697573.8914                   20697569.1844
 11  7 25  2 29  0.0000000  0  7G10G25G12G17G05G04G02
 -18366141.80148 -14295446.10546  21052769.4774                   21052767.6564
 -10759738.44947  -8365183.72344  23377420.1024                   23377421.6724
 -19822993.28548 -15437912.00046  21065731.3674                   21065729.4804
  -1191256.54746   -912258.31643  23831716.2194                   23831712.7304
 -10653488.53948  -8270376.22746  21495163.5234                   21495161.1524
   1784128.14547   1407123.91045  22367221.8364                   22367220.9414
 -19701199.33248 -15335059.83247  20703005.1094                   20703000.6294
 11  7 25  2 29 30.0000000  0  7G10G25G12G17G05G04G02
 -18326164.21148 -14264294.71146  21060376.7034                   21060375.3714
 -10829788.57047  -8419768.21944  23364090.5474                   23364090.7384
 -19839319.41848 -15450633.62946  21062624.9064                   21062622.3954
  -1109350.39146   -848435.28543  23847301.6724                   23847298.8954
 -10711916.86348  -8315904.75046  21484044.4384                   21484042.9694
   1883231.18747   1484347.10245  22386080.8054                   22386079.3444
 -19672401.99248 -15312620.32046  20708484.9454                   20708480.6294
 11  7 25  2 30  0.0000000  0  7G10G25G12G17G05G04G02
 -18285553.39148 -14232649.89846  21068104.8444                   21068102.8524
 -10899524.73447  -8474108.07844  23350819.0944                   23350820.1414
 -19855103.05948 -15462932.55946  21059621.1094                   21059618.1884
  -1027261.49646   -784469.93043  23862922.9064                   23862921.0124
 -10769922.73848  -8361104.09446  21473006.4844                   21473004.5274
   1982421.31647   1561638.07445  22404956.1024                   22404954.5864
 -19643343.26248 -15289977.14546  20714014.8914                   20714010.1844
 11  7 25  2 30 30.0000000  0  7G10G25G12G17G05G04G02
 -18244314.52748 -14200515.69146  21075952.8284                   21075950.4224
 -10968948.76847  -8528204.72844  23337608.0234                   23337609.6334
 -19870347.25848 -15474811.14146  21056720.2584                   21056717.2464
   -944994.12146   -720365.48044  23878578.2894                   23878576.2734
 -10827508.22348  -8405975.84846  21462048.6954                   21462045.8834
   2081692.51647   1638992.27745  22423847.0164                   22423843.2664
 -19614028.44148 -15267134.40246  20719593.2894                   20719588.8674
 11  7 25  2 31  0.0000000  0  7G10G25G12G17G05G04G02
 -18202453.55148 -14167896.73446  21083918.1954                   21083916.2074
 -11038062.83647  -8582059.83645  23324457.1564                   23324457.6564
 -19885055.34048 -15486271.96146  21053921.1024                   21053918.6764
   -862552.89846   -656125.54344  23894265.9064                   23894265.5164
 -10884675.58248  -8450521.80146  21451170.2814                   21451167.6524
   2181038.30947   1716404.60945  22442751.7424                   22442750.3634
 -19584463.88348 -15244097.07446  20725219.3834                   20725214.5084
 11  7 25  2 31 30.0000000  0  7G10G25G12G17G05G04G02
 -18159970.60248 -14134793.11746  21092002.8444                   21092000.4144
 -11106863.50447  -8635670.72345  23311364.5234                   23311365.5864
 -19899224.90648 -15497313.16446  21051225.1644                   21051222.7584
   -779936.82046   -591749.38744  23909988.7034                   23909986.5124
 -10941421.43048  -8494739.30546  21440371.8444                   21440369.1254
   2280457.98447   1793874.49245  22461670.4384                   22461668.2234
 -19554649.77048 -15220865.28546  20730892.6954                   20730888.0354
 11  7 25  2 32  0.0000000  0  7G10G25G12G17G05G04G02
 -18116870.26648 -14101208.42646  21100204.4454                   21100202.7274
 -11175351.98047  -8689038.37945  23298332.3204                   23298332.8834
 -19912858.50848 -15507936.72746  21048630.5234                   21048627.9534
   -697149.58246   -527239.82844  23925741.7894                   23925740.1174
 -10997747.68048  -8538629.84446  21429652.6484                   21429650.9304
   2379945.98847   1871397.62145  22480602.8674                   22480601.3554
 -19524591.14548 -15197442.95346  20736612.3914                   20736608.0664
 11  7 25  2 32 30.0000000  0  7G10G25G12G17G05G04G02
 -18073150.73048 -14067141.24246  21108523.6724                   21108522.2814
 -11243522.72347  -8742158.43445  23285359.4774                   23285360.0434
 -19925951.87948 -15518139.33246  21046138.9454                   21046136.6174
   -614188.14546   -462594.56644  23941527.7894                   23941527.1294
 -11053648.58648  -8582188.95346  21419015.4614                   21419013.6954
   2479503.50847   1948974.91445  22499547.6564                   22499546.0314
 -19494286.26648 -15173828.74247  20742379.3364                   20742375.0904
 11  7 25  2 33  0.0000000  0  7G10G25G12G17G05G04G02
 -18028818.32848 -14032596.50846  21116959.7114                   21116957.7664
 -11311378.25847  -8795032.82445  23272446.8674                   23272447.8834
 -19938508.80548 -15527923.92646  21043749.1334                   21043746.3094
   -531057.12545   -397817.14143  23957347.0084                   23957346.4064
 -11109126.83248  -8625418.71146  21408458.1024                   21408456.1684
   2579124.09847   2026601.35545  22518505.0554                   22518503.4224
 -19463741.40248 -15150027.53546  20748191.7664                   20748187.6134
 11  7 25  2 33 30.0000000  0  7G10G25G12G17G05G04G02
 -17983868.45748 -13997570.62146  21125513.8674                   21125511.8164
 -11378910.39547  -8847655.22345  23259595.3834                   23259597.5514
 -19950522.06648 -15537284.89146  21041463.6024                   21041460.8364
   -447751.02746   -332903.35543  23973201.5634                   23973198.4534
 -11164174.30148  -8668312.80946  21397983.2664                   21397980.9964
   2678811.59047   2104279.90645  22537474.8674                   22537473.6374
 -19432952.30548 -15126036.00446  20754050.7974                   20754046.5084
 11  7 25  2 34  0.0000000  0  8G10G25G12G09G17G05G04G02
 -17938298.94948 -13962061.90646  21134185.1484                   21134183.1134
 -11446113.46547  -8900021.17645  23246807.6094                   23246809.5164
 -19961986.75448 -15546218.39146  21039281.9454                   21039279.1564
  -4623843.34015                  24771234.852
   -364266.54745   -267850.56343  23989086.7344                   23989085.0434
 -11218786.02348  -8710867.34046  21387590.6564                   21387588.0314
   2778567.32847   2182011.66045  22556458.0554                   22556456.0124
 -19401916.90648 -15101852.56246  20759956.6644                   20759951.9104
 11  7 25  2 34 30.0000000  0  8G10G25G12G09G17G05G04G02
 -17892121.35548 -13926079.35246  21142972.1174                   21142969.9024
 -11512995.23447  -8952136.75445  23234080.7034                   23234081.6644
 -19972912.77748 -15554732.14146  21037202.6094                   21037200.2664
  -4520806.85914                  24790841.758
                                  24004998.9304                   24005005.1174
 -11272970.06248  -8753088.62146  21377279.5164                   21377277.3244
   2878379.59847   2259787.46545  22575451.2274                   22575449.7934
 -19370646.98848 -15077486.37946  20765907.2114                   20765902.7504
 11  7 25  2 35  0.0000000  0  8G10G25G12G09G17G05G04G02
 -17845334.98448 -13889622.43446  21151875.3524                   21151873.6994
 -11579551.21547  -9003998.44945  23221414.8134                   23221415.7894
 -19983296.90648 -15562823.65246  21035226.1094                   21035223.6484
  -4417799.71915                  24810444.141
   -196790.90255   -137350.08253  24020956.4534                   24020955.6994
 -11326722.07048  -8794973.26646  21367050.9844                   21367048.8164
   2978248.64847   2337607.51645  22594455.6804                   22594454.1454
 -19339141.94148 -15052936.98446  20771902.2734                   20771897.9224
 11  7 25  2 35 30.0000000  0  8G10G25G12G09G17G05G04G02
 -19373352.21548 -15080285.20746  20861103.7424                   20861101.6174
 -13221193.61347 -10283200.18745  22909020.9924                   22909021.5944
 -21568550.39848 -16798086.08646  20733563.0164                   20733560.1994
  -5890233.918 6                  24530248.828
  -1688207.75846  -1299493.09043  23737149.8134                   23737146.9264
 -12955453.90648 -10064114.90646  21057113.5704                   21057111.7384
   1502763.80147   1187879.05945  22313680.0164                   22313678.5944
 -20882814.20748 -16255798.46546  20478151.5164                   20478147.0434
 11  7 25  2 36  0.0000000  0  8G10G25G12G09G17G05G04G02
 -19325340.18048 -15042873.21946  20870240.1644                   20870238.0434
 -13287078.48447 -10334538.91845  22896483.4844                   22896484.1564
 -21577834.32448 -16805320.28946  20731796.0784                   20731793.3014
  -5787282.555 5                  24549838.992
  -1604032.42246  -1233901.89143  23753168.1094                   23753165.9454
 -13008322.93448 -10105311.50446  21047053.1334                   21047050.8324
   1602753.70347   1265793.27345  22332708.0314                   22332706.3244
 -20850830.20748 -16230875.85946  20484237.8524                   20484233.3954
 11  7 25  2 36 30.0000000  0  8G10G25G12G09G17G05G04G02
 -19276720.53148 -15004987.77346  20879492.0944                   20879490.2774
 -13352627.54747 -10385615.99645  22884009.2194                   22884010.7194
 -21586569.75448 -16812127.08246  20730133.6954                   20730130.5274
  -5684367.535 6                  24569424.219
  -1519684.13746  -1168175.95743  23769218.1884                   23769216.1684
 -13060750.96548 -10146164.47346  21037075.9614                   21037073.8794
   1702798.02347   1343749.91044  22351745.6644                   22351743.7584
 -20818612.02348 -16205770.76646  20490368.5864                   20490364.3054
 11  7 25  2 37  0.0000000  0  8G10G25G12G09G17G05G04G02
 -19227489.35248 -14966625.80946  20888860.5164                   20888858.3164
 -13417833.15647 -10436425.46545  22871601.1414                   22871603.0004
 -21594750.77048 -16818501.89146  20728577.1484                   20728574.1844
  -5581486.891 6                  24589001.625
  -1435157.83246  -1102311.25443  23785302.8054                   23785301.0744
 -13112730.41448 -10186667.89846  21027184.6484                   21027182.9104
   1802900.46147   1421751.80545  22370794.3984                   22370793.6024
 -20786156.07048 -16180480.37946  20496544.6024                   20496540.1134
 11  7 25  2 37 30.0000000  0  8G10G25G12G09G17G05G04G02
 -19177654.56248 -14927793.51246  20898343.6094                   20898341.2344
 -13482699.36747 -10486970.43445  22859256.8754                   22859257.6414
 -21602382.65648 -16824448.78946  20727124.5784                   20727122.2074
  -5478650.293 6                  24608571.227
  -1350459.90246  -1036312.80143  23801421.7504                   23801419.8054
 -13164265.27048 -10226824.89546  21017377.9534                   21017376.1024
   1903052.74247   1499792.54745  22389852.7504                   22389851.5984
 -20753469.82448 -16155010.56646  20502764.5704                   20502759.4654
 11  7 25  2 38  0.0000000  0  8G10G25G12G09G17G05G04G02
 -19127208.18048 -14888484.63346  20907943.6564                   20907941.0084
 -13547213.97347 -10537241.43045  22846980.6334                   22846980.7734
 -21609454.46948 -16829959.27346  20725778.9844                   20725776.3524
  -5375851.19946  -2624030.96953  24628132.1884                   24628138.0594
  -1265580.80946   -970173.19943  23817573.0554                   23817570.6254
 -13215344.00448 -10266626.45346  21007657.9144                   21007655.9454
   2003262.92247   1577878.44145  22408922.2584                   22408919.8634
 -20720545.05948 -16129354.87546  20509029.7504                   20509025.0204
 11  7 25  2 38 30.0000000  0  8G10G25G12G09G17G05G04G02
 -19076158.06648 -14848705.30946  20917658.1644                   20917655.8634
 -13611381.18747 -10587241.72745  22834769.9304                   22834770.6054
 -21615971.84848 -16835037.71546  20724538.8134                   20724535.6484
  -5273099.64846  -2543964.94943  24647686.1174                   24647687.7974
  -1180527.09846   -903897.58643  23833757.6804                   23833755.8484
 -13265971.34448 -10306076.29346  20998024.1254                   20998021.7854
   2103522.96947   1656003.13744  22428001.2424                   22427999.5314
 -20687389.87548 -16103519.64846  20515339.0784                   20515334.7384
 11  7 25  2 39  0.0000000  0  8G10G25G12G09G17G05G04G02
 -19024502.07448 -14808453.87546  20927487.2274                   20927485.4804
 -13675194.90247 -10636966.58645  22822626.2194                   22822626.5044
 -21621930.26648 -16839680.61346  20723404.6954                   20723401.8484
  -5170394.80146  -2463935.28143  24667229.7974                   24667232.1024
  -1095294.84446   -837482.77043  23849977.9304                   23849974.4144
 -13316141.28948 -10345169.72346  20988477.0234                   20988474.7304
   2203834.92647   1734168.31645  22447090.4224                   22447088.5664
 -20654001.40648 -16077502.63346  20521692.8444                   20521687.7624
 11  7 25  2 39 30.0000000  0  8G10G25G12G09G17G05G04G02
 -18972239.23448 -14767729.57846  20937432.9614                   20937430.1764
 -13738650.22747 -10686412.19945  22810551.4224                   22810551.6684
 -21627326.11348 -16843885.15646  20722378.0634                   20722375.1174
  -5067737.62146  -2383942.73843  24686765.0554                   24686767.4804
  -1009881.97346   -770927.26643  23866229.8674                   23866227.5634
 -13365849.30948 -10383903.20346  20979017.5234                   20979015.7304
   2304199.52747   1812374.49245  22466188.6954                   22466186.9264
 -20620378.76648 -16051303.15646  20528090.5314                   20528086.2504
 11  7 25  2 40  0.0000000  0  8G10G25G12G09G17G05G04G02
 -18919376.22348 -14726537.60546  20947492.3914                   20947489.9654
 -13801750.06647 -10735580.82045  22798543.1724                   22798544.5824
 -21632163.84048 -16847654.79746  20721457.1884                   20721454.5474
  -4965136.50446  -2303993.91443  24706290.0704                   24706292.8794
   -924293.68446   -704235.07043  23882518.5474                   23882516.2934
 -13415098.57848 -10422279.21946  20969645.8134                   20969643.5744
   2404610.09047   1890616.47745  22485296.4924                   22485294.1844
 -20586528.54348 -16024926.33246  20534532.0634                   20534528.0554
 11  7 25  2 40 30.0000000  0  8G10G25G12G09G17G05G04G02
 -18865916.59048 -14684880.73846  20957665.7424                   20957663.4574
 -13864493.83247 -10784472.00045  22786603.8594                   22786604.4804
 -21636443.97348 -16850989.93746  20720642.7274                   20720640.0474
  -4862596.25846  -2224092.53543  24725801.7504                   24725804.6334
   -838531.93446   -637407.70343  23898837.9454                   23898835.2344
 -13463889.14548 -10460297.80546  20960361.4924                   20960358.8524
   2505062.82847   1968891.34845  22504411.5704                   22504408.8284
 -20552454.07448 -15998374.77046  20541016.6724                   20541012.0514
 11  7 25  2 41  0.0000000  0  7G10G25G12G17G05G04G02
 -18811857.00048 -14642756.36746  20967952.3524                   20967950.7384
 -13926874.23847 -10833080.01645  22774733.0944                   22774734.3164
 -21640161.21948 -16853886.48046  20719935.6094                   20719932.4534
   -752591.96546   -570441.50043  23915190.4304                   23915189.6334
 -13512214.05948 -10497953.53546  20951165.4844                   20951163.3554
   2605561.44547   2047202.00445  22523535.7424                   22523534.2704
 -20518151.56248 -15971645.52046  20547544.2114                   20547539.8794
 11  7 25  2 41 30.0000000  0  7G10G25G12G17G05G04G02
 -18757203.26248 -14600169.05946  20978352.6484                   20978351.0044
 -13988893.19147 -10881406.40645  22762932.0554                   22762932.4774
 -21643318.57047 -16856346.73046  20719334.7584                   20719331.9184
   -666478.10546   -503339.75443  23931578.6724                   23931577.5274
 -13560075.51648 -10535248.15646  20942057.7734                   20942055.4224
   2706099.98447   2125543.73045  22542667.5944                   22542665.7854
 -20483626.72748 -15944743.02746  20554114.0164                   20554109.5044
 11  7 25  2 42  0.0000000  0  7G10G25G12G17G05G04G02
 -18701958.69148 -14557121.31246  20988865.2814                   20988862.9694
 -14050549.85947 -10929450.50445  22751198.4304                   22751198.8914
 -21645916.98447 -16858371.45746  20718839.8674                   20718837.5554
   -580191.61745   -436103.55543  23947998.3524                   23947994.9694
 -13607473.16848 -10572181.35246  20933038.1334                   20933035.6524
   2806675.32847   2203914.12945  22561806.3984                   22561805.0434
 -20448882.49248 -15917669.56646  20560725.5234                   20560720.3164
 11  7 25  2 42 30.0000000  0  7G10G25G12G17G05G04G02
 -18646115.87148 -14513607.42646  20999492.1094                   20999490.3484
 -14111833.00047 -10977203.54745  22739536.5634                   22739537.2074
 -21647946.78947 -16859953.09046  20718454.0634                   20718452.2624
   -493724.08646   -368726.30143  23964452.2114                   23964449.5984
 -13654396.31648 -10608744.80946  20924108.9304                   20924106.1764
   2907294.62947   2282318.76644  22580953.0234                   22580952.1644
 -20413911.15648 -15890419.16046  20567380.3754                   20567375.3754
 11  7 25  2 43  0.0000000  0  7G10G25G12G17G05G04G02
 -18589675.20748 -14469627.67246  21010232.1724                   21010229.8594
 -14172738.75447 -11024662.51645  22727946.2664                   22727947.6174
 -21649405.35548 -16861089.61746  20718175.7584                   20718173.6414
   -407074.21946   -301206.92643  23980942.6724                   23980939.3714
 -13700841.37548 -10644935.72746  20915270.6094                   20915268.4454
   3007957.92647   2360757.67245  22600108.8594                   22600107.6254
 -20378712.66848 -15862991.74646  20574078.4694                   20574073.0744
 11  7 25  2 43 30.0000000  0  7G10G25G12G17G05G04G02
 -18532639.26247 -14425184.06646  21021086.0164                   21021083.5944
 -14233265.69547 -11071826.34445  22716428.7344                   22716429.5784
 -21650293.07448 -16861781.33246  20718006.8914                   20718004.6214
   -320243.00446   -233546.23443  23997463.2584                   23997462.9024
 -13746807.38748 -10680753.35546  20906523.4384                   20906520.8634
   3108662.58647   2439228.84444  22619272.8914                   22619270.5784
 -20343289.31248 -15835389.10246  20580819.2274                   20580814.7074
 11  7 25  2 44  0.0000000  0  7G10G25G12G17G05G04G02
 -18475014.70747 -14380281.79746  21032050.9304                   21032048.9264
 -14293416.57847 -11118697.12145  22704982.1804                   22704983.4924
 -21650614.32448 -16862031.64546  20717945.9774                   20717943.2544
   -233235.61346   -165748.32443  24014021.2114                   24014019.7464
 -13792297.59048 -10716200.23446  20897867.1334                   20897864.2034
   3209402.27347   2517727.28944  22638442.7814                   22638440.8134
 -20307647.46948 -15807616.21946  20587601.5554                   20587597.1604
 11  7 25  2 44 30.0000000  0  7G10G25G12G17G05G04G02
 -18416799.91047 -14334919.58646  21043129.1954                   21043127.0904
 -14353185.40247 -11165270.19545  22693609.1724                   22693609.9804
 -21650364.55548 -16861837.00446  20717993.6644                   20717990.7894
   -146048.43446    -97810.24243  24030611.8444                   24030610.7934
 -13837306.20348 -10751271.84846  20889302.2734                   20889299.9804
   3310179.10247   2596254.66844  22657620.1484                   22657619.3284
 -20271784.71948 -15779671.19946  20594425.9224                   20594421.5124
 11  7 25  2 45  0.0000000  0  7G10G25G12G17G05G04G02
 -18357992.78547 -14289095.84446  21054319.6484                   21054317.4734
 -14412566.07047 -11211540.80945  22682308.4924                   22682309.3284
 -21649539.42648 -16861194.03546  20718150.8444                   20718148.3914
    -58678.11346    -29729.49244  24047238.2194                   24047236.9104
 -13881827.72748 -10785963.90246  20880829.9774                   20880827.9454
   3410995.22347   2674812.66844  22676804.3524                   22676803.6764
 -20235698.67248 -15751552.18446  20601292.7424                   20601288.2304
 11  7 25  2 45 30.0000000  0  7G10G25G12G17G05G04G02
 -18298600.10547 -14242815.82846  21065622.1884                   21065620.0904
 -14471561.18047 -11257510.98045  22671082.2114                   22671082.3204
 -21648143.21548 -16860106.05946  20718416.5554                   20718413.5004
     28870.48046     38490.17244  24063898.6024                   24063896.3244
 -13925865.52748 -10820279.03546  20872449.8284                   20872447.5474
   3511844.07447   2753396.20744  22695995.0864                   22695993.7384
 -20199395.49648 -15723263.97346  20608201.2894                   20608197.0234
 11  7 25  2 46  0.0000000  0  7G10G25G12G17G05G04G02
 -18238625.49247 -14196082.36346  21077034.2584                   21077032.6484
 -14530170.41447 -11303180.49245  22659929.7894                   22659929.7974
 -21646177.13748 -16858574.03546  20718790.3364                   20718787.4804
    116595.25047    106847.10944  24080592.2894                   24080589.7974
 -13969419.53948 -10854217.19146  20864162.0314                   20864159.5124
   3612722.25047   2832002.60544  22715192.0944                   22715189.4024
 -20162878.32048 -15694809.01246  20615150.0784                   20615145.4844
 11  7 25  2 46 30.0000000  0  7G10G25G12G17G05G04G02
 -18178062.49247 -14148890.40646  21088559.7424                   21088557.6134
 -14588382.90647 -11348540.80945  22648851.9384                   22648851.5744
 -21643631.95348 -16856590.75446  20719274.7814                   20719271.7274
    204504.80146    175348.02743  24097320.2734                   24097319.2034
 -14012479.59848 -10887770.44946  20855967.9774                   20855965.2234
   3713637.16447   2910637.57844  22734395.4614                   22734394.1254
 -20126140.34448 -15666182.01246  20622141.1564                   20622136.3754
 11  7 25  2 47  0.0000000  0  7G10G25G12G17G05G04G02
 -18116928.59048 -14101253.58246  21100193.0394                   21100190.4964
 -14646211.95347 -11393602.35945  22637847.7814                   22637846.9654
 -21640522.28548 -16854167.62546  20719866.5864                   20719864.0314
    292582.99646    243980.40644  24114081.1724                   24114079.8404
 -14055059.49248 -10920949.55146  20847865.1564                   20847862.8164
   3814571.41447   2989287.62544  22753602.6954                   22753600.3524
 -20089198.21948 -15637395.92646  20629170.9144                   20629166.3244
 11  7 25  2 47 30.0000000  0  7G10G25G12G17G05G04G02
 -18055218.27047 -14053167.60246  21111936.4694                   21111934.2624
 -14703647.69547 -11438357.46545  22626917.9144                   22626917.4494
 -21636840.52748 -16851298.69946  20720566.8444                   20720563.9024
    380837.23846    312749.93443  24130874.5554                   24130874.3364
 -14097149.88748 -10953747.23046  20839855.4614                   20839853.3874
   3915531.05147   3067957.45744  22772814.4694                   22772812.6334
 -20052045.91448 -15608446.05146  20636240.7034                   20636236.0314
 11  7 25  2 48  0.0000000  0  7G10G25G12G17G05G04G02
 -17992930.41847 -14004631.59846  21123788.8364                   21123786.8554
 -14760685.00847 -11482802.05145  22616063.3204                   22616064.8244
 -21632583.29348 -16847981.35246  20721377.2974                   20721374.3834
    469270.23046    381658.78943  24147702.8524                   24147703.0164
 -14138746.10948 -10986159.81646  20831939.9924                   20831937.4804
   4016517.64147   3146648.32044  22792031.8834                   22792029.6454
 -20014681.56648 -15579330.96546  20643350.7424                   20643346.4884
 11  7 25  2 48 30.0000000  0  7G10G25G12G17G05G04G02
 -17930066.77047 -13955646.92246  21135751.5864                   21135748.8094
 -14817321.51647 -11526934.34445  22605286.4144                   22605287.2734
 -21627749.89548 -16844215.06247  20722297.0634                   20722294.4104
    557882.11746    450707.01643  24164565.5784                   24164564.6374
 -14179846.32048 -11018185.91446  20824118.5004                   20824116.6644
   4117529.71147   3225359.02744  22811252.9844                   22811252.2624
 -19977106.55148 -15550051.71546  20650500.9844                   20650496.5164
 11  7 25  2 49  0.0000000  0  7G10G25G12G17G05G04G02
 -17866630.53947 -13906216.07445  21147823.0004                   21147820.7894
 -14873555.86347 -11570753.28145  22594584.9924                   22594586.2464
 -21622340.56248 -16839999.98046  20723326.2344                   20723323.9884
    646671.64145    519893.65643  24181462.0394                   24181459.3404
 -14220449.69148 -11049824.86346  20816391.7664                   20816389.6094
   4218565.00047   3304087.84044  22830480.4224                   22830478.2624
 -19939323.09448 -15520610.04746  20657691.0004                   20657686.1524
 11  7 25  2 49 30.0000000  0  7G10G25G12G17G05G04G02
 -17802621.41847 -13856338.81246  21160003.1644                   21160001.1174
 -14929383.77347 -11614255.48445  22583961.5164                   22583962.4924
 -21616352.69548 -16835334.09446  20724465.8204                   20724463.3594
    735640.61146    589220.13343  24198393.7664                   24198390.9414
 -14260552.62548 -11081073.87146  20808760.7664                   20808758.6484
   4319624.21947   3382835.27044  22849711.5784                   22849708.5944
 -19901330.38748 -15491005.31246  20664921.3364                   20664916.4964
 11  7 25  2 50  0.0000000  0  7G10G25G12G17G05G04G02
 -17738044.72747 -13806019.30546  21172291.9304                   21172290.2234
 -14984806.13347 -11657441.69945  22573414.3054                   22573415.6994
 -21609789.17248 -16830219.64546  20725715.1174                   20725712.0394
    824785.24645    658683.51242  24215355.1414                   24215354.4264
 -14300156.75048 -11111934.19546  20801224.4304                   20801222.0314
   4420702.62947   3461597.68844  22868945.3284                   22868943.1334
 -19863132.95348 -15461241.06246  20672189.7504                   20672184.9694
 11  7 25  2 50 30.0000000  0  7G10G25G12G17G05G04G02
 -17672904.51648 -13755260.69946  21184687.7584                   21184685.8164
 -15039822.79747 -11700311.76645  22562945.7894                   22562946.3284
 -21602651.43048 -16824657.76646  20727073.0394                   20727070.5204
    914103.94946    728282.46543  24232353.4064                   24232352.0664
 -14339261.88348 -11142405.68746  20793783.0004                   20793780.4224
   4521796.68447   3540372.31344  22888183.2274                   22888181.9184
 -19824734.16448 -15431319.91846  20679496.8674                   20679492.2114
 11  7 25  2 51  0.0000000  0  7G10G25G12G17G05G04G02
 -17607203.57447 -13704065.15646  21197190.4304                   21197187.9414
 -15094432.14147 -11742864.44945  22552553.3054                   22552554.6604
 -21594939.77048 -16818648.67246  20728540.7194                   20728537.6804
   1003595.53145    798016.16843  24249382.2894                   24249381.9344
 -14377867.47748 -11172487.92646  20786436.3284                   20786434.1214
   4622904.55547   3619157.68044  22907423.1954                   22907421.8444
 -19786135.93448 -15401243.35946  20686841.5784                   20686837.1334
 11  7 25  2 51 30.0000000  0  7G10G25G12G17G05G04G02
 -17540949.55548 -13652438.64146  21209797.7734                   21209796.0084
 -15148637.75847 -11785102.52345  22542238.3984                   22542238.3714
 -21586659.59448 -16812196.57046  20730116.2034                   20730113.3874
   1093254.07846    867879.99643  24266443.6564                   24266442.2664
 -14415977.56648 -11202184.05946  20779184.2894                   20779181.7344
   4724019.12547   3697948.24244  22926664.4614                   22926663.2194
 -19747345.12948 -15371016.75046  20694223.2114                   20694218.6844
 11  7 25  2 52  0.0000000  0  7G10G25G12G17G05G04G02
 -17474130.40647 -13600371.76646  21222513.2274                   21222510.7154
 -15202423.32847 -11827013.30145  22532003.5394                   22532003.3324
 -21577796.62548 -16805290.34446  20731802.8134                   20731800.1054
   1183093.27745    937884.53142  24283538.3914                   24283537.8594
 -14453576.87948 -11231482.19946  20772029.4304                   20772027.0164
   4825152.84047   3776753.70744  22945909.5704                   22945908.8484
 -19708349.21148 -15340630.29746  20701643.8984                   20701639.1484
 11  7 25  2 52 30.0000000  0  7G10G25G12G17G05G04G02
 -17406759.07447 -13547874.61346  21235333.6254                   21235331.2114
 -15255797.25847 -11868603.30945  22521846.9304                   22521847.1254
 -21568360.75448 -16797937.70346  20733598.0394                   20733595.3054
   1273102.47346   1008021.58242  24300668.1024                   24300665.9064
 -14490674.05548 -11260389.06246  20764970.0704                   20764967.3794
   4926293.93047   3855564.93044  22965156.6174                   22965154.5434
 -19669159.91048 -15310093.17646  20709101.5234                   20709096.8094
 11  7 25  2 53  0.0000000  0  7G10G25G12G17G05G04G02
 -17338829.43447 -13494942.41446  21248260.1804                   21248258.0274
 -15308749.09847 -11909864.41845  22511770.6174                   22511770.8524
 -21558343.66048 -16790132.17246  20735504.8134                   20735501.3794
   1363289.50446   1078297.12543  24317830.1334                   24317828.8404
 -14527259.05148 -11288896.81646  20758008.1724                   20758005.9384
   5027449.48446   3934387.40644  22984405.0314                   22984404.7734
 -19629770.16848 -15279399.84446  20716596.9144                   20716592.7624
 11  7 25  2 53 30.0000000  0  7G10G25G12G17G05G04G02
 -17270343.32447 -13441576.60245  21261292.3594                   21261290.6054
 -15361276.42647 -11950794.72745  22501774.8984                   22501775.1604
 -21547744.48448 -16781873.05946  20737521.8134                   20737518.3634
   1453654.72346   1148711.61742  24335025.6804                   24335024.4804
 -14563330.56248 -11317004.45746  20751144.0864                   20751141.2034
   5128618.00047   4013219.98844  23003657.3524                   23003656.7384
 -19590181.27348 -15248551.34446  20724130.5474                   20724125.3834
 11  7 25  2 54  0.0000000  0  7G10G25G12G17G05G04G02
 -17201299.44147 -13387776.17246  21274431.2424                   21274429.3984
 -15413373.42247 -11991389.76645  22491860.4924                   22491860.5274
 -21536559.68048 -16773157.61746  20739649.6334                   20739647.0824
   1544200.98046   1219267.07043  24352257.2974                   24352256.0904
 -14598883.13748 -11344707.71546  20744378.5164                   20744375.6884
   5229802.04347   4092064.71944  23022911.7114                   23022910.2774
 -19550390.80948 -15217545.78146  20731702.4304                   20731697.8404
 11  7 25  2 54 30.0000000  0  7G10G25G12G17G05G04G02
 -17131706.75047 -13333548.07445  21287674.1254                   21287672.2384
 -15465044.83247 -12031653.18045  22482027.9844                   22482029.1524
 -21524795.91048 -16763991.02346  20741888.2664                   20741885.5784
   1634921.09446   1289958.05543  24369520.0084                   24369518.5164
 -14633922.27748 -11372010.91446  20737710.6254                   20737707.7274
   5330993.21147   4170914.95744  23042167.6804                   23042166.7774
 -19510407.06648 -15186389.60246  20739311.0784                   20739306.0204
 11  7 25  2 55  0.0000000  0  7G10G25G12G17G05G04G02
 -17061565.85247 -13278892.80545  21301021.8364                   21301019.8244
 -15516286.80547 -12071581.91045  22472276.9384                   22472277.5864
 -21512450.80148 -16754371.44546  20744237.7344                   20744234.6134
   1725816.97346   1360786.03143  24386817.0634                   24386814.4774
 -14668444.73848 -11398911.51246  20731141.2894                   20731138.4304
   5432192.09446   4249771.23844  23061424.5314                   23061424.2854
 -19470229.05548 -15155082.04746  20746956.8284                   20746951.8484
 11  7 25  2 55 30.0000000  0  7G10G25G12G17G05G04G02
 -16990879.81247 -13223812.75445  21314472.4694                   21314470.1294
 -15567097.92647 -12111174.93445  22462607.8204                   22462607.7274
 -21499525.20748 -16744299.53946  20746697.5164                   20746694.3094
   1816887.38346   1431750.00842  24404147.2894                   24404144.8324
 -14702450.13348 -11425409.18446  20724669.9694                   20724667.6214
   5533396.66446   4328631.88744  23080684.0004                   23080683.1134
 -19429858.87548 -15123624.75846  20754638.7894                   20754633.3134
 11  7 25  2 56  0.0000000  0  8G10G25G12G29G17G05G04G02
 -16919643.29747 -13168303.77045  21328028.5234                   21328026.1644
 -15617468.28147 -12150424.47745  22453022.9534                   22453023.2974
 -21486011.47348 -16733769.34446  20749268.6334                   20749266.0984
                                  24456410.852
   1908139.66446   1502855.68042  24421510.2584                   24421510.0124
 -14735929.14148 -11451496.70346  20718299.2424                   20718296.7154
   5634613.36747   4407502.00844  23099945.5704                   23099943.1414
 -19389290.37948 -15092012.92246  20762358.6094                   20762353.7154
 11  7 25  2 56 30.0000000  0  8G10G25G12G29G17G05G04G02
 -16847863.43447 -13112371.40246  21341687.8284                   21341685.5164
 -15667401.14147 -12189333.14845  22443520.5864                   22443520.9964
 -21471914.46148 -16722784.62946  20751951.2734                   20751948.5204
  -6556072.34015                  24444429.594
   1999568.20346   1574098.73042  24438908.8364                   24438907.2424
 -14768885.63348 -11477177.05146  20712027.8054                   20712025.5864
   5735835.40247   4486376.28944  23119207.0474                   23119206.1914
 -19348530.16448 -15060251.69946  20770115.2734                   20770110.3134
 11  7 25  2 57  0.0000000  0  8G10G25G12G29G17G05G04G02
 -16775541.08647 -13056016.33246  21355450.2664                   21355448.3134
 -15716892.88347 -12227898.09845  22434102.5474                   22434103.8634
 -21457232.65648 -16711344.25446  20754745.3984                   20754742.4494
  -6619086.30115                  24432439.219
   2091174.34846   1645480.12542  24456341.8524                   24456340.3014
 -14801316.58248 -11502447.89547  20705856.5554                   20705854.0824
   5837063.16847   4565255.06644  23138470.0004                   23138468.5314
 -19307577.89548 -15028340.82046  20777908.0474                   20777903.3054
 11  7 25  2 57 30.0000000  0  8G10G25G12G29G17G05G04G02
 -16702680.77347 -12999242.04346  21369315.3444                   21369313.0004
 -15765943.43447 -12266119.25445  22424768.2664                   22424769.2544
 -21441967.93748 -16699449.65646  20757650.1174                   20757646.8634
  -6682161.531 5                  24420434.711
   2182955.55546   1716997.98042  24473806.7734                   24473805.2584
 -14833222.87548 -11527309.91446  20699784.7814                   20699782.1954
   5938293.30547   4644135.73044  23157733.5474                   23157731.2704
 -19266436.70748 -14996282.73046  20785737.0314                   20785732.0084
 11  7 25  2 58  0.0000000  0  8G10G25G12G29G17G05G04G02
 -16629284.25448 -12942049.93046  21383282.2664                   21383279.9264
 -15814550.00847 -12303994.46545  22415518.6884                   22415520.0084
 -21426119.40248 -16687100.12946  20760666.0864                   20760662.9924
  -6745297.027 5                  24408422.055
   2274911.92646   1788652.28142  24491307.2034                   24491303.4144
 -14864602.31648 -11551761.39546  20693813.2274                   20693810.5824
   6039525.34847   4723017.81644  23176997.8204                   23176995.4264
 -19225107.22348 -14964077.90646  20793601.4454                   20793597.0864
 11  7 25  2 58 30.0000000  0  8G10G25G12G29G17G05G04G02
 -16555352.94548 -12884441.10546  21397350.6094                   21397348.0474
 -15862709.93047 -12341521.62146  22406354.7344                   22406354.7194
 -21409686.60248 -16674295.34446  20763792.9064                   20763789.9184
  -6808491.902 5                  24396395.172
   2367044.08246   1860443.52342  24508838.4144                   24508836.5984
 -14895453.07848 -11575800.91846  20687942.6564                   20687939.4774
   6140758.53547   4801900.80144  23196261.1954                   23196259.8954
 -19183590.02748 -14931726.82446  20801501.7894                   20801497.0864
 11  7 25  2 59  0.0000000  0  8G10G25G12G29G17G05G04G02
 -16480884.82448 -12826413.98846  21411521.0554                   21411518.9964
 -15910416.46947 -12378695.51246  22397275.9064                   22397277.0084
 -21392664.35548 -16661031.24246  20767031.9694                   20767029.1724
  -6871741.137 5                  24384360.563
   2459356.42245   1932375.21142  24526404.4694                   24526402.7624
 -14925769.03948 -11599423.71546  20682173.8754                   20682171.3364
   6241996.45747   4880787.45344  23215526.8364                   23215524.7424
 -19141881.84048 -14899226.90646  20809438.9224                   20809434.0434
 11  7 25  2 59 30.0000000  0  7G10G25G12G29G05G04G02
 -16405882.78947 -12767970.83645  21425793.5944                   21425791.5394
 -15957668.46547 -12415515.15646  22388284.8054                   22388284.9384
 -21375054.23048 -16647309.05946  20770382.9064                   20770380.4494
  -6935044.684 5                  24372314.289
 -14955549.79348 -11622629.46946  20676506.3054                   20676504.4694
   6343236.95346   4959676.15244  23234791.6884                   23234790.0084
 -19099984.41448 -14866579.53946  20817411.9694                   20817407.1994
 11  7 25  3  0  0.0000000  0  7G10G25G12G29G05G04G02
 -16330353.88348 -12709117.16045  21440167.1564                   21440164.2154
 -16004468.12948 -12451982.36346  22379378.7664                   22379379.2854
 -21356860.37548 -16633132.02346  20773845.3204                   20773842.8244
  -6998406.766 6                  24360255.281
 -14984798.35948 -11645420.53546  20670940.6954                   20670938.3714
   6444474.48446   5038562.52343  23254056.3674                   23254054.6524
 -19057903.64848 -14833789.31246  20825419.3204                   20825414.1334
 11  7 25  3  0 30.0000000  0  7G10G25G12G29G05G04G02
 -16254294.88747 -12649850.40646  21454640.2584                   21454638.4734
 -16050807.58647 -12488090.96945  22370560.4064                   22370561.4064
 -21338077.08248 -16618495.68046  20777419.8674                   20777416.8524
  -7061821.16046  -5477195.37953  24348188.2424                   24348185.2424
 -15013507.80948 -11667791.51646  20665477.4304                   20665475.3834
   6545713.98046   5117450.46143  23273321.4224                   23273319.4494
 -19015634.59448 -14800852.35946  20833462.8754                   20833458.2424
 11  7 25  3  1  0.0000000  0  7G10G25G12G29G05G04G02
 -16177705.60948 -12590170.44145  21469214.4614                   21469212.6684
 -16096682.82847 -12523837.83245  22361830.6174                   22361830.6054
 -21318702.07848 -16603398.27746  20781106.3524                   20781103.9804
  -7125284.93046  -5526647.62943  24336112.0704                   24336111.3984
 -15041674.96948 -11689739.92646  20660117.4844                   20660114.9694
   6646956.06346   5196340.37543  23292586.9454                   23292586.6454
 -18973176.65248 -14767768.22346  20841542.3524                   20841537.7504
 11  7 25  3  1 30.0000000  0  7G10G25G12G29G05G04G02
 -16100584.65247 -12530076.18746  21483889.9224                   21483887.9104
 -16142087.89547 -12559218.34845  22353189.6884                   22353189.9384
 -21298731.58648 -16587836.85246  20784906.9304                   20784903.6844
  -7188793.66446  -5576134.85343  24324026.4144                   24324026.0124
 -15069294.55148 -11711261.64846  20654861.6024                   20654859.0004
   6748203.46146   5275234.41444  23311854.2894                   23311853.8484
 -18930526.90648 -14734534.64546  20849658.4614                   20849653.8984
 11  7 25  3  2  0.0000000  0  7G10G25G12G29G05G04G02
 -16022942.60947 -12469575.88746  21498664.9144                   21498662.4224
 -16187028.66048 -12594237.04745  22344638.6174                   22344639.1254
 -21278173.41048 -16571817.49646  20788818.9224                   20788815.9104
  -7252354.84846  -5625662.94943  24311930.7894                   24311930.6254
 -15096373.20348 -11732361.87946  20649708.4384                   20649705.6174
   6849447.39546   5354125.75044  23331119.4924                   23331119.6524
 -18887694.53548 -14701158.75046  20857808.8834                   20857804.1414
 11  7 25  3  2 30.0000000  0  7G10G25G12G29G05G04G02
 -15944782.37547 -12408671.79346  21513538.5944                   21513535.9534
 -16231503.63747 -12628892.82445  22336175.0784                   22336174.7344
 -21257028.70748 -16555341.10246  20792842.1024                   20792839.4024
  -7315968.46146  -5675231.91043  24299825.8524                   24299825.3634
 -15122910.35247 -11753040.14146  20644658.8054                   20644656.2114
   6950685.78947   5433012.83644  23350385.4384                   23350383.5944
 -18844681.21548 -14667641.86346  20865994.0634                   20865989.4774
 11  7 25  3  3  0.0000000  0  7G10G25G12G29G05G04G02
 -15866109.04347 -12347367.89846  21528509.3914                   21528507.3954
 -16275513.84448 -12663186.41046  22327800.1094                   22327800.6604
 -21235300.37948 -16538409.93746  20796977.3284                   20796974.4144
  -7379637.10947  -5724843.74644  24287709.6724                   24287709.6294
 -15148907.50047 -11773297.62946  20639711.5704                   20639709.3284
   7051914.87547   5511892.62544  23369648.5004                   23369646.1414
 -18801491.08248 -14633987.21146  20874213.1174                   20874208.6454
 11  7 25  3  3 30.0000000  0  7G10G25G12G29G05G04G02
 -15786917.23847 -12285660.00445  21543578.7894                   21543576.9884
 -16319049.20747 -12697110.02046  22319515.3204                   22319516.0394
 -21212980.57848 -16521017.87546  20801224.8674                   20801222.0784
  -7443352.09846  -5774491.66044  24275584.8444                   24275585.2504
 -15174355.99648 -11793127.60546  20634869.2814                   20634866.5004
   7153141.55547   5590770.54344  23388911.6414                   23388909.8984
 -18758117.30948 -14600189.46146  20882466.8834                   20882462.1484
 11  7 25  3  4  0.0000000  0  7G10G25G12G29G05G04G02
 -15707212.78147 -12223552.62545  21558746.2274                   21558744.0664
 -16362110.82047 -12730664.48446  22311321.4144                   22311321.6564
 -21190072.50448 -16503167.42246  20805583.9534                   20805581.0704
  -7507115.69547  -5824177.44144  24263451.3054                   24263450.7074
 -15199257.53548 -11812531.37546  20630130.7584                   20630127.3244
   7254361.52047   5669643.25044  23408172.4924                   23408172.0594
 -18714563.96548 -14566251.78546  20890754.8594                   20890749.9654
 11  7 25  3  4 30.0000000  0  7G10G25G12G29G05G04G02
 -15626996.81247 -12161046.65245  21574010.6174                   21574008.7074
 -16404695.66847 -12763847.44945  22303217.2584                   22303217.1844
 -21166575.21548 -16484857.84446  20810055.7894                   20810052.7384
  -7570926.24647  -5873899.85544  24251308.6884                   24251308.8204
 -15223609.66848 -11831507.03146  20625496.4844                   20625493.5434
   7355575.03547   5748510.90644  23427433.8444                   23427433.3444
 -18670831.32448 -14532174.40246  20899076.6884                   20899072.3404
 11  7 25  3  5  0.0000000  0  7G10G25G12G29G05G04G02
 -15546275.24647 -12098146.73045  21589371.2034                   21589369.3984
 -16446804.99247 -12796659.87945  22295204.0084                   22295204.3094
 -21142491.93748 -16466091.64146  20814638.4144                   20814635.3204
  -7634786.82047  -5923661.22744  24239155.8754                   24239155.9344
 -15247414.51648 -11850056.24247  20620966.5004                   20620963.5474
   7456777.71147   5827370.13344  23446690.8914                   23446690.5594
 -18626923.33248 -14497960.37146  20907432.2194                   20907427.4884
 11  7 25  3  5 30.0000000  0  7G10G25G12G29G05G04G02
 -15465048.26647 -12034852.98445  21604828.5704                   21604827.2504
 -16488434.46148 -12829098.37545  22287282.0864                   22287283.0824
 -21117820.99648 -16446867.51646  20819332.9454                   20819329.6374
  -7698694.06647  -5973458.96944  24226995.4534                   24226994.6884
 -15270669.07047 -11868176.65247  20616541.5164                   20616538.7384
   7557970.84847   5906221.91444  23465947.9614                   23465946.1644
 -18582838.76648 -14463608.74246  20915821.4694                   20915816.0354
 11  7 25  3  6  0.0000000  0  7G10G25G12G29G05G04G02
 -15383320.78548 -11971169.22745  21620380.7734                   21620378.6454
 -16529584.73848 -12861163.48445  22279452.1024                   22279452.0234
 -21092565.11748 -16427187.60546  20824138.8284                   20824135.6414
  -7762649.95747  -6023294.61744  24214824.7584                   24214824.2974
 -15293374.63748 -11885869.27346  20612220.3284                   20612218.0354
   7659150.97747   5985063.59044  23485202.5864                   23485200.1524
 -18538581.29348 -14429122.38746  20924242.9534                   20924238.1524
 11  7 25  3  6 30.0000000  0  7G10G25G12G29G05G04G02
 -15301092.42247 -11907095.15245  21636027.8524                   21636025.8054
 -16570250.75048 -12892851.24646  22271713.5314                   22271713.7074
 -21066721.39148 -16407049.62546  20829056.8054                   20829054.4384
  -7826650.60946  -6073165.13744  24202645.4454                   24202645.1684
 -15315526.96148 -11903130.79347  20608005.0784                   20608002.3714
   7760320.21547   6063896.75443  23504453.6564                   23504451.5664
 -18494149.26648 -14394500.02046  20932698.0704                   20932693.1454
 11  7 25  3  7  0.0000000  0  7G10G25G12G29G05G04G02
 -15218367.92248 -11842634.48445  21651770.1954                   21651768.6414
 -16610432.80548 -12924161.91046  22264067.1564                   22264066.4264
 -21040292.45748 -16386455.62946  20834086.2034                   20834083.4534
  -7890697.63746  -6123071.82444  24190457.7584                   24190456.9534
 -15337127.15248 -11919962.08247  20603894.7664                   20603892.1644
   7861475.31347   6142718.91843  23523701.6414                   23523701.3754
 -18449545.87148 -14359744.12946  20941185.5864                   20941181.4414
 11  7 25  3  7 30.0000000  0  7G10G25G12G29G05G04G02
 -15135145.66848 -11777785.97745  21667607.2274                   21667604.4844
 -16650124.81248 -12955090.74646  22256513.8754                   22256513.9574
 -21013274.46548 -16365402.64546  20839227.5784                   20839224.5634
  -7954786.02346  -6173010.70344  24178262.6334                   24178261.0474
 -15358170.25448 -11936359.27746  20599889.9924                   20599887.6294
   7962619.50846   6221532.58643  23542951.3444                   23542948.4774
 -18404767.68748 -14324852.03146  20949707.2114                   20949701.7384
 11  7 25  3  8  0.0000000  0  7G10G25G12G29G05G04G02
 -15051432.49248 -11712554.91845  21683536.6804                   21683534.6604
 -16689329.20348 -12985639.59446  22249053.6254                   22249053.9774
 -20985671.96148 -16343894.19546  20844480.1174                   20844477.2894
  -8018919.59446  -6222984.78144  24166057.6254                   24166056.9574
 -15378659.69948 -11952325.04746  20595991.6024                   20595988.3134
   8063747.35946   6300333.51243  23562192.6644                   23562191.9804
 -18359820.20348 -14289828.00046  20958259.9694                   20958254.8524
 11  7 25  3  8 30.0000000  0  7G10G25G12G29G05G04G02
 -14967233.89548 -11646945.60945  21699559.4694                   21699557.4534
 -16728046.99648 -13015809.28946  22241685.4694                   22241686.5984
 -20957488.45348 -16321933.01646  20849843.0004                   20849840.5664
  -8083100.66846  -6272995.87544  24153844.3914                   24153844.3284
 -15398597.13748 -11967860.68446  20592197.0704                   20592194.5744
   8164855.18446   6379118.82443  23581434.5864                   23581432.4774
 -18314707.46548 -14254675.19946  20966844.8594                   20966840.2424
 11  7 25  3  9  0.0000000  0  7G10G25G12G29G05G04G02
 -14882548.53147 -11580956.99245  21715674.6484                   21715672.2854
 -16766272.46548 -13045595.35246  22234411.6254                   22234412.2464
 -20928720.58648 -16299516.48446  20855317.3524                   20855314.6724
  -8147324.24646  -6323040.04744  24141623.0394                   24141622.0824
 -15417978.27348 -11982962.84047  20588509.0864                   20588506.7814
   8265945.75846   6457890.70743  23600670.8594                   23600668.6294
 -18269426.75448 -14219391.51646  20975461.2504                   20975456.4384
 11  7 25  3  9 30.0000000  0  7G10G25G12G29G05G04G02
 -14797377.51248 -11514589.93445  21731882.1644                   21731879.8364
 -16804002.43448 -13074995.30546  22227232.2974                   22227231.9694
 -20899366.76648 -16276643.37546  20860903.5004                   20860900.2194
  -8211588.74646  -6373116.11744  24129393.0394                   24129393.1764
 -15436800.09848 -11997629.16847  20584927.4774                   20584924.9264
   8367019.39546   6536649.39143  23619904.1024                   23619902.4414
 -18223977.52748 -14183976.52746  20984110.1644                   20984105.3524
 11  7 25  3 10  0.0000000  0  7G10G25G12G29G05G04G02
 -14711727.22348 -11447849.44145  21748180.7814                   21748178.2814
 -16841238.66448 -13104010.51646  22220145.8284                   22220146.1994
 -20869431.89548 -16253317.49246  20866599.8134                   20866596.8524
  -8275896.69546  -6423226.06243  24117155.1334                   24117155.5164
 -15455065.80948 -12011862.15647  20581451.5084                   20581448.8364
   8468071.99246   6615391.66043  23639135.0394                   23639131.4064
 -18178364.72348 -14148434.07446  20992789.9454                   20992785.5864
 11  7 25  3 10 30.0000000  0  7G10G25G12G29G05G04G02
 -14625598.94148 -11380736.48045  21764570.5784                   21764568.0864
 -16877977.81248 -13132638.39145  22213154.8984                   22213153.7034
 -20838914.67248 -16229537.84446  20872406.9694                   20872403.9104
  -8340246.05546  -6473368.18744  24104910.5314                   24104910.8244
 -15472772.80148 -12025659.78547  20578081.6174                   20578079.4144
   8569103.85546   6694117.79743  23658360.8284                   23658356.9304
 -18132587.85548 -14112763.77046  21001500.6884                   21001495.8714
 11  7 25  3 11  0.0000000  0  7G10G25G12G29G05G04G02
 -14538987.87547 -11313247.32445  21781051.5944                   21781050.0554
 -16914210.82448 -13160871.87546  22206259.7274                   22206259.5394
 -20807808.41048 -16205299.17646  20878326.3204                   20878323.3754
  -8404628.68446  -6523536.28144  24092659.8524                   24092658.5554
 -15489913.35548 -12039016.03547  20574820.1724                   20574817.6954
   8670121.20347   6772832.62944  23677583.0784                   23677580.4774
 -18086640.58648 -14076960.68046  21010244.6094                   21010240.0594
 11  7 25  3 11 30.0000000  0  7G10G25G12G29G05G04G02
 -14451904.98447 -11245390.52745  21797623.4534                   21797620.7734
 -16949944.25048 -13188716.05146  22199460.3594                   22199459.9884
 -20776121.41048 -16180608.01246  20884356.3834                   20884353.3794
  -8469052.30546  -6573736.34844  24080399.7974                   24080398.9654
 -15506495.12548 -12051936.87147  20571664.7894                   20571662.0354
   8771115.00846   6851529.10243  23696801.2344                   23696799.5744
 -18040532.02048 -14041031.91846  21019018.6174                   21019014.1094
 11  7 25  3 12  0.0000000  0  7G10G25G12G29G05G04G02
 -14364350.85948 -11177166.50445  21814284.6094                   21814281.5314
 -16985174.24648 -13216167.96146  22192756.2114                   22192755.6454
 -20743852.77348 -16155463.60946  20890497.1174                   20890494.2234
  -8533513.94547  -6623966.07044  24068132.6094                   24068131.8794
 -15522514.47748 -12064419.45347  20568616.1094                   20568613.8284
   8872086.30147   6930208.05544  23716015.2194                   23716013.7734
 -17994261.41448 -14004976.87946  21027823.8754                   21027818.5664
 11  7 25  3 12 30.0000000  0  7G10G25G12G29G05G04G02
 -14276332.48447 -11108580.74245  21831033.8444                   21831031.5124
 -17019903.55948 -13243229.70746  22186147.2034                   22186147.7504
 -20711007.63348 -16129869.99646  20896746.8674                   20896744.2504
  -8598017.19547  -6674228.20744  24055858.3984                   24055856.5864
 -15537975.29748 -12076466.81647  20565674.1414                   20565671.6024
   8973029.93047   7008865.41044  23735224.2584                   23735223.5984
 -17947834.02748 -13968799.69546  21036658.8914                   21036653.7974
 11  7 25  3 13  0.0000000  0  7G10G25G12G29G05G04G02
 -14187852.52048 -11039635.31245  21847870.9534                   21847868.7704
 -17054130.22348 -13269899.78946  22179633.8594                   22179634.0864
 -20677586.12548 -16103827.25046  20903107.1724                   20903103.9734
  -8662561.14547  -6724522.07044  24043575.2894                   24043574.3204
 -15552876.96948 -12088078.48047  20562838.4614                   20562835.7854
   9073945.26647   7087500.76244  23754428.5634                   23754427.2034
 -17901250.81647 -13932501.07446  21045522.7114                   21045517.6684
 11  7 25  3 13 30.0000000  0  7G10G25G12G29G05G04G02
 -14098914.52048 -10970332.96545  21864795.2274                   21864792.3054
 -17087853.14548 -13296177.36746  22173216.8444                   22173216.7234
 -20643589.59448 -16077336.44546  20909575.9144                   20909573.3364
  -8727145.67247  -6774847.52744  24031285.7114                   24031284.3094
 -15567219.28548 -12099254.28547  20560109.1564                   20560106.7504
   9174830.68047   7166112.74644  23773627.0554                   23773625.2814
 -17854513.44948 -13896082.33246  21054416.7974                   21054412.2114
 11  7 25  3 14  0.0000000  0  7G10G25G12G29G05G04G02
 -14009510.38348 -10900667.39845  21881808.2584                   21881805.9144
 -17121060.12548 -13322052.88346  22166897.6644                   22166897.4614
 -20609007.93448 -16050389.69546  20916156.6564                   20916154.0434
  -8791759.24246  -6825195.68044  24018990.0784                   24018988.4144
 -15580991.14148 -12109985.56647  20557488.2974                   20557486.2384
   9275695.97747   7244709.07844  23792820.1024                   23792819.0314
 -17807612.15248 -13859535.85246  21063341.8134                   21063337.6374
 11  7 25  3 14 30.0000000  0  7G10G25G12G29G05G04G02
 -13919655.23847 -10830650.39545  21898907.0004                   21898904.7424
 -17153761.84048 -13347534.70746  22160674.6724                   22160674.4534
 -20573854.62948 -16022997.50846  20922846.4144                   20922843.4534
  -8856413.77347  -6875575.73844  24006686.0784                   24006684.9614
 -15594204.12148 -12120281.35947  20554974.4694                   20554971.3834
   9376528.02747   7323279.49644  23812009.1564                   23812006.7274
 -17760560.46948 -13822872.18446  21072295.1094                   21072290.5514
 11  7 25  3 15  0.0000000  0  7G10G25G12G29G05G04G02
 -13829344.49648 -10760278.37545  21916092.4454                   21916090.1094
 -17185949.02048 -13372615.57446  22154549.1724                   22154549.5204
 -20538122.64548 -15995154.39546  20929646.2194                   20929642.9614
  -8921100.71147  -6925981.06644  23994377.2504                   23994375.0664
 -15606849.55148 -12130134.92647  20552568.1024                   20552564.9494
   9477333.32846   7401829.07844  23831190.4694                   23831189.0514
 -17713351.75048 -13786086.16846  21081278.6564                   21081273.8164
 11  7 25  3 15 30.0000000  0  7G10G25G12G29G05G04G02
 -13738578.34848 -10689551.47745  21933364.8834                   21933362.3524
 -17217617.77048 -13397292.46946  22148523.0634                   22148522.4734
 -20501809.92648 -15966858.77046  20936555.6414                   20936553.0514
  -8985816.56647  -6976408.93744  23982062.0864                   23982060.1374
 -15618924.96148 -12139544.30947  20550269.7664                   20550266.9884
   9578113.41047   7480358.98444  23850368.1484                   23850366.4964
 -17665984.51648 -13749176.61746  21090292.2734                   21090287.4804
 11  7 25  3 16  0.0000000  0  7G10G25G12G29G05G04G02
 -13647364.01648 -10618475.37145  21950722.3524                   21950720.0704
 -17248770.98048 -13421567.67246  22142594.6884                   22142594.8284
 -20464922.61348 -15938115.38746  20943575.8054                   20943572.6334
  -9050565.05547  -7026862.23444  23969740.8204                   23969739.7974
 -15630434.17248 -12148512.49247  20548079.6254                   20548076.7774
   9678863.06646   7558865.18444  23869541.1254                   23869538.9494
 -17618464.52347 -13712148.03546  21099335.1644                   21099331.0744
 11  7 25  3 16 30.0000000  0  7G10G25G12G29G05G04G02
 -13555703.43748 -10547051.54745  21968165.0634                   21968162.9964
 -17279406.31648 -13445439.32446  22136765.0084                   22136765.2464
 -20427460.54348 -15908924.16846  20950704.0394                   20950701.7664
  -9115344.60947  -7077339.71544  23957413.6024                   23957412.8954
 -15641376.27348 -12157038.77347  20545997.2974                   20545994.5864
   9779582.15647   7637347.57843  23888706.5164                   23888705.5204
 -17570792.00848 -13675000.62146  21108406.9534                   21108402.1024
 11  7 25  3 17  0.0000000  0  7G10G25G12G29G05G04G02
 -13463596.94548 -10475280.23445  21985692.2114                   21985689.1724
 -17309519.72748 -13468904.28546  22131034.9614                   22131034.6724
 -20389422.07048 -15879283.78146  20957943.0084                   20957939.7074
  -9180152.28547  -7127839.08244  23945080.1804                   23945080.5124
 -15651747.86748 -12165120.51647  20544023.8364                   20544020.9304
   9880272.44146   7715807.54343  23907867.5634                   23907866.3874
 -17522965.35548 -13637733.09046  21117508.4304                   21117502.9224
 11  7 25  3 17 30.0000000  0  7G10G25G12G29G05G04G02
 -13371048.06647 -10403164.24645  22003304.0474                   22003300.5234
 -17339110.02348 -13491961.64146  22125403.7894                   22125403.9344
 -20350807.78548 -15849194.72346  20965290.6024                   20965287.8404
  -9244987.39146  -7178359.84444  23932742.2274                   23932741.9184
 -15661548.83248 -12172757.60547  20542158.9534                   20542155.8284
   9980932.62546   7794244.02043  23927022.2894                   23927021.2234
 -17474985.71948 -13600346.35946  21126638.0474                   21126633.2074
 11  7 25  3 18  0.0000000  0  7G10G25G12G29G05G04G02
 -13278058.52047 -10330704.85545  22020998.8444                   22020996.5664
 -17368174.75048 -13514609.45346  22119872.9224                   22119873.0044
 -20311618.01248 -15818657.23046  20972748.2274                   20972745.1684
  -9309847.52346  -7228900.14844  23920399.9064                   23920399.8634
 -15670777.58248 -12179948.80947  20540402.6094                   20540399.7974
  10081562.95746   7872657.25443  23946171.8364                   23946169.5824
 -17426853.39848 -13562840.64146  21135797.2504                   21135792.7584
 11  7 25  3 18 30.0000000  0  7G10G25G12G29G05G04G02
 -13184632.53147 -10257905.38345  22038777.5004                   22038775.4884
 -17396713.62148 -13536847.51646  22114442.2344                   22114442.3164
 -20271855.21548 -15787673.22346  20980314.8054                   20980312.1054
  -9374733.64547  -7279460.69144  23908053.2274                   23908052.4574
 -15679435.28948 -12186695.05147  20538755.1174                   20538752.1134
  10182161.61746   7951045.83243  23965314.3754                   23965311.9534
 -17378570.45348 -13525217.56246  21144985.5314                   21144980.5004
 11  7 25  3 19  0.0000000  0  7G10G25G12G29G05G04G02
 -14666191.25047 -11412366.74245  21756846.1484                   21756843.3874
 -19000147.65248 -14786276.62146  21809318.9844                   21809319.0394
 -21806940.59848 -16983843.63746  20688197.6884                   20688194.6024
 -11015068.60247  -8557643.67644  23595907.9924                   23595906.8754
 -17262942.99248 -13420597.13347  20237423.7114                   20237420.6254
   8707309.10746   6801810.12543  23684659.6174                   23684657.8914
 -18905557.98048 -14715077.96946  20854409.4304                   20854404.8834
 11  7 25  3 19 30.0000000  0  7G10G25G12G29G05G04G02
 -14571900.85547 -11338893.68045  21774788.4924                   21774786.0784
 -19027630.70748 -14807691.99646  21804088.9144                   21804088.5124
 -21766034.93048 -16951969.07846  20695981.8754                   20695978.5824
 -11080004.49647  -8608242.97744  23583551.0784                   23583549.5554
 -17270457.17248 -13426452.30547  20235993.4384                   20235990.8444
   8807840.90246   6880146.55543  23703791.2734                   23703788.8914
 -18856977.25848 -14677222.86346  20863654.0554                   20863649.3324
 11  7 25  3 20  0.0000000  0  7G10G25G12G29G05G04G02
 -14477180.37147 -11265085.50845  21792813.1174                   21792810.5904
 -19054581.75448 -14828692.79746  21798960.0634                   21798960.2114
 -21724556.95348 -16919648.56246  20703875.1024                   20703871.7544
 -11144961.64147  -8658858.82444  23571189.3284                   23571188.7074
 -17277397.25848 -13431860.15247  20234673.0394                   20234670.0984
   8908340.37946   6958457.84443  23722914.9144                   23722913.5634
 -18808246.99248 -14639251.22746  20872926.7034                   20872921.7544
 11  7 25  3 20 30.0000000  0  7G10G25G12G29G05G04G02
 -14382033.14147 -11190944.82845  21810918.5944                   21810917.0204
 -19080999.38348 -14849277.96146  21793933.3524                   21793933.3204
 -21682508.26648 -16886883.35546  20711876.3984                   20711873.6644
 -11209939.30547  -8709490.67644  23558824.7584                   23558823.3954
 -17283762.98448 -13436820.43047  20233461.5314                   20233458.8054
   9008806.62946   7036743.26643  23742033.4844                   23742030.6094
 -18759368.38748 -14601164.00046  20882228.5084                   20882223.7814
 11  7 25  3 21  0.0000000  0  7G10G25G12G29G05G04G02
 -14286465.00047 -11116476.16045  21829105.0944                   21829102.9774
 -19106885.41848 -14869448.89546  21789007.1254                   21789007.0904
 -21639892.94148 -16853676.60946  20719986.0394                   20719983.3244
 -11274939.74247  -8760140.27344  23546455.3364                   23546454.5084
 -17289556.84848 -13441335.10947  20232359.0474                   20232356.3164
   9109235.52747   7114999.59443  23761145.0554                   23761141.8834
 -18710345.19548 -14562964.11746  20891557.5234                   20891552.5234
 11  7 25  3 21 30.0000000  0  7G10G25G12G29G05G04G02
 -14190477.99647 -11041681.08245  21847370.8364                   21847368.7344
 -19132237.85948 -14889204.03946  21784182.7664                   21784182.6604
 -21596711.20748 -16820028.49246  20728202.7344                   20728200.3554
 -11339961.57846  -8810806.53944  23534082.0634                   23534080.2734
 -17294778.30148 -13445403.75047  20231365.1334                   20231363.0824
   9209627.16047   7193226.88343  23780248.2034                   23780245.6914
 -18661177.85548 -14524651.90246  20900913.6884                   20900908.6644
 11  7 25  3 22  0.0000000  0  7G10G25G12G29G05G04G02
 -14094064.94547 -10966554.03145  21865717.9224                   21865715.3984
 -19157045.00848 -14908534.25846  21779462.2664                   21779462.3794
 -21552954.10248 -16785932.04746  20736529.5864                   20736526.8634
 -11404993.44547  -8861480.65244  23521707.4614                   23521704.8834
 -17299416.74248 -13449018.08647  20230482.7504                   20230480.2854
   9309991.16047   7271432.62143  23799346.5234                   23799344.9184
 -18611857.23848 -14486220.25846  20910298.6884                   20910293.5944
 11  7 25  3 22 30.0000000  0  7G10G25G12G29G05G04G02
 -13997243.02347 -10891108.39545  21884142.7584                   21884140.6334
 -19181319.82448 -14927449.67246  21774843.0164                   21774842.9494
 -21508637.27748 -16751399.44946  20744962.8834                   20744960.1604
 -11470048.63347  -8912172.92244  23509327.9614                   23509325.8794
 -17303486.00048 -13452188.91847  20229708.3914                   20229705.7894
   9410312.41847   7349605.03144  23818436.3524                   23818435.5704
 -18562398.44148 -14447680.93446  20919710.3134                   20919705.5984
 11  7 25  3 23  0.0000000  0  7G10G25G12G29G05G04G02
 -13900007.04347 -10815340.11345  21902646.4144                   21902644.6374
 -19205053.07448 -14945943.08646  21770326.6954                   21770326.8364
 -21463753.70348 -16716425.24246  20753504.0474                   20753500.8324
 -11535118.03547  -8962876.26244  23496944.9534                   23496942.4264
 -17306977.94548 -13454909.89547  20229043.9224                   20229040.9924
   9510598.03547   7427749.66043  23837521.0394                   23837518.7424
 -18512794.49248 -14409028.49646  20929150.0004                   20929145.7344
 11  7 25  3 23 30.0000000  0  7G10G25G12G29G05G04G02
 -13802367.32847 -10739257.22345  21921225.9064                   21921223.7664
 -19228250.41048 -14964018.89146  21765912.2814                   21765912.0824
 -21418311.31648 -16681015.57846  20762151.6954                   20762149.1374
 -11600207.73047  -9013595.40644  23484558.9224                   23484556.5634
 -17309899.59048 -13457186.47747  20228487.7344                   20228484.7274
   9610840.53546   7505860.72343  23856596.3834                   23856594.9574
 -18463053.05148 -14370268.93746  20938615.2734                   20938610.1764
 11  7 25  3 24  0.0000000  0  7G10G25G12G29G05G04G02
 -13704319.05547 -10662855.97745  21939884.2114                   21939881.6844
 -19250903.34448 -14981670.49246  21761601.4224                   21761601.8834
 -21372304.06248 -16645165.76646  20770906.1804                   20770903.3554
 -11665309.79347  -9064324.16044  23472169.7274                   23472167.8914
 -17312243.33648 -13459012.75047  20228041.5164                   20228038.5044
   9711046.39546   7583943.21143  23875663.5004                   23875663.2584
 -18413167.94148 -14331397.40646  20948107.9224                   20948103.5744
 11  7 25  3 24 30.0000000  0  7G10G25G12G29G05G04G02
 -13605871.00047 -10586143.20345  21958617.8754                   21958615.8444
 -19273016.32448 -14998901.35246  21757393.4224                   21757393.5044
 -21325739.33248 -16608881.56246  20779767.2734                   20779764.2154
 -11730428.82447  -9115066.18444  23459777.9144                   23459776.1684
 -17314014.80948 -13460393.09447  20227705.1094                   20227702.1644
   9811209.22746   7661992.19543  23894724.6484                   23894722.8914
 -18363145.58248 -14292418.93746  20957626.9694                   20957622.0634
 11  7 25  3 25  0.0000000  0  7G10G25G12G29G05G04G02
 -13507019.93747 -10509116.37945  21977429.0234                   21977426.4184
 -19294581.85548 -15015705.61746  21753289.5704                   21753289.2504
 -21278611.95348 -16572158.92246  20788735.5084                   20788732.3984
 -11795557.39847  -9165815.60244  23447384.4534                   23447383.3754
 -17315207.59848 -13461322.51247  20227477.8674                   20227475.2734
   9911334.62546   7740011.96143  23913778.5314                   23913776.2934
 -18312980.90248 -14253329.57446  20967173.2584                   20967167.9734
 11  7 25  3 25 30.0000000  0  7G10G25G12G29G05G04G02
 -13407773.32447 -10431781.36345  21996315.7344                   21996312.5274
 -19315603.32448 -15032085.92646  21749289.2894                   21749289.3834
 -21230927.57448 -16535002.27046  20797809.4224                   20797806.1724
 -11860699.39146  -9216575.45744  23434987.3984                   23434987.5554
 -17315826.35548 -13461804.64547  20227359.9694                   20227357.0864
  10011417.25046   7817998.44943  23932822.0474                   23932821.1524
 -18262679.27048 -14214133.48046  20976745.2034                   20976740.8714
 11  7 25  3 26  0.0000000  0  7G10G25G12G29G05G04G02
 -13308130.72747 -10354137.77745  22015276.4844                   22015273.7464
 -19336076.07448 -15048038.68446  21745393.5864                   21745393.6374
 -21182684.29748 -16497410.10946  20806989.6484                   20806986.5784
 -11925850.06647  -9267342.09444  23422590.0164                   23422589.1564
 -17315867.45348 -13461836.64547  20227352.0394                   20227349.4964
  10111459.90646   7895953.73843  23951860.1804                   23951858.6914
 -18212238.12947 -14174828.68746  20986343.6804                   20986339.7194
 11  7 25  3 26 30.0000000  0  7G10G25G12G29G05G04G02
 -13208093.06247 -10276186.34045  22034312.6804                   22034310.7774
 -19355997.05948 -15063561.48446  21741602.6954                   21741602.9224
 -21133881.70748 -16459382.11746  20816276.4924                   20816273.1334
 -11991006.35947  -9318113.09444  23410191.3054                   23410189.9344
 -17315328.81648 -13461416.90647  20227454.2584                   20227451.8324
  10211463.84846   7973878.91043  23970889.3364                   23970889.2934
 -18161656.38348 -14135414.34446  20995968.9774                   20995964.3524
 11  7 25  3 27  0.0000000  0  7G10G25G12G29G05G04G02
 -13107663.43447 -10197929.50845  22053423.7344                   22053422.2304
 -19375365.19148 -15078653.49646  21737917.0634                   21737916.8874
 -21084520.84048 -16420919.09446  20825669.8674                   20825666.3014
 -12056167.50847  -9368887.87944  23397792.1024                   23397790.0944
 -17314210.59848 -13460545.54747  20227667.1024                   20227664.5004
  10311428.28146   8051773.30543  23989913.4694                   23989911.9884
 -18110934.76648 -14095891.00046  21005621.5554                   21005616.7774
 11  7 25  3 27 30.0000000  0  7G10G25G12G29G05G04G02
 -13006847.53547 -10119371.63345  22072608.3134                   22072606.8164
 -19394182.36347 -15093316.19946  21734335.7424                   21734335.9694
 -21034606.23047 -16382024.59046  20835168.1884                   20835165.5234
 -12121335.55547  -9419668.03144  23385390.4924                   23385389.1724
 -17312515.90648 -13459224.97347  20227989.3364                   20227986.8594
  10411349.75446   8129634.20343  24008926.7974                   24008926.6914
 -18060077.51247 -14056261.95346  21015299.0004                   21015294.6214
 11  7 25  3 28  0.0000000  0  7G10G25G12G29G05G04G02
 -12905646.34847 -10040513.54345  22091866.4304                   22091863.4964
 -19412445.17248 -15107546.91846  21730860.5004                   21730860.6374
 -20984136.91447 -16342697.83246  20844772.2034                   20844769.3984
 -12186506.83247  -9470450.71944  23372988.2504                   23372987.0634
 -17310242.52048 -13457453.48847  20228422.6334                   20228419.7814
  10511229.87546   8207462.85543  24027935.3984                   24027933.2774
 -18009082.85947 -14016525.85546  21025002.8914                   21024997.7384
 11  7 25  3 28 30.0000000  0  7G10G25G12G29G05G04G02
 -12804066.28547  -9961360.26645  22111196.6024                   22111194.6604
 -19430155.70748 -15121347.29346  21727490.4924                   21727490.6644
 -20933117.46148 -16302942.40646  20854480.9454                   20854478.1724
 -12251683.78947  -9521237.84044  23360585.9614                   23360583.7774
 -17307393.37548 -13455233.36347  20228964.3364                   20228961.6844
  10611064.75446   8285256.29743  24046932.3984                   24046930.9534
 -17957955.08248 -13976686.02746  21034732.7424                   21034728.0084
 11  7 25  3 29  0.0000000  0  7G10G25G12G29G05G04G02
 -12702107.64847  -9881911.96544  22130598.5084                   22130595.6254
 -19447310.61748 -15134714.73446  21724226.1564                   21724226.2194
 -20881546.88747 -16262757.54746  20864294.2344                   20864291.2464
 -12316862.76247  -9572026.52744  23348183.3984                   23348180.1804
 -17303966.51248 -13452563.05147  20229616.7344                   20229613.9844
  10710856.17246   8363015.91043  24065921.4694                   24065920.4304
 -17906692.76648 -13936741.34846  21044487.2734                   21044482.5594
 11  7 25  3 29 30.0000000  0  7G10G25G12G29G05G04G02
 -12599768.29347  -9802166.98845  22150072.6094                   22150069.4574
 -19463903.66848 -15147644.35246  21721068.6094                   21721068.5084
 -20829422.00448 -16222140.74246  20874213.2344                   20874210.0904
 -12382037.62947  -9622812.05144  23335780.7034                   23335778.2814
 -17299956.63348 -13449438.45747  20230379.4774                   20230376.6134
  10810608.59446   8440745.07043  24084905.3284                   24084902.5784
 -17855291.26648 -13896688.21946  21054268.8754                   21054264.0394
 11  7 25  3 30  0.0000000  0  7G10G25G12G29G05G04G02
 -12497054.84047  -9722130.52745  22169618.9384                   22169616.4574
 -19479937.58648 -15160138.28946  21718017.0084                   21718017.3094
 -20776747.93048 -16181096.00446  20884236.9844                   20884234.2814
 -12447210.95747  -9673596.37144  23323378.2504                   23323375.9614
 -17295367.81648 -13445862.72347  20231252.9224                   20231250.3794
  10910318.01646   8518440.74643  24103877.7974                   24103877.0744
 -17803755.59447 -13856530.55146  21064075.4454                   21064070.6954
 11  7 25  3 30 30.0000000  0  7G10G25G12G29G05G04G02
 -12393977.16047  -9641810.27044  22189233.6334                   22189231.1134
 -19495418.05948 -15172200.96946  21715071.4844                   21715071.0554
 -20723532.56648 -16139629.48046  20894363.5164                   20894360.4924
 -12512388.32447  -9724383.85244  23310974.9454                   23310972.8554
 -17290206.75048 -13441841.08647  20232234.7344                   20232231.8404
  11009976.93046   8596097.06343  24122841.8054                   24122842.1644
 -17752092.80548 -13816273.82446  21073906.6334                   21073901.9924
 11  7 25  3 31  0.0000000  0  7G10G25G12G29G05G04G02
 -12290531.13747  -9561202.98445  22208919.2344                   22208916.5514
 -19510337.08248 -15183826.15246  21712232.3754                   21712231.4694
 -20669770.33248 -16097736.82846  20904593.9844                   20904590.8404
 -12577561.73047  -9775168.24644  23298572.9694                   23298570.6294
 -17284466.85248 -13437368.41847  20233327.2664                   20233324.4304
  11109591.85246   8673719.11343  24141798.9774                   24141797.3444
 -17700296.66048 -13775913.17646  21083762.9534                   21083758.2974
 11  7 25  3 31 30.0000000  0  7G10G25G12G29G05G04G02
 -12186712.77047  -9480305.53145  22228674.6024                   22228671.8794
 -19524687.02748 -15195007.90646  21709501.6724                   21709500.9454
 -20615456.35948 -16055414.23046  20914929.9064                   20914926.6214
 -12642723.04347  -9825943.23444  23286173.2274                   23286170.8634
 -17278141.37148 -13432439.44947  20234531.2734                   20234527.9844
  11209168.86346   8751311.56343  24160746.9694                   24160746.5594
 -17648361.36748 -13735444.09846  21093646.1644                   21093641.0784
 11  7 25  3 32  0.0000000  0  7G10G25G12G29G05G04G02
 -12082538.72347  -9399130.95345  22248498.4534                   22248495.8054
 -19538480.22748 -15205755.82046  21706876.9384                   21706876.4494
 -20560605.55148 -16012673.34846  20925367.5084                   20925364.3634
 -12707884.74647  -9876718.50844  23273773.3444                   23273771.3954
 -17271244.01648 -13427064.85947  20235843.7664                   20235840.5084
  11308694.09446   8828863.67243  24179687.7194                   24179685.4064
 -17596301.08248 -13694877.63746  21103552.5164                   21103548.1094
 11  7 25  3 32 30.0000000  0  7G10G25G12G29G05G04G02
 -11978001.50047  -9317673.36745  22268391.4844                   22268388.5984
 -19551705.28148 -15216061.04746  21704360.6564                   21704360.5084
 -20505208.82448 -15969507.06246  20935909.1334                   20935906.0634
 -12773034.85947  -9927484.78144  23261375.7734                   23261373.6884
 -17263764.55148 -13421236.68747  20237266.7034                   20237263.4454
  11408177.31646   8906383.07843  24198617.7974                   24198616.5514
 -17544106.19548 -13654206.29346  21113485.1954                   21113480.4884
 11  7 25  3 33  0.0000000  0  7G10G25G12G29G05G04G02
 -11873110.51247  -9235940.12545  22288351.9384                   22288348.7704
 -19564368.01648 -15225928.07046  21701950.9694                   21701950.6914
 -20449274.48848 -15925921.86346  20946553.3444                   20946550.7974
 -12838178.93747  -9978246.35544  23248979.5944                   23248977.0204
 -17255709.51248 -13414960.02047  20238799.6254                   20238796.9104
  11507611.75446   8983864.45743  24217540.3984                   24217539.0394
 -17491784.07048 -13613435.78946  21123441.4384                   21123437.0744
 11  7 25  3 33 30.0000000  0  7G10G25G12G29G05G04G02
 -11767858.10947  -9153925.30945  22308379.9844                   22308378.6254
 -19576456.85248 -15235347.95746  21699650.0394                   21699649.8914
 -20392793.67248 -15881910.82846  20957300.8524                   20957298.2814
 -12903305.05147 -10028993.92644  23236586.0784                   23236583.8014
 -17247068.71948 -13408226.92247  20240443.7664                   20240441.1564
  11607007.48046   9061315.68043  24236452.3754                   24236454.0314
 -17439324.73448 -13572558.37946  21133424.5234                   21133419.8634
 11  7 25  3 34  0.0000000  0  7G10G25G12G29G05G04G02
 -11662255.84847  -9071637.81245  22328476.7114                   22328473.3674
 -19587979.52048 -15244326.60246  21697457.2974                   21697457.6524
 -20335776.15648 -15837481.61346  20968151.0474                   20968148.2154
 -12968420.47347 -10079733.17644  23224194.6094                   23224192.4144
 -17237851.07448 -13401044.32047  20242197.6884                   20242195.0784
  11706355.20346   9138729.45743  24255357.9144                   24255358.3164
 -17386737.24648 -13531581.09846  21143431.5704                   21143426.4024
 11  7 25  3 34 30.0000000  0  7G10G25G12G29G05G04G02
 -11556310.80547  -8989083.23445  22348636.9064                   22348634.4144
 -19598939.04348 -15252866.48046  21695372.1484                   21695371.7664
 -20278228.03148 -15792638.91446  20979102.2034                   20979099.2734
 -13033528.09046 -10130466.31644  23211804.8984                   23211802.5514
 -17228060.82848 -13393415.54347  20244060.7034                   20244058.1454
  11805650.77046   9216102.66443  24274254.1024                   24274253.2504
 -17334026.67248 -13490507.93046  21153462.1564                   21153457.4144
 11  7 25  3 35  0.0000000  0  7G10G25G12G29G05G04G02
 -11450018.14147  -8906257.79345  22368862.7584                   22368862.1054
 -19609327.11748 -15260961.07446  21693395.1174                   21693395.6804
 -20220143.41448 -15747378.17246  20990155.2734                   20990152.6844
 -13098618.97747 -10181186.42244  23199418.2974                   23199416.6644
 -17217690.96148 -13385335.10547  20246033.9064                   20246031.3404
  11904901.07046   9293440.54743  24293138.3524                   24293140.7974
 -17281185.98448 -13449333.35946  21163517.1884                   21163512.2074
 11  7 25  3 35 30.0000000  0  7G10G25G12G29G05G04G02
 -11343380.94547  -8823163.86344  22389156.4304                   22389153.3914
 -19619142.94948 -15268609.74646  21691527.0234                   21691527.0664
 -20161523.69548 -15701700.46546  21001310.0864                   21001307.5004
 -13163692.17647 -10231892.77744  23187035.3444                   23187033.6524
 -17206741.80148 -13376803.26647  20248117.7974                   20248114.9534
  12004105.82046   9370742.92643  24312020.1644                   24312017.2424
 -17228215.91848 -13408057.97746  21173596.7424                   21173592.6884
 11  7 25  3 36  0.0000000  0  8G10G25G12G29G26G05G04G02
 -11236403.61347  -8739804.91444  22409511.6804                   22409511.2624
 -19628387.23448 -15275813.07046  21689767.9614                   21689767.2734
 -20102372.33648 -15655608.51246  21012566.3524                   21012563.0784
 -13228747.59047 -10282585.25444  23174656.0784                   23174654.0904
  -7978862.19956  -6205199.85553  24760148.2504                   24760146.8244
 -17195214.93048 -13367821.27747  20250311.2194                   20250308.0044
  12103262.81646   9448008.09043  24330888.9534                   24330886.0744
 -17175118.64848 -13366683.47746  21183700.6414                   21183696.0084
 11  7 25  3 36 30.0000000  0  8G10G25G12G29G26G05G04G02
 -11129091.92647  -8656185.43444  22429933.6414                   22429930.7074
 -19637061.95748 -15282572.58246  21688117.5314                   21688117.3164
 -20042693.75848 -15609105.72746  21023922.6884                   21023919.2074
 -13293786.80947 -10333265.13345  23162279.6174                   23162277.2424
  -8056171.70746  -6265440.96944  24745435.8444                   24745435.6564
 -17183113.84448 -13358391.84047  20252613.6724                   20252611.2074
  12202369.03546   9525233.67243  24349747.9384                   24349745.5314
 -17121897.61748 -13325212.52746  21193828.8524                   21193823.8794
 11  7 25  3 37  0.0000000  0  8G10G25G12G29G26G05G04G02
 -11021457.24647  -8572314.26644  22450415.5004                   22450413.6604
 -19645174.80948 -15288894.26646  21686573.0634                   21686573.3634
 -19982498.11348 -15562200.04746  21035377.6724                   21035374.3834
 -13358816.91847 -10383937.90245  23149904.1724                   23149902.7734
  -8133606.58246  -6325779.77343  24730701.2584                   24730699.8134
 -17170447.00848 -13348521.56647  20255024.3754                   20255021.3364
  12301415.80546   9602412.97343  24368596.7894                   24368594.1414
 -17068561.79348 -13283652.14546  21203978.0944                   21203972.6174
 11  7 25  3 37 30.0000000  0  8G10G25G12G29G26G05G04G02
 -10913500.94147  -8488192.44544  22470959.1174                   22470955.8594
 -19652723.37948 -15294776.23446  21685137.0554                   21685136.9064
 -19921785.44948 -15514891.47746  21046931.0084                   21046928.1174
 -13423834.70747 -10434601.05945  23137532.1804                   23137530.5084
  -8211162.41046  -6386212.82443  24715943.1254                   24715941.3594
 -17157213.48448 -13338209.71947  20257542.6094                   20257539.2774
  12400404.02746   9679546.63343  24387432.9304                   24387431.4614
 -17015110.28547 -13242001.60946  21214149.4224                   21214144.3204
 11  7 25  3 38  0.0000000  0  8G10G25G12G29G26G05G04G02
 -10805216.89547  -8403815.28144  22491564.4304                   22491562.9104
 -19659697.93748 -15300210.95346  21683809.9454                   21683809.7194
 -19860548.53148 -15467174.39846  21058583.8054                   21058580.8954
 -13488830.10547 -10485246.74245  23125163.8284                   23125162.1294
  -8288827.00046  -6446730.61343  24701163.1644                   24701162.1024
 -17143404.57448 -13327449.50847  20260170.5394                   20260167.6134
  12499342.52746   9756641.57043  24406259.2584                   24406259.0274
 -16961534.82448 -13200254.50846  21224344.9844                   21224339.4184
 11  7 25  3 38 30.0000000  0  8G10G25G12G29G26G05G04G02
 -10696613.39847  -8319189.19145  22512231.5084                   22512229.1334
 -19666103.16448 -15305202.02046  21682590.7114                   21682590.8364
 -19798794.44948 -15419054.33246  21070335.3364                   21070331.9414
 -13553807.02347 -10535878.06245  23112798.8284                   23112797.7344
  -8366603.03946  -6507335.28543  24686363.0704                   24686361.0004
 -17129026.12148 -13316245.51247  20262906.3754                   20262903.8834
  12598225.55946   9833693.30143  24425075.8594                   24425076.0554
 -16907841.32448 -13158415.39146  21234562.2114                   21234556.7154
 11  7 25  3 39  0.0000000  0  8G10G25G12G29G26G05G04G02
 -10587694.09047  -8234317.03144  22532958.2504                   22532955.5784
 -19671938.80148 -15309749.24646  21681480.7974                   21681480.2154
 -19736525.39548 -15370533.00446  21082184.6414                   21082181.9144
 -13618764.46547 -10586494.18445  23100438.4454                   23100436.2934
  -8444487.93446  -6568024.75843  24671542.3444                   24671540.2624
 -17114079.34048 -13304598.64847  20265750.6334                   20265747.8364
  12697052.41446   9910701.27043  24443882.6484                   24443881.0164
 -16854030.77348 -13116485.10246  21244802.2274                   21244797.6644
 11  7 25  3 39 30.0000000  0  8G10G25G12G29G26G05G04G02
 -10478451.96547  -8149193.28544  22553746.7974                   22553743.4964
 -19677194.47348 -15313844.57046  21680480.0864                   21680480.0704
 -19673733.87148 -15321604.54346  21094133.6724                   21094130.5434
 -13683691.32447 -10637086.50045  23088082.6334                   23088080.5784
  -8522469.11346  -6628789.20343  24656701.7814                   24656700.1094
 -17098554.60548 -13292501.43747  20268704.7734                   20268702.0434
  12795832.41446   9987672.64543  24462679.8054                   24462677.9804
 -16800094.05548 -13074456.47346  21255065.6254                   21255060.4574
 11  7 25  3 40  0.0000000  0  8G10G25G12G29G26G05G04G02
 -10368893.07047  -8063822.74645  22574594.5704                   22574592.5704
 -19681872.78148 -15317490.00046  21679589.9774                   21679589.8324
 -19610424.42648 -15272272.50446  21106180.9534                   21106177.5864
 -13748589.44947 -10687656.39845  23075732.4454                   23075731.0554
  -8600546.87946  -6689628.98443  24641844.2274                   24641842.4104
 -17082455.85948 -13279956.94147  20271768.6334                   20271765.8134
  12894562.00847  10064604.84443  24481467.0554                   24481465.4884
 -16746035.05148 -13032332.56246  21265352.8674                   21265348.2274
 11  7 25  3 40 30.0000000  0  8G10G25G12G29G26G05G04G02
 -10259029.81247  -7978215.01245  22595500.7734                   22595498.8714
 -19685982.40248 -15320692.28946  21678807.8674                   21678807.6414
 -19546608.69548 -15222545.96946  21118324.3594                   21118321.7544
 -13813466.82846 -10738210.16045  23063386.9384                   23063384.9344
  -8678727.46546  -6750548.83242  24626967.2504                   24626965.2114
 -17065792.94548 -13266972.84047  20274939.2974                   20274936.6134
  12993231.59847  10141490.22743  24500244.4384                   24500240.9304
 -16691863.45348 -12990120.92646  21275661.3054                   21275657.1414
 11  7 25  3 41  0.0000000  0  8G10G25G12G29G26G05G04G02
 -10148856.38347  -7892365.62945  22616466.0784                   22616464.6684
 -19689514.12948 -15323444.28146  21678136.0084                   21678135.8984
 -19482279.73048 -15172419.51246  21130566.1804                   21130563.1764
 -13878313.25047 -10788739.75445  23051046.8834                   23051045.6644
  -8756999.40246  -6811539.93043  24612071.7664                   24612070.4734
 -17048557.64848 -13253542.72347  20278218.9224                   20278215.7504
  13091849.45746  10218335.31343  24519009.2504                   24519007.3324
 -16637571.22348 -12947815.27346  21285992.7504                   21285988.7704
 11  7 25  3 41 30.0000000  0  8G10G25G12G29G26G05G04G02
 -10038378.75047  -7806279.13344  22637489.9534                   22637487.5594
 -19692470.57848 -15325748.00046  21677573.4304                   21677573.1844
 -19417442.28948 -15121896.84046  21142904.4304                   21142900.6094
 -13943130.35547 -10839246.54745  23038712.6804                   23038710.8594
  -8835362.88346  -6872602.35543  24597159.8524                   24597157.6414
 -17030753.74648 -13239669.53547  20281607.3054                   20281604.3364
  13190412.08246  10295137.35243  24537764.6174                   24537764.0164
 -16583162.04748 -12905418.51246  21296346.7814                   21296342.3554
 11  7 25  3 42  0.0000000  0  8G10G25G12G29G26G05G04G02
  -9927599.76647  -7719957.90244  22658568.8594                   22658567.6764
 -19694851.14148 -15327602.97746  21677120.3444                   21677120.5434
 -19352098.22748 -15070979.38346  21155339.0634                   21155336.1454
 -14007916.60547 -10889729.27745  23026384.5944                   23026382.2854
  -8913814.77046  -6933733.69143  24582231.3754                   24582229.2234
 -17012382.25448 -13225354.06647  20285102.8834                   20285100.3364
  13288919.24246  10371896.17243  24556510.9144                   24556509.4804
 -16528636.39848 -12862930.98846  21306722.3524                   21306717.0824
 11  7 25  3 42 30.0000000  0  8G10G25G12G29G26G05G04G02
  -9816516.33247  -7633399.35244  22679709.0704                   22679706.0044
 -19696649.14848 -15329004.00446  21676778.1334                   21676777.7304
 -19286244.10248 -15019664.48446  21167870.5234                   21167867.8134
 -14072664.71547 -10940182.27045  23014062.7194                   23014061.2974
  -8992345.80946  -6994926.68443  24567287.6724                   24567286.8754
 -16993437.62948 -13210592.00447  20288707.9384                   20288705.1764
  13387376.87146  10448616.39843  24575248.5704                   24575245.1954
 -16473989.01648 -12820348.60946  21317121.3674                   21317116.4534
 11  7 25  3 43  0.0000000  0  8G10G25G12G29G26G05G04G02
  -9705140.47347  -7546613.02744  22700901.7734                   22700900.2504
 -19697873.04748 -15329957.66046  21676545.1564                   21676544.6684
 -19219890.20748 -14967960.15646  21180497.2894                   21180494.8364
 -14137381.82447 -10990611.13745  23001747.7344                   23001745.6764
  -9070962.03146  -7056186.04742  24552327.6174                   24552325.9694
 -16973928.71548 -13195390.24647  20292420.3204                   20292417.6134
  13485775.60546  10525290.73443  24593969.7504                   24593969.5044
 -16419229.33648 -12777678.72746  21327541.5234                   21327536.2074
 11  7 25  3 43 30.0000000  0  8G10G25G12G29G26G05G04G02
  -9593468.64547  -7459596.00044  22722154.2034                   22722150.2384
 -19698516.05548 -15330458.68746  21676423.2584                   21676422.6564
 -19153032.16048 -14915862.97746  21193219.9694                   21193216.8714
 -14202060.41047 -11041009.98045  22989439.4454                   22989437.7624
  -9149654.18446  -7117504.58643  24537352.6644                   24537351.3444
 -16953850.19948 -13179744.62547  20296240.9774                   20296238.6454
  13584121.66046  10601924.02343  24612685.3674                   24612684.7974
 -16364351.41048 -12734916.69546  21337985.0314                   21337980.5864
